<?xml version="1.0" encoding="UTF-8" standalone="no" ?>
<gpx xmlns="http://www.topografix.com/GPX/1/1" xmlns:xsi="http://www.w3.org/2001/XMLSchema-instance" xsi:schemaLocation="http://www.topografix.com/GPX/1/1 http://www.topografix.com/GPX/1/1/gpx.xsd" version="1.1" creator="VisuGPX - https://www.visugpx.com">
  <metadata>
    <name>GILHOC SUR ORMEZE 3 Le Col des Fans</name>
  </metadata>
  <trk>
    <name><![CDATA[GILHOC SUR ORMEZE 3 Le Col des Fans_1]]></name>
    <extensions>
      <line xmlns="http://www.topografix.com/GPX/gpx_style/0/2">
        <color>0000FF</color>
        <width>4</width>
      </line>
    </extensions>
    <trkseg>
      <trkpt lat="44.98601" lon="4.68787">
        <ele>493</ele>
        <time>2018-01-31T09:38:57+01:00</time>
      </trkpt>
      <trkpt lat="44.98586" lon="4.68788">
        <ele>494</ele>
        <time>2018-01-31T09:43:17+01:00</time>
      </trkpt>
      <trkpt lat="44.98567" lon="4.68797">
        <ele>498</ele>
        <time>2018-01-31T09:43:57+01:00</time>
      </trkpt>
      <trkpt lat="44.98566" lon="4.68797">
        <ele>498</ele>
        <time>2018-01-31T09:43:58+01:00</time>
      </trkpt>
      <trkpt lat="44.98558" lon="4.68801">
        <ele>499</ele>
        <time>2018-01-31T09:44:06+01:00</time>
      </trkpt>
      <trkpt lat="44.9855" lon="4.68806">
        <ele>501</ele>
        <time>2018-01-31T09:44:14+01:00</time>
      </trkpt>
      <trkpt lat="44.98541" lon="4.68817">
        <ele>502</ele>
        <time>2018-01-31T09:44:23+01:00</time>
      </trkpt>
      <trkpt lat="44.98534" lon="4.68825">
        <ele>503</ele>
        <time>2018-01-31T09:44:31+01:00</time>
      </trkpt>
      <trkpt lat="44.98526" lon="4.68837">
        <ele>504</ele>
        <time>2018-01-31T09:44:41+01:00</time>
      </trkpt>
      <trkpt lat="44.98519" lon="4.68848">
        <ele>504</ele>
        <time>2018-01-31T09:44:50+01:00</time>
      </trkpt>
      <trkpt lat="44.98508" lon="4.6886">
        <ele>505</ele>
        <time>2018-01-31T09:45:00+01:00</time>
      </trkpt>
      <trkpt lat="44.98502" lon="4.68867">
        <ele>505</ele>
        <time>2018-01-31T09:45:07+01:00</time>
      </trkpt>
      <trkpt lat="44.98495" lon="4.68873">
        <ele>506</ele>
        <time>2018-01-31T09:45:14+01:00</time>
      </trkpt>
      <trkpt lat="44.98489" lon="4.68879">
        <ele>507</ele>
        <time>2018-01-31T09:45:22+01:00</time>
      </trkpt>
      <trkpt lat="44.98484" lon="4.68881">
        <ele>508</ele>
        <time>2018-01-31T09:45:30+01:00</time>
      </trkpt>
      <trkpt lat="44.98483" lon="4.68885">
        <ele>508</ele>
        <time>2018-01-31T09:45:41+01:00</time>
      </trkpt>
      <trkpt lat="44.98473" lon="4.68892">
        <ele>509</ele>
        <time>2018-01-31T09:45:50+01:00</time>
      </trkpt>
      <trkpt lat="44.98466" lon="4.68897">
        <ele>510</ele>
        <time>2018-01-31T09:45:56+01:00</time>
      </trkpt>
      <trkpt lat="44.98462" lon="4.68899">
        <ele>510</ele>
        <time>2018-01-31T09:45:59+01:00</time>
      </trkpt>
      <trkpt lat="44.98459" lon="4.689">
        <ele>511</ele>
        <time>2018-01-31T09:46:02+01:00</time>
      </trkpt>
      <trkpt lat="44.98448" lon="4.68902">
        <ele>513</ele>
        <time>2018-01-31T09:46:12+01:00</time>
      </trkpt>
      <trkpt lat="44.98446" lon="4.68902">
        <ele>513</ele>
        <time>2018-01-31T09:46:13+01:00</time>
      </trkpt>
      <trkpt lat="44.98436" lon="4.68901">
        <ele>515</ele>
        <time>2018-01-31T09:46:21+01:00</time>
      </trkpt>
      <trkpt lat="44.98427" lon="4.68906">
        <ele>516</ele>
        <time>2018-01-31T09:46:30+01:00</time>
      </trkpt>
      <trkpt lat="44.98418" lon="4.68911">
        <ele>517</ele>
        <time>2018-01-31T09:46:38+01:00</time>
      </trkpt>
      <trkpt lat="44.98407" lon="4.68914">
        <ele>518</ele>
        <time>2018-01-31T09:46:46+01:00</time>
      </trkpt>
      <trkpt lat="44.98399" lon="4.68918">
        <ele>519</ele>
        <time>2018-01-31T09:46:53+01:00</time>
      </trkpt>
      <trkpt lat="44.98394" lon="4.6892">
        <ele>519</ele>
        <time>2018-01-31T09:46:57+01:00</time>
      </trkpt>
      <trkpt lat="44.98385" lon="4.68924">
        <ele>520</ele>
        <time>2018-01-31T09:47:05+01:00</time>
      </trkpt>
      <trkpt lat="44.98377" lon="4.68928">
        <ele>521</ele>
        <time>2018-01-31T09:47:12+01:00</time>
      </trkpt>
      <trkpt lat="44.98368" lon="4.68931">
        <ele>522</ele>
        <time>2018-01-31T09:47:19+01:00</time>
      </trkpt>
      <trkpt lat="44.98359" lon="4.68932">
        <ele>523</ele>
        <time>2018-01-31T09:47:27+01:00</time>
      </trkpt>
      <trkpt lat="44.98356" lon="4.68933">
        <ele>523</ele>
        <time>2018-01-31T09:47:29+01:00</time>
      </trkpt>
      <trkpt lat="44.98346" lon="4.68933">
        <ele>525</ele>
        <time>2018-01-31T09:47:37+01:00</time>
      </trkpt>
      <trkpt lat="44.98337" lon="4.68933">
        <ele>526</ele>
        <time>2018-01-31T09:47:45+01:00</time>
      </trkpt>
      <trkpt lat="44.98329" lon="4.6893">
        <ele>527</ele>
        <time>2018-01-31T09:47:52+01:00</time>
      </trkpt>
      <trkpt lat="44.9832" lon="4.6893">
        <ele>527</ele>
        <time>2018-01-31T09:47:59+01:00</time>
      </trkpt>
      <trkpt lat="44.98311" lon="4.68928">
        <ele>527</ele>
        <time>2018-01-31T09:48:06+01:00</time>
      </trkpt>
      <trkpt lat="44.98301" lon="4.6893">
        <ele>527</ele>
        <time>2018-01-31T09:48:15+01:00</time>
      </trkpt>
      <trkpt lat="44.98287" lon="4.68928">
        <ele>527</ele>
        <time>2018-01-31T09:48:25+01:00</time>
      </trkpt>
      <trkpt lat="44.98277" lon="4.68925">
        <ele>527</ele>
        <time>2018-01-31T09:48:32+01:00</time>
      </trkpt>
      <trkpt lat="44.98269" lon="4.68922">
        <ele>527</ele>
        <time>2018-01-31T09:48:39+01:00</time>
      </trkpt>
      <trkpt lat="44.98263" lon="4.68919">
        <ele>527</ele>
        <time>2018-01-31T09:48:44+01:00</time>
      </trkpt>
      <trkpt lat="44.98258" lon="4.68916">
        <ele>527</ele>
        <time>2018-01-31T09:48:48+01:00</time>
      </trkpt>
      <trkpt lat="44.98254" lon="4.68914">
        <ele>528</ele>
        <time>2018-01-31T09:48:52+01:00</time>
      </trkpt>
      <trkpt lat="44.9825" lon="4.68913">
        <ele>528</ele>
        <time>2018-01-31T09:48:57+01:00</time>
      </trkpt>
      <trkpt lat="44.98242" lon="4.68907">
        <ele>530</ele>
        <time>2018-01-31T09:49:05+01:00</time>
      </trkpt>
      <trkpt lat="44.98239" lon="4.689">
        <ele>532</ele>
        <time>2018-01-31T09:49:12+01:00</time>
      </trkpt>
      <trkpt lat="44.98234" lon="4.68891">
        <ele>535</ele>
        <time>2018-01-31T09:49:20+01:00</time>
      </trkpt>
      <trkpt lat="44.98224" lon="4.68885">
        <ele>537</ele>
        <time>2018-01-31T09:49:29+01:00</time>
      </trkpt>
      <trkpt lat="44.98215" lon="4.68879">
        <ele>539</ele>
        <time>2018-01-31T09:49:37+01:00</time>
      </trkpt>
      <trkpt lat="44.98204" lon="4.68873">
        <ele>541</ele>
        <time>2018-01-31T09:49:45+01:00</time>
      </trkpt>
      <trkpt lat="44.98196" lon="4.6887">
        <ele>542</ele>
        <time>2018-01-31T09:49:52+01:00</time>
      </trkpt>
      <trkpt lat="44.98194" lon="4.68866">
        <ele>543</ele>
        <time>2018-01-31T09:50:00+01:00</time>
      </trkpt>
      <trkpt lat="44.98187" lon="4.68866">
        <ele>544</ele>
        <time>2018-01-31T09:50:09+01:00</time>
      </trkpt>
      <trkpt lat="44.98181" lon="4.68869">
        <ele>543</ele>
        <time>2018-01-31T09:50:16+01:00</time>
      </trkpt>
      <trkpt lat="44.98175" lon="4.6887">
        <ele>543</ele>
        <time>2018-01-31T09:50:23+01:00</time>
      </trkpt>
      <trkpt lat="44.98168" lon="4.6887">
        <ele>543</ele>
        <time>2018-01-31T09:50:31+01:00</time>
      </trkpt>
      <trkpt lat="44.98165" lon="4.68868">
        <ele>544</ele>
        <time>2018-01-31T09:50:34+01:00</time>
      </trkpt>
      <trkpt lat="44.98157" lon="4.68864">
        <ele>547</ele>
        <time>2018-01-31T09:50:42+01:00</time>
      </trkpt>
      <trkpt lat="44.98151" lon="4.68863">
        <ele>548</ele>
        <time>2018-01-31T09:50:51+01:00</time>
      </trkpt>
      <trkpt lat="44.98147" lon="4.68861">
        <ele>550</ele>
        <time>2018-01-31T09:50:58+01:00</time>
      </trkpt>
      <trkpt lat="44.98139" lon="4.68857">
        <ele>552</ele>
        <time>2018-01-31T09:51:05+01:00</time>
      </trkpt>
      <trkpt lat="44.98136" lon="4.68857">
        <ele>553</ele>
        <time>2018-01-31T09:51:12+01:00</time>
      </trkpt>
      <trkpt lat="44.98131" lon="4.68858">
        <ele>554</ele>
        <time>2018-01-31T09:51:18+01:00</time>
      </trkpt>
      <trkpt lat="44.9813" lon="4.68859">
        <ele>554</ele>
        <time>2018-01-31T09:51:19+01:00</time>
      </trkpt>
      <trkpt lat="44.98123" lon="4.6886">
        <ele>555</ele>
        <time>2018-01-31T09:51:26+01:00</time>
      </trkpt>
      <trkpt lat="44.98116" lon="4.68859">
        <ele>557</ele>
        <time>2018-01-31T09:51:33+01:00</time>
      </trkpt>
      <trkpt lat="44.98113" lon="4.68858">
        <ele>558</ele>
        <time>2018-01-31T09:51:41+01:00</time>
      </trkpt>
      <trkpt lat="44.98111" lon="4.68859">
        <ele>558</ele>
        <time>2018-01-31T09:51:44+01:00</time>
      </trkpt>
      <trkpt lat="44.98109" lon="4.68858">
        <ele>559</ele>
        <time>2018-01-31T09:51:47+01:00</time>
      </trkpt>
      <trkpt lat="44.98102" lon="4.68858">
        <ele>560</ele>
        <time>2018-01-31T09:51:53+01:00</time>
      </trkpt>
      <trkpt lat="44.98095" lon="4.68861">
        <ele>561</ele>
        <time>2018-01-31T09:52:01+01:00</time>
      </trkpt>
      <trkpt lat="44.98092" lon="4.68861">
        <ele>561</ele>
        <time>2018-01-31T09:52:08+01:00</time>
      </trkpt>
      <trkpt lat="44.98088" lon="4.68858">
        <ele>563</ele>
        <time>2018-01-31T09:52:17+01:00</time>
      </trkpt>
      <trkpt lat="44.98083" lon="4.68855">
        <ele>565</ele>
        <time>2018-01-31T09:52:23+01:00</time>
      </trkpt>
      <trkpt lat="44.98079" lon="4.68853">
        <ele>566</ele>
        <time>2018-01-31T09:52:31+01:00</time>
      </trkpt>
      <trkpt lat="44.98073" lon="4.68851">
        <ele>566</ele>
        <time>2018-01-31T09:52:39+01:00</time>
      </trkpt>
      <trkpt lat="44.98066" lon="4.68851">
        <ele>566</ele>
        <time>2018-01-31T09:52:46+01:00</time>
      </trkpt>
      <trkpt lat="44.98057" lon="4.68848">
        <ele>567</ele>
        <time>2018-01-31T09:52:55+01:00</time>
      </trkpt>
      <trkpt lat="44.98049" lon="4.68846">
        <ele>568</ele>
        <time>2018-01-31T09:53:02+01:00</time>
      </trkpt>
      <trkpt lat="44.98043" lon="4.68845">
        <ele>568</ele>
        <time>2018-01-31T09:53:09+01:00</time>
      </trkpt>
      <trkpt lat="44.98038" lon="4.68844">
        <ele>569</ele>
        <time>2018-01-31T09:53:17+01:00</time>
      </trkpt>
      <trkpt lat="44.98029" lon="4.68843">
        <ele>569</ele>
        <time>2018-01-31T09:53:25+01:00</time>
      </trkpt>
      <trkpt lat="44.98022" lon="4.68842">
        <ele>570</ele>
        <time>2018-01-31T09:53:32+01:00</time>
      </trkpt>
      <trkpt lat="44.98016" lon="4.68837">
        <ele>571</ele>
        <time>2018-01-31T09:53:39+01:00</time>
      </trkpt>
      <trkpt lat="44.98005" lon="4.68831">
        <ele>573</ele>
        <time>2018-01-31T09:53:48+01:00</time>
      </trkpt>
      <trkpt lat="44.97998" lon="4.68829">
        <ele>573</ele>
        <time>2018-01-31T09:53:55+01:00</time>
      </trkpt>
      <trkpt lat="44.97991" lon="4.68827">
        <ele>573</ele>
        <time>2018-01-31T09:54:05+01:00</time>
      </trkpt>
      <trkpt lat="44.97984" lon="4.68828">
        <ele>573</ele>
        <time>2018-01-31T09:54:14+01:00</time>
      </trkpt>
      <trkpt lat="44.97976" lon="4.68826">
        <ele>573</ele>
        <time>2018-01-31T09:54:20+01:00</time>
      </trkpt>
      <trkpt lat="44.9797" lon="4.68825">
        <ele>573</ele>
        <time>2018-01-31T09:54:26+01:00</time>
      </trkpt>
      <trkpt lat="44.97957" lon="4.68823">
        <ele>573</ele>
        <time>2018-01-31T09:54:36+01:00</time>
      </trkpt>
      <trkpt lat="44.9795" lon="4.68822">
        <ele>573</ele>
        <time>2018-01-31T09:54:47+01:00</time>
      </trkpt>
      <trkpt lat="44.97939" lon="4.68819">
        <ele>573</ele>
        <time>2018-01-31T09:54:55+01:00</time>
      </trkpt>
      <trkpt lat="44.97934" lon="4.68817">
        <ele>574</ele>
        <time>2018-01-31T09:55:02+01:00</time>
      </trkpt>
      <trkpt lat="44.97925" lon="4.68816">
        <ele>573</ele>
        <time>2018-01-31T09:55:08+01:00</time>
      </trkpt>
      <trkpt lat="44.9792" lon="4.68817">
        <ele>573</ele>
        <time>2018-01-31T09:55:14+01:00</time>
      </trkpt>
      <trkpt lat="44.97916" lon="4.68817">
        <ele>573</ele>
        <time>2018-01-31T09:55:17+01:00</time>
      </trkpt>
      <trkpt lat="44.97908" lon="4.68815">
        <ele>574</ele>
        <time>2018-01-31T09:55:25+01:00</time>
      </trkpt>
      <trkpt lat="44.97899" lon="4.68811">
        <ele>575</ele>
        <time>2018-01-31T09:55:34+01:00</time>
      </trkpt>
      <trkpt lat="44.97892" lon="4.68809">
        <ele>575</ele>
        <time>2018-01-31T09:55:41+01:00</time>
      </trkpt>
      <trkpt lat="44.97888" lon="4.68808">
        <ele>576</ele>
        <time>2018-01-31T09:55:44+01:00</time>
      </trkpt>
      <trkpt lat="44.97876" lon="4.68804">
        <ele>577</ele>
        <time>2018-01-31T09:55:53+01:00</time>
      </trkpt>
      <trkpt lat="44.97866" lon="4.68802">
        <ele>577</ele>
        <time>2018-01-31T09:56:02+01:00</time>
      </trkpt>
      <trkpt lat="44.97857" lon="4.688">
        <ele>577</ele>
        <time>2018-01-31T09:56:10+01:00</time>
      </trkpt>
      <trkpt lat="44.9785" lon="4.68797">
        <ele>578</ele>
        <time>2018-01-31T09:56:18+01:00</time>
      </trkpt>
      <trkpt lat="44.97842" lon="4.68794">
        <ele>578</ele>
        <time>2018-01-31T09:56:26+01:00</time>
      </trkpt>
      <trkpt lat="44.97835" lon="4.68792">
        <ele>579</ele>
        <time>2018-01-31T09:56:33+01:00</time>
      </trkpt>
      <trkpt lat="44.97826" lon="4.68793">
        <ele>579</ele>
        <time>2018-01-31T09:56:41+01:00</time>
      </trkpt>
      <trkpt lat="44.97819" lon="4.68794">
        <ele>579</ele>
        <time>2018-01-31T09:56:48+01:00</time>
      </trkpt>
      <trkpt lat="44.97809" lon="4.68795">
        <ele>580</ele>
        <time>2018-01-31T09:56:57+01:00</time>
      </trkpt>
      <trkpt lat="44.97802" lon="4.68795">
        <ele>581</ele>
        <time>2018-01-31T09:57:06+01:00</time>
      </trkpt>
      <trkpt lat="44.97796" lon="4.68796">
        <ele>581</ele>
        <time>2018-01-31T09:57:11+01:00</time>
      </trkpt>
      <trkpt lat="44.97793" lon="4.68797">
        <ele>581</ele>
        <time>2018-01-31T09:57:14+01:00</time>
      </trkpt>
      <trkpt lat="44.97786" lon="4.68797">
        <ele>582</ele>
        <time>2018-01-31T09:57:21+01:00</time>
      </trkpt>
      <trkpt lat="44.9778" lon="4.68798">
        <ele>582</ele>
        <time>2018-01-31T09:57:29+01:00</time>
      </trkpt>
      <trkpt lat="44.97775" lon="4.688">
        <ele>583</ele>
        <time>2018-01-31T09:57:34+01:00</time>
      </trkpt>
      <trkpt lat="44.97767" lon="4.68802">
        <ele>583</ele>
        <time>2018-01-31T09:57:40+01:00</time>
      </trkpt>
      <trkpt lat="44.97759" lon="4.68802">
        <ele>584</ele>
        <time>2018-01-31T09:57:48+01:00</time>
      </trkpt>
      <trkpt lat="44.97749" lon="4.68802">
        <ele>585</ele>
        <time>2018-01-31T09:57:55+01:00</time>
      </trkpt>
      <trkpt lat="44.97742" lon="4.68805">
        <ele>586</ele>
        <time>2018-01-31T09:58:02+01:00</time>
      </trkpt>
      <trkpt lat="44.97734" lon="4.68808">
        <ele>587</ele>
        <time>2018-01-31T09:58:11+01:00</time>
      </trkpt>
      <trkpt lat="44.97728" lon="4.68809">
        <ele>588</ele>
        <time>2018-01-31T09:58:19+01:00</time>
      </trkpt>
      <trkpt lat="44.97718" lon="4.68812">
        <ele>589</ele>
        <time>2018-01-31T09:58:28+01:00</time>
      </trkpt>
      <trkpt lat="44.97712" lon="4.68813">
        <ele>590</ele>
        <time>2018-01-31T09:58:35+01:00</time>
      </trkpt>
      <trkpt lat="44.97709" lon="4.68812">
        <ele>591</ele>
        <time>2018-01-31T09:58:39+01:00</time>
      </trkpt>
      <trkpt lat="44.97707" lon="4.68812">
        <ele>591</ele>
        <time>2018-01-31T09:58:47+01:00</time>
      </trkpt>
      <trkpt lat="44.97704" lon="4.6881">
        <ele>591</ele>
        <time>2018-01-31T09:58:54+01:00</time>
      </trkpt>
      <trkpt lat="44.97698" lon="4.68809">
        <ele>592</ele>
        <time>2018-01-31T09:59:01+01:00</time>
      </trkpt>
      <trkpt lat="44.97699" lon="4.68808">
        <ele>592</ele>
        <time>2018-01-31T09:59:08+01:00</time>
      </trkpt>
      <trkpt lat="44.97688" lon="4.68805">
        <ele>593</ele>
        <time>2018-01-31T09:59:36+01:00</time>
      </trkpt>
      <trkpt lat="44.97685" lon="4.68805">
        <ele>594</ele>
        <time>2018-01-31T09:59:39+01:00</time>
      </trkpt>
      <trkpt lat="44.9768" lon="4.68801">
        <ele>594</ele>
        <time>2018-01-31T09:59:46+01:00</time>
      </trkpt>
      <trkpt lat="44.97675" lon="4.68802">
        <ele>595</ele>
        <time>2018-01-31T09:59:53+01:00</time>
      </trkpt>
      <trkpt lat="44.97669" lon="4.68802">
        <ele>596</ele>
        <time>2018-01-31T10:00:00+01:00</time>
      </trkpt>
      <trkpt lat="44.97665" lon="4.68802">
        <ele>596</ele>
        <time>2018-01-31T10:00:07+01:00</time>
      </trkpt>
      <trkpt lat="44.97657" lon="4.68804">
        <ele>598</ele>
        <time>2018-01-31T10:00:16+01:00</time>
      </trkpt>
      <trkpt lat="44.97648" lon="4.68806">
        <ele>601</ele>
        <time>2018-01-31T10:00:24+01:00</time>
      </trkpt>
      <trkpt lat="44.97645" lon="4.68806">
        <ele>602</ele>
        <time>2018-01-31T10:00:27+01:00</time>
      </trkpt>
      <trkpt lat="44.97637" lon="4.68806">
        <ele>604</ele>
        <time>2018-01-31T10:00:34+01:00</time>
      </trkpt>
      <trkpt lat="44.9763" lon="4.68808">
        <ele>606</ele>
        <time>2018-01-31T10:00:42+01:00</time>
      </trkpt>
      <trkpt lat="44.97623" lon="4.6881">
        <ele>608</ele>
        <time>2018-01-31T10:00:49+01:00</time>
      </trkpt>
      <trkpt lat="44.97619" lon="4.68809">
        <ele>609</ele>
        <time>2018-01-31T10:00:55+01:00</time>
      </trkpt>
      <trkpt lat="44.97615" lon="4.68805">
        <ele>609</ele>
        <time>2018-01-31T10:01:03+01:00</time>
      </trkpt>
      <trkpt lat="44.97607" lon="4.68801">
        <ele>610</ele>
        <time>2018-01-31T10:01:11+01:00</time>
      </trkpt>
      <trkpt lat="44.97601" lon="4.68799">
        <ele>610</ele>
        <time>2018-01-31T10:01:17+01:00</time>
      </trkpt>
      <trkpt lat="44.97596" lon="4.68798">
        <ele>611</ele>
        <time>2018-01-31T10:01:24+01:00</time>
      </trkpt>
      <trkpt lat="44.97591" lon="4.68796">
        <ele>612</ele>
        <time>2018-01-31T10:01:32+01:00</time>
      </trkpt>
      <trkpt lat="44.97583" lon="4.68794">
        <ele>613</ele>
        <time>2018-01-31T10:01:41+01:00</time>
      </trkpt>
      <trkpt lat="44.97575" lon="4.68793">
        <ele>614</ele>
        <time>2018-01-31T10:01:49+01:00</time>
      </trkpt>
      <trkpt lat="44.97569" lon="4.68791">
        <ele>615</ele>
        <time>2018-01-31T10:01:55+01:00</time>
      </trkpt>
      <trkpt lat="44.97564" lon="4.68788">
        <ele>615</ele>
        <time>2018-01-31T10:02:01+01:00</time>
      </trkpt>
      <trkpt lat="44.97558" lon="4.68787">
        <ele>616</ele>
        <time>2018-01-31T10:02:08+01:00</time>
      </trkpt>
      <trkpt lat="44.97549" lon="4.68785">
        <ele>618</ele>
        <time>2018-01-31T10:02:16+01:00</time>
      </trkpt>
      <trkpt lat="44.97543" lon="4.68784">
        <ele>619</ele>
        <time>2018-01-31T10:02:23+01:00</time>
      </trkpt>
      <trkpt lat="44.97537" lon="4.68784">
        <ele>620</ele>
        <time>2018-01-31T10:02:31+01:00</time>
      </trkpt>
      <trkpt lat="44.97529" lon="4.6878">
        <ele>621</ele>
        <time>2018-01-31T10:02:41+01:00</time>
      </trkpt>
      <trkpt lat="44.97521" lon="4.68777">
        <ele>622</ele>
        <time>2018-01-31T10:02:49+01:00</time>
      </trkpt>
      <trkpt lat="44.97514" lon="4.68775">
        <ele>623</ele>
        <time>2018-01-31T10:02:57+01:00</time>
      </trkpt>
      <trkpt lat="44.97505" lon="4.68775">
        <ele>625</ele>
        <time>2018-01-31T10:03:06+01:00</time>
      </trkpt>
      <trkpt lat="44.97499" lon="4.68777">
        <ele>627</ele>
        <time>2018-01-31T10:03:13+01:00</time>
      </trkpt>
      <trkpt lat="44.97492" lon="4.68778">
        <ele>628</ele>
        <time>2018-01-31T10:03:19+01:00</time>
      </trkpt>
      <trkpt lat="44.97486" lon="4.68777">
        <ele>628</ele>
        <time>2018-01-31T10:03:26+01:00</time>
      </trkpt>
      <trkpt lat="44.97478" lon="4.68777">
        <ele>629</ele>
        <time>2018-01-31T10:03:33+01:00</time>
      </trkpt>
      <trkpt lat="44.97469" lon="4.68776">
        <ele>630</ele>
        <time>2018-01-31T10:03:42+01:00</time>
      </trkpt>
      <trkpt lat="44.97465" lon="4.68779">
        <ele>632</ele>
        <time>2018-01-31T10:03:48+01:00</time>
      </trkpt>
      <trkpt lat="44.97459" lon="4.68779">
        <ele>632</ele>
        <time>2018-01-31T10:03:55+01:00</time>
      </trkpt>
      <trkpt lat="44.97454" lon="4.68779">
        <ele>633</ele>
        <time>2018-01-31T10:04:03+01:00</time>
      </trkpt>
      <trkpt lat="44.97451" lon="4.68779">
        <ele>633</ele>
        <time>2018-01-31T10:04:06+01:00</time>
      </trkpt>
      <trkpt lat="44.97445" lon="4.68777">
        <ele>633</ele>
        <time>2018-01-31T10:04:12+01:00</time>
      </trkpt>
      <trkpt lat="44.97437" lon="4.68777">
        <ele>634</ele>
        <time>2018-01-31T10:04:19+01:00</time>
      </trkpt>
      <trkpt lat="44.97432" lon="4.68776">
        <ele>635</ele>
        <time>2018-01-31T10:04:25+01:00</time>
      </trkpt>
      <trkpt lat="44.97426" lon="4.68777">
        <ele>636</ele>
        <time>2018-01-31T10:04:31+01:00</time>
      </trkpt>
      <trkpt lat="44.97419" lon="4.68777">
        <ele>637</ele>
        <time>2018-01-31T10:04:39+01:00</time>
      </trkpt>
      <trkpt lat="44.97413" lon="4.68778">
        <ele>638</ele>
        <time>2018-01-31T10:04:46+01:00</time>
      </trkpt>
      <trkpt lat="44.97405" lon="4.6878">
        <ele>639</ele>
        <time>2018-01-31T10:04:54+01:00</time>
      </trkpt>
      <trkpt lat="44.97399" lon="4.68783">
        <ele>641</ele>
        <time>2018-01-31T10:05:01+01:00</time>
      </trkpt>
      <trkpt lat="44.97392" lon="4.68784">
        <ele>642</ele>
        <time>2018-01-31T10:05:09+01:00</time>
      </trkpt>
      <trkpt lat="44.97386" lon="4.68785">
        <ele>642</ele>
        <time>2018-01-31T10:05:16+01:00</time>
      </trkpt>
      <trkpt lat="44.97378" lon="4.68785">
        <ele>643</ele>
        <time>2018-01-31T10:05:24+01:00</time>
      </trkpt>
      <trkpt lat="44.97371" lon="4.68787">
        <ele>645</ele>
        <time>2018-01-31T10:05:32+01:00</time>
      </trkpt>
      <trkpt lat="44.97363" lon="4.68785">
        <ele>645</ele>
        <time>2018-01-31T10:05:40+01:00</time>
      </trkpt>
      <trkpt lat="44.97355" lon="4.68786">
        <ele>646</ele>
        <time>2018-01-31T10:05:47+01:00</time>
      </trkpt>
      <trkpt lat="44.97348" lon="4.6879">
        <ele>648</ele>
        <time>2018-01-31T10:05:54+01:00</time>
      </trkpt>
      <trkpt lat="44.97342" lon="4.68793">
        <ele>649</ele>
        <time>2018-01-31T10:06:01+01:00</time>
      </trkpt>
      <trkpt lat="44.97335" lon="4.68794">
        <ele>650</ele>
        <time>2018-01-31T10:06:08+01:00</time>
      </trkpt>
      <trkpt lat="44.97328" lon="4.68792">
        <ele>650</ele>
        <time>2018-01-31T10:06:16+01:00</time>
      </trkpt>
      <trkpt lat="44.97319" lon="4.68795">
        <ele>650</ele>
        <time>2018-01-31T10:06:24+01:00</time>
      </trkpt>
      <trkpt lat="44.97312" lon="4.68794">
        <ele>650</ele>
        <time>2018-01-31T10:06:31+01:00</time>
      </trkpt>
      <trkpt lat="44.97305" lon="4.68794">
        <ele>650</ele>
        <time>2018-01-31T10:06:38+01:00</time>
      </trkpt>
      <trkpt lat="44.973" lon="4.68794">
        <ele>650</ele>
        <time>2018-01-31T10:06:45+01:00</time>
      </trkpt>
      <trkpt lat="44.97297" lon="4.68793">
        <ele>650</ele>
        <time>2018-01-31T10:06:48+01:00</time>
      </trkpt>
      <trkpt lat="44.97289" lon="4.68794">
        <ele>650</ele>
        <time>2018-01-31T10:06:56+01:00</time>
      </trkpt>
      <trkpt lat="44.97283" lon="4.68796">
        <ele>651</ele>
        <time>2018-01-31T10:07:02+01:00</time>
      </trkpt>
      <trkpt lat="44.97278" lon="4.68798">
        <ele>651</ele>
        <time>2018-01-31T10:07:08+01:00</time>
      </trkpt>
      <trkpt lat="44.97269" lon="4.688">
        <ele>652</ele>
        <time>2018-01-31T10:07:18+01:00</time>
      </trkpt>
      <trkpt lat="44.97264" lon="4.68799">
        <ele>652</ele>
        <time>2018-01-31T10:07:25+01:00</time>
      </trkpt>
      <trkpt lat="44.97257" lon="4.68798">
        <ele>651</ele>
        <time>2018-01-31T10:07:34+01:00</time>
      </trkpt>
      <trkpt lat="44.9725" lon="4.68802">
        <ele>652</ele>
        <time>2018-01-31T10:07:42+01:00</time>
      </trkpt>
      <trkpt lat="44.97245" lon="4.68806">
        <ele>652</ele>
        <time>2018-01-31T10:07:46+01:00</time>
      </trkpt>
      <trkpt lat="44.97235" lon="4.6881">
        <ele>652</ele>
        <time>2018-01-31T10:07:55+01:00</time>
      </trkpt>
      <trkpt lat="44.97233" lon="4.68814">
        <ele>653</ele>
        <time>2018-01-31T10:08:02+01:00</time>
      </trkpt>
      <trkpt lat="44.97234" lon="4.68832">
        <ele>657</ele>
        <time>2018-01-31T10:09:07+01:00</time>
      </trkpt>
      <trkpt lat="44.97241" lon="4.68839">
        <ele>659</ele>
        <time>2018-01-31T10:09:16+01:00</time>
      </trkpt>
      <trkpt lat="44.97242" lon="4.68841">
        <ele>659</ele>
        <time>2018-01-31T10:09:20+01:00</time>
      </trkpt>
      <trkpt lat="44.9725" lon="4.68845">
        <ele>660</ele>
        <time>2018-01-31T10:09:28+01:00</time>
      </trkpt>
      <trkpt lat="44.97259" lon="4.68847">
        <ele>661</ele>
        <time>2018-01-31T10:09:36+01:00</time>
      </trkpt>
      <trkpt lat="44.97268" lon="4.68848">
        <ele>661</ele>
        <time>2018-01-31T10:09:44+01:00</time>
      </trkpt>
      <trkpt lat="44.97276" lon="4.6885">
        <ele>661</ele>
        <time>2018-01-31T10:09:51+01:00</time>
      </trkpt>
      <trkpt lat="44.97283" lon="4.68853">
        <ele>662</ele>
        <time>2018-01-31T10:09:57+01:00</time>
      </trkpt>
      <trkpt lat="44.97294" lon="4.68855">
        <ele>663</ele>
        <time>2018-01-31T10:10:05+01:00</time>
      </trkpt>
      <trkpt lat="44.97302" lon="4.68859">
        <ele>663</ele>
        <time>2018-01-31T10:10:13+01:00</time>
      </trkpt>
      <trkpt lat="44.97308" lon="4.68863">
        <ele>664</ele>
        <time>2018-01-31T10:10:20+01:00</time>
      </trkpt>
      <trkpt lat="44.97316" lon="4.68867">
        <ele>665</ele>
        <time>2018-01-31T10:10:27+01:00</time>
      </trkpt>
      <trkpt lat="44.97323" lon="4.68871">
        <ele>666</ele>
        <time>2018-01-31T10:10:34+01:00</time>
      </trkpt>
      <trkpt lat="44.9733" lon="4.68874">
        <ele>667</ele>
        <time>2018-01-31T10:10:42+01:00</time>
      </trkpt>
      <trkpt lat="44.9734" lon="4.68879">
        <ele>668</ele>
        <time>2018-01-31T10:10:49+01:00</time>
      </trkpt>
      <trkpt lat="44.97345" lon="4.68883">
        <ele>668</ele>
        <time>2018-01-31T10:10:54+01:00</time>
      </trkpt>
      <trkpt lat="44.97354" lon="4.68886">
        <ele>669</ele>
        <time>2018-01-31T10:11:02+01:00</time>
      </trkpt>
      <trkpt lat="44.97358" lon="4.68888">
        <ele>669</ele>
        <time>2018-01-31T10:11:11+01:00</time>
      </trkpt>
      <trkpt lat="44.97366" lon="4.68891">
        <ele>669</ele>
        <time>2018-01-31T10:11:18+01:00</time>
      </trkpt>
      <trkpt lat="44.97367" lon="4.68891">
        <ele>669</ele>
        <time>2018-01-31T10:11:19+01:00</time>
      </trkpt>
      <trkpt lat="44.97375" lon="4.68893">
        <ele>669</ele>
        <time>2018-01-31T10:11:26+01:00</time>
      </trkpt>
      <trkpt lat="44.97382" lon="4.68895">
        <ele>669</ele>
        <time>2018-01-31T10:11:31+01:00</time>
      </trkpt>
      <trkpt lat="44.97389" lon="4.68898">
        <ele>670</ele>
        <time>2018-01-31T10:11:37+01:00</time>
      </trkpt>
      <trkpt lat="44.97391" lon="4.689">
        <ele>670</ele>
        <time>2018-01-31T10:11:39+01:00</time>
      </trkpt>
      <trkpt lat="44.97395" lon="4.68906">
        <ele>671</ele>
        <time>2018-01-31T10:11:47+01:00</time>
      </trkpt>
      <trkpt lat="44.97394" lon="4.68912">
        <ele>673</ele>
        <time>2018-01-31T10:11:52+01:00</time>
      </trkpt>
      <trkpt lat="44.97389" lon="4.68913">
        <ele>673</ele>
        <time>2018-01-31T10:11:57+01:00</time>
      </trkpt>
      <trkpt lat="44.97382" lon="4.68914">
        <ele>673</ele>
        <time>2018-01-31T10:12:02+01:00</time>
      </trkpt>
      <trkpt lat="44.97372" lon="4.68914">
        <ele>673</ele>
        <time>2018-01-31T10:12:11+01:00</time>
      </trkpt>
      <trkpt lat="44.97363" lon="4.68917">
        <ele>674</ele>
        <time>2018-01-31T10:12:18+01:00</time>
      </trkpt>
      <trkpt lat="44.97356" lon="4.68922">
        <ele>675</ele>
        <time>2018-01-31T10:12:26+01:00</time>
      </trkpt>
      <trkpt lat="44.97353" lon="4.68924">
        <ele>676</ele>
        <time>2018-01-31T10:12:29+01:00</time>
      </trkpt>
      <trkpt lat="44.97347" lon="4.68929">
        <ele>677</ele>
        <time>2018-01-31T10:12:36+01:00</time>
      </trkpt>
      <trkpt lat="44.9734" lon="4.68935">
        <ele>678</ele>
        <time>2018-01-31T10:12:43+01:00</time>
      </trkpt>
      <trkpt lat="44.97336" lon="4.68939">
        <ele>679</ele>
        <time>2018-01-31T10:12:49+01:00</time>
      </trkpt>
      <trkpt lat="44.9733" lon="4.68944">
        <ele>679</ele>
        <time>2018-01-31T10:12:55+01:00</time>
      </trkpt>
      <trkpt lat="44.97324" lon="4.68949">
        <ele>679</ele>
        <time>2018-01-31T10:13:02+01:00</time>
      </trkpt>
      <trkpt lat="44.97318" lon="4.68957">
        <ele>680</ele>
        <time>2018-01-31T10:13:10+01:00</time>
      </trkpt>
      <trkpt lat="44.97314" lon="4.68962">
        <ele>680</ele>
        <time>2018-01-31T10:13:16+01:00</time>
      </trkpt>
      <trkpt lat="44.97312" lon="4.68964">
        <ele>681</ele>
        <time>2018-01-31T10:13:18+01:00</time>
      </trkpt>
      <trkpt lat="44.97306" lon="4.68971">
        <ele>681</ele>
        <time>2018-01-31T10:13:25+01:00</time>
      </trkpt>
      <trkpt lat="44.97299" lon="4.68982">
        <ele>682</ele>
        <time>2018-01-31T10:13:34+01:00</time>
      </trkpt>
      <trkpt lat="44.97295" lon="4.68987">
        <ele>682</ele>
        <time>2018-01-31T10:13:39+01:00</time>
      </trkpt>
      <trkpt lat="44.97269" lon="4.69012">
        <ele>683</ele>
        <time>2018-01-31T10:14:45+01:00</time>
      </trkpt>
      <trkpt lat="44.97263" lon="4.69021">
        <ele>684</ele>
        <time>2018-01-31T10:14:53+01:00</time>
      </trkpt>
      <trkpt lat="44.97256" lon="4.69026">
        <ele>685</ele>
        <time>2018-01-31T10:15:00+01:00</time>
      </trkpt>
      <trkpt lat="44.97252" lon="4.6903">
        <ele>685</ele>
        <time>2018-01-31T10:15:08+01:00</time>
      </trkpt>
      <trkpt lat="44.97246" lon="4.69034">
        <ele>686</ele>
        <time>2018-01-31T10:15:17+01:00</time>
      </trkpt>
      <trkpt lat="44.97236" lon="4.69037">
        <ele>687</ele>
        <time>2018-01-31T10:15:27+01:00</time>
      </trkpt>
      <trkpt lat="44.97223" lon="4.69033">
        <ele>686</ele>
        <time>2018-01-31T10:15:39+01:00</time>
      </trkpt>
      <trkpt lat="44.97209" lon="4.69028">
        <ele>686</ele>
        <time>2018-01-31T10:15:51+01:00</time>
      </trkpt>
      <trkpt lat="44.97199" lon="4.69022">
        <ele>685</ele>
        <time>2018-01-31T10:16:00+01:00</time>
      </trkpt>
      <trkpt lat="44.97192" lon="4.69015">
        <ele>684</ele>
        <time>2018-01-31T10:16:08+01:00</time>
      </trkpt>
      <trkpt lat="44.97185" lon="4.69006">
        <ele>683</ele>
        <time>2018-01-31T10:16:16+01:00</time>
      </trkpt>
      <trkpt lat="44.97179" lon="4.68999">
        <ele>682</ele>
        <time>2018-01-31T10:16:23+01:00</time>
      </trkpt>
      <trkpt lat="44.97178" lon="4.68997">
        <ele>682</ele>
        <time>2018-01-31T10:16:25+01:00</time>
      </trkpt>
      <trkpt lat="44.97173" lon="4.68993">
        <ele>682</ele>
        <time>2018-01-31T10:16:30+01:00</time>
      </trkpt>
      <trkpt lat="44.97163" lon="4.6899">
        <ele>682</ele>
        <time>2018-01-31T10:16:39+01:00</time>
      </trkpt>
      <trkpt lat="44.97153" lon="4.6899">
        <ele>682</ele>
        <time>2018-01-31T10:16:48+01:00</time>
      </trkpt>
      <trkpt lat="44.97148" lon="4.68987">
        <ele>682</ele>
        <time>2018-01-31T10:16:53+01:00</time>
      </trkpt>
      <trkpt lat="44.97144" lon="4.68987">
        <ele>683</ele>
        <time>2018-01-31T10:16:56+01:00</time>
      </trkpt>
      <trkpt lat="44.97136" lon="4.68985">
        <ele>683</ele>
        <time>2018-01-31T10:17:05+01:00</time>
      </trkpt>
      <trkpt lat="44.97134" lon="4.68984">
        <ele>683</ele>
        <time>2018-01-31T10:17:07+01:00</time>
      </trkpt>
      <trkpt lat="44.97123" lon="4.68981">
        <ele>683</ele>
        <time>2018-01-31T10:17:17+01:00</time>
      </trkpt>
      <trkpt lat="44.97113" lon="4.6898">
        <ele>684</ele>
        <time>2018-01-31T10:17:25+01:00</time>
      </trkpt>
      <trkpt lat="44.97105" lon="4.68981">
        <ele>685</ele>
        <time>2018-01-31T10:17:33+01:00</time>
      </trkpt>
      <trkpt lat="44.97104" lon="4.68982">
        <ele>685</ele>
        <time>2018-01-31T10:17:34+01:00</time>
      </trkpt>
      <trkpt lat="44.97098" lon="4.68991">
        <ele>687</ele>
        <time>2018-01-31T10:17:42+01:00</time>
      </trkpt>
      <trkpt lat="44.97091" lon="4.69001">
        <ele>689</ele>
        <time>2018-01-31T10:17:52+01:00</time>
      </trkpt>
      <trkpt lat="44.97084" lon="4.6901">
        <ele>691</ele>
        <time>2018-01-31T10:18:00+01:00</time>
      </trkpt>
      <trkpt lat="44.97078" lon="4.6902">
        <ele>691</ele>
        <time>2018-01-31T10:18:09+01:00</time>
      </trkpt>
      <trkpt lat="44.97072" lon="4.6903">
        <ele>692</ele>
        <time>2018-01-31T10:18:18+01:00</time>
      </trkpt>
      <trkpt lat="44.97064" lon="4.69042">
        <ele>693</ele>
        <time>2018-01-31T10:18:28+01:00</time>
      </trkpt>
      <trkpt lat="44.97044" lon="4.69074">
        <ele>695</ele>
        <time>2018-01-31T10:18:54+01:00</time>
      </trkpt>
      <trkpt lat="44.97036" lon="4.69088">
        <ele>696</ele>
        <time>2018-01-31T10:19:05+01:00</time>
      </trkpt>
      <trkpt lat="44.97032" lon="4.69098">
        <ele>696</ele>
        <time>2018-01-31T10:19:14+01:00</time>
      </trkpt>
      <trkpt lat="44.97029" lon="4.69115">
        <ele>697</ele>
        <time>2018-01-31T10:19:24+01:00</time>
      </trkpt>
      <trkpt lat="44.97029" lon="4.69131">
        <ele>698</ele>
        <time>2018-01-31T10:19:34+01:00</time>
      </trkpt>
      <trkpt lat="44.9703" lon="4.69138">
        <ele>698</ele>
        <time>2018-01-31T10:19:39+01:00</time>
      </trkpt>
      <trkpt lat="44.97031" lon="4.69154">
        <ele>699</ele>
        <time>2018-01-31T10:19:49+01:00</time>
      </trkpt>
      <trkpt lat="44.97032" lon="4.69166">
        <ele>700</ele>
        <time>2018-01-31T10:19:57+01:00</time>
      </trkpt>
      <trkpt lat="44.97031" lon="4.69177">
        <ele>700</ele>
        <time>2018-01-31T10:20:05+01:00</time>
      </trkpt>
      <trkpt lat="44.97031" lon="4.69193">
        <ele>701</ele>
        <time>2018-01-31T10:20:15+01:00</time>
      </trkpt>
      <trkpt lat="44.97028" lon="4.69201">
        <ele>701</ele>
        <time>2018-01-31T10:20:22+01:00</time>
      </trkpt>
      <trkpt lat="44.97028" lon="4.69201">
        <ele>701</ele>
        <time>2018-01-31T10:20:23+01:00</time>
      </trkpt>
      <trkpt lat="44.97026" lon="4.69207">
        <ele>701</ele>
        <time>2018-01-31T10:20:27+01:00</time>
      </trkpt>
      <trkpt lat="44.97023" lon="4.69212">
        <ele>701</ele>
        <time>2018-01-31T10:20:36+01:00</time>
      </trkpt>
      <trkpt lat="44.97021" lon="4.69217">
        <ele>702</ele>
        <time>2018-01-31T10:20:45+01:00</time>
      </trkpt>
      <trkpt lat="44.97016" lon="4.69229">
        <ele>702</ele>
        <time>2018-01-31T10:20:53+01:00</time>
      </trkpt>
      <trkpt lat="44.97011" lon="4.69242">
        <ele>702</ele>
        <time>2018-01-31T10:21:01+01:00</time>
      </trkpt>
      <trkpt lat="44.97008" lon="4.69253">
        <ele>703</ele>
        <time>2018-01-31T10:21:08+01:00</time>
      </trkpt>
      <trkpt lat="44.97003" lon="4.69265">
        <ele>703</ele>
        <time>2018-01-31T10:21:16+01:00</time>
      </trkpt>
      <trkpt lat="44.96999" lon="4.6927">
        <ele>703</ele>
        <time>2018-01-31T10:21:20+01:00</time>
      </trkpt>
      <trkpt lat="44.9699" lon="4.69276">
        <ele>704</ele>
        <time>2018-01-31T10:21:28+01:00</time>
      </trkpt>
      <trkpt lat="44.96981" lon="4.69279">
        <ele>704</ele>
        <time>2018-01-31T10:21:36+01:00</time>
      </trkpt>
      <trkpt lat="44.96972" lon="4.69281">
        <ele>705</ele>
        <time>2018-01-31T10:21:44+01:00</time>
      </trkpt>
      <trkpt lat="44.96964" lon="4.69282">
        <ele>706</ele>
        <time>2018-01-31T10:21:51+01:00</time>
      </trkpt>
      <trkpt lat="44.96961" lon="4.69282">
        <ele>706</ele>
        <time>2018-01-31T10:21:54+01:00</time>
      </trkpt>
      <trkpt lat="44.96952" lon="4.69285">
        <ele>707</ele>
        <time>2018-01-31T10:22:03+01:00</time>
      </trkpt>
      <trkpt lat="44.96945" lon="4.69286">
        <ele>708</ele>
        <time>2018-01-31T10:22:10+01:00</time>
      </trkpt>
      <trkpt lat="44.96941" lon="4.69287">
        <ele>708</ele>
        <time>2018-01-31T10:22:13+01:00</time>
      </trkpt>
      <trkpt lat="44.9693" lon="4.69289">
        <ele>709</ele>
        <time>2018-01-31T10:22:23+01:00</time>
      </trkpt>
      <trkpt lat="44.96922" lon="4.69292">
        <ele>710</ele>
        <time>2018-01-31T10:22:30+01:00</time>
      </trkpt>
      <trkpt lat="44.9691" lon="4.69297">
        <ele>712</ele>
        <time>2018-01-31T10:23:31+01:00</time>
      </trkpt>
      <trkpt lat="44.96904" lon="4.69298">
        <ele>712</ele>
        <time>2018-01-31T10:23:39+01:00</time>
      </trkpt>
      <trkpt lat="44.96899" lon="4.69295">
        <ele>713</ele>
        <time>2018-01-31T10:23:46+01:00</time>
      </trkpt>
      <trkpt lat="44.96889" lon="4.69286">
        <ele>714</ele>
        <time>2018-01-31T10:23:57+01:00</time>
      </trkpt>
      <trkpt lat="44.96883" lon="4.69283">
        <ele>714</ele>
        <time>2018-01-31T10:24:02+01:00</time>
      </trkpt>
      <trkpt lat="44.9687" lon="4.69275">
        <ele>715</ele>
        <time>2018-01-31T10:24:12+01:00</time>
      </trkpt>
      <trkpt lat="44.96868" lon="4.69274">
        <ele>716</ele>
        <time>2018-01-31T10:24:13+01:00</time>
      </trkpt>
      <trkpt lat="44.96856" lon="4.69268">
        <ele>716</ele>
        <time>2018-01-31T10:24:22+01:00</time>
      </trkpt>
      <trkpt lat="44.96847" lon="4.69265">
        <ele>717</ele>
        <time>2018-01-31T10:24:30+01:00</time>
      </trkpt>
      <trkpt lat="44.96837" lon="4.69263">
        <ele>718</ele>
        <time>2018-01-31T10:24:39+01:00</time>
      </trkpt>
      <trkpt lat="44.96829" lon="4.69263">
        <ele>719</ele>
        <time>2018-01-31T10:24:47+01:00</time>
      </trkpt>
      <trkpt lat="44.96823" lon="4.69261">
        <ele>719</ele>
        <time>2018-01-31T10:24:52+01:00</time>
      </trkpt>
      <trkpt lat="44.96819" lon="4.69262">
        <ele>720</ele>
        <time>2018-01-31T10:24:56+01:00</time>
      </trkpt>
      <trkpt lat="44.96812" lon="4.69265">
        <ele>721</ele>
        <time>2018-01-31T10:25:05+01:00</time>
      </trkpt>
      <trkpt lat="44.96805" lon="4.69267">
        <ele>722</ele>
        <time>2018-01-31T10:25:13+01:00</time>
      </trkpt>
      <trkpt lat="44.96796" lon="4.69268">
        <ele>723</ele>
        <time>2018-01-31T10:25:21+01:00</time>
      </trkpt>
      <trkpt lat="44.96794" lon="4.69268">
        <ele>723</ele>
        <time>2018-01-31T10:25:22+01:00</time>
      </trkpt>
      <trkpt lat="44.96783" lon="4.69263">
        <ele>723</ele>
        <time>2018-01-31T10:25:30+01:00</time>
      </trkpt>
      <trkpt lat="44.96776" lon="4.69263">
        <ele>724</ele>
        <time>2018-01-31T10:25:37+01:00</time>
      </trkpt>
      <trkpt lat="44.96771" lon="4.69263">
        <ele>724</ele>
        <time>2018-01-31T10:25:43+01:00</time>
      </trkpt>
      <trkpt lat="44.96764" lon="4.6926">
        <ele>725</ele>
        <time>2018-01-31T10:25:49+01:00</time>
      </trkpt>
      <trkpt lat="44.96756" lon="4.69261">
        <ele>726</ele>
        <time>2018-01-31T10:25:55+01:00</time>
      </trkpt>
      <trkpt lat="44.96745" lon="4.6926">
        <ele>726</ele>
        <time>2018-01-31T10:26:03+01:00</time>
      </trkpt>
      <trkpt lat="44.96731" lon="4.69265">
        <ele>726</ele>
        <time>2018-01-31T10:26:19+01:00</time>
      </trkpt>
      <trkpt lat="44.96722" lon="4.69256">
        <ele>724</ele>
        <time>2018-01-31T10:28:34+01:00</time>
      </trkpt>
      <trkpt lat="44.96716" lon="4.69247">
        <ele>724</ele>
        <time>2018-01-31T10:28:43+01:00</time>
      </trkpt>
      <trkpt lat="44.96711" lon="4.69236">
        <ele>725</ele>
        <time>2018-01-31T10:28:52+01:00</time>
      </trkpt>
      <trkpt lat="44.96706" lon="4.69227">
        <ele>726</ele>
        <time>2018-01-31T10:28:59+01:00</time>
      </trkpt>
      <trkpt lat="44.96702" lon="4.69219">
        <ele>727</ele>
        <time>2018-01-31T10:29:07+01:00</time>
      </trkpt>
      <trkpt lat="44.96698" lon="4.69216">
        <ele>727</ele>
        <time>2018-01-31T10:29:14+01:00</time>
      </trkpt>
      <trkpt lat="44.96691" lon="4.69212">
        <ele>727</ele>
        <time>2018-01-31T10:29:21+01:00</time>
      </trkpt>
      <trkpt lat="44.96681" lon="4.69207">
        <ele>728</ele>
        <time>2018-01-31T10:29:31+01:00</time>
      </trkpt>
      <trkpt lat="44.9667" lon="4.69207">
        <ele>728</ele>
        <time>2018-01-31T10:29:41+01:00</time>
      </trkpt>
      <trkpt lat="44.96667" lon="4.69208">
        <ele>728</ele>
        <time>2018-01-31T10:29:43+01:00</time>
      </trkpt>
      <trkpt lat="44.96662" lon="4.69209">
        <ele>728</ele>
        <time>2018-01-31T10:29:53+01:00</time>
      </trkpt>
      <trkpt lat="44.96656" lon="4.69211">
        <ele>728</ele>
        <time>2018-01-31T10:30:01+01:00</time>
      </trkpt>
      <trkpt lat="44.96652" lon="4.6921">
        <ele>729</ele>
        <time>2018-01-31T10:30:07+01:00</time>
      </trkpt>
      <trkpt lat="44.96649" lon="4.692">
        <ele>731</ele>
        <time>2018-01-31T10:30:15+01:00</time>
      </trkpt>
      <trkpt lat="44.96649" lon="4.69189">
        <ele>732</ele>
        <time>2018-01-31T10:30:24+01:00</time>
      </trkpt>
      <trkpt lat="44.96649" lon="4.69178">
        <ele>734</ele>
        <time>2018-01-31T10:30:31+01:00</time>
      </trkpt>
      <trkpt lat="44.96648" lon="4.69168">
        <ele>736</ele>
        <time>2018-01-31T10:30:38+01:00</time>
      </trkpt>
      <trkpt lat="44.96642" lon="4.69156">
        <ele>737</ele>
        <time>2018-01-31T10:30:47+01:00</time>
      </trkpt>
      <trkpt lat="44.96641" lon="4.69147">
        <ele>737</ele>
        <time>2018-01-31T10:30:54+01:00</time>
      </trkpt>
      <trkpt lat="44.96637" lon="4.6914">
        <ele>738</ele>
        <time>2018-01-31T10:31:02+01:00</time>
      </trkpt>
      <trkpt lat="44.96634" lon="4.69131">
        <ele>739</ele>
        <time>2018-01-31T10:31:10+01:00</time>
      </trkpt>
      <trkpt lat="44.96631" lon="4.69125">
        <ele>740</ele>
        <time>2018-01-31T10:31:17+01:00</time>
      </trkpt>
      <trkpt lat="44.96625" lon="4.69119">
        <ele>741</ele>
        <time>2018-01-31T10:31:25+01:00</time>
      </trkpt>
      <trkpt lat="44.9662" lon="4.69114">
        <ele>742</ele>
        <time>2018-01-31T10:31:33+01:00</time>
      </trkpt>
      <trkpt lat="44.96612" lon="4.69108">
        <ele>744</ele>
        <time>2018-01-31T10:31:42+01:00</time>
      </trkpt>
      <trkpt lat="44.96604" lon="4.69103">
        <ele>746</ele>
        <time>2018-01-31T10:31:49+01:00</time>
      </trkpt>
      <trkpt lat="44.96596" lon="4.69105">
        <ele>747</ele>
        <time>2018-01-31T10:31:58+01:00</time>
      </trkpt>
      <trkpt lat="44.96587" lon="4.69105">
        <ele>749</ele>
        <time>2018-01-31T10:32:07+01:00</time>
      </trkpt>
      <trkpt lat="44.96582" lon="4.69107">
        <ele>750</ele>
        <time>2018-01-31T10:32:12+01:00</time>
      </trkpt>
      <trkpt lat="44.96575" lon="4.69107">
        <ele>751</ele>
        <time>2018-01-31T10:32:20+01:00</time>
      </trkpt>
      <trkpt lat="44.96568" lon="4.69109">
        <ele>753</ele>
        <time>2018-01-31T10:32:29+01:00</time>
      </trkpt>
      <trkpt lat="44.96563" lon="4.69109">
        <ele>754</ele>
        <time>2018-01-31T10:32:36+01:00</time>
      </trkpt>
      <trkpt lat="44.96546" lon="4.69111">
        <ele>757</ele>
        <time>2018-01-31T10:33:19+01:00</time>
      </trkpt>
      <trkpt lat="44.96534" lon="4.69111">
        <ele>760</ele>
        <time>2018-01-31T10:34:25+01:00</time>
      </trkpt>
      <trkpt lat="44.96523" lon="4.69114">
        <ele>762</ele>
        <time>2018-01-31T10:34:34+01:00</time>
      </trkpt>
      <trkpt lat="44.96516" lon="4.69117">
        <ele>763</ele>
        <time>2018-01-31T10:34:43+01:00</time>
      </trkpt>
      <trkpt lat="44.96511" lon="4.69119">
        <ele>764</ele>
        <time>2018-01-31T10:34:51+01:00</time>
      </trkpt>
      <trkpt lat="44.96504" lon="4.69121">
        <ele>765</ele>
        <time>2018-01-31T10:34:59+01:00</time>
      </trkpt>
      <trkpt lat="44.96498" lon="4.69123">
        <ele>766</ele>
        <time>2018-01-31T10:35:07+01:00</time>
      </trkpt>
      <trkpt lat="44.96492" lon="4.69127">
        <ele>766</ele>
        <time>2018-01-31T10:35:14+01:00</time>
      </trkpt>
      <trkpt lat="44.96485" lon="4.6913">
        <ele>767</ele>
        <time>2018-01-31T10:35:22+01:00</time>
      </trkpt>
      <trkpt lat="44.96477" lon="4.69136">
        <ele>767</ele>
        <time>2018-01-31T10:35:30+01:00</time>
      </trkpt>
      <trkpt lat="44.96468" lon="4.69142">
        <ele>768</ele>
        <time>2018-01-31T10:35:39+01:00</time>
      </trkpt>
      <trkpt lat="44.96463" lon="4.69146">
        <ele>768</ele>
        <time>2018-01-31T10:35:46+01:00</time>
      </trkpt>
      <trkpt lat="44.96457" lon="4.6915">
        <ele>768</ele>
        <time>2018-01-31T10:35:54+01:00</time>
      </trkpt>
      <trkpt lat="44.96451" lon="4.69152">
        <ele>769</ele>
        <time>2018-01-31T10:36:01+01:00</time>
      </trkpt>
      <trkpt lat="44.96448" lon="4.69155">
        <ele>769</ele>
        <time>2018-01-31T10:36:07+01:00</time>
      </trkpt>
      <trkpt lat="44.96443" lon="4.69156">
        <ele>769</ele>
        <time>2018-01-31T10:36:14+01:00</time>
      </trkpt>
      <trkpt lat="44.96436" lon="4.69159">
        <ele>770</ele>
        <time>2018-01-31T10:36:23+01:00</time>
      </trkpt>
      <trkpt lat="44.96426" lon="4.69163">
        <ele>771</ele>
        <time>2018-01-31T10:36:32+01:00</time>
      </trkpt>
      <trkpt lat="44.96415" lon="4.69166">
        <ele>772</ele>
        <time>2018-01-31T10:36:40+01:00</time>
      </trkpt>
      <trkpt lat="44.96406" lon="4.6917">
        <ele>773</ele>
        <time>2018-01-31T10:36:50+01:00</time>
      </trkpt>
      <trkpt lat="44.96403" lon="4.69171">
        <ele>773</ele>
        <time>2018-01-31T10:36:52+01:00</time>
      </trkpt>
      <trkpt lat="44.96399" lon="4.69173">
        <ele>774</ele>
        <time>2018-01-31T10:36:56+01:00</time>
      </trkpt>
      <trkpt lat="44.96393" lon="4.69173">
        <ele>774</ele>
        <time>2018-01-31T10:37:02+01:00</time>
      </trkpt>
      <trkpt lat="44.96384" lon="4.69174">
        <ele>776</ele>
        <time>2018-01-31T10:37:09+01:00</time>
      </trkpt>
      <trkpt lat="44.96377" lon="4.69175">
        <ele>776</ele>
        <time>2018-01-31T10:37:16+01:00</time>
      </trkpt>
      <trkpt lat="44.96369" lon="4.69176">
        <ele>777</ele>
        <time>2018-01-31T10:37:24+01:00</time>
      </trkpt>
      <trkpt lat="44.96363" lon="4.69177">
        <ele>778</ele>
        <time>2018-01-31T10:37:31+01:00</time>
      </trkpt>
      <trkpt lat="44.96358" lon="4.69178">
        <ele>778</ele>
        <time>2018-01-31T10:37:38+01:00</time>
      </trkpt>
      <trkpt lat="44.96351" lon="4.69182">
        <ele>779</ele>
        <time>2018-01-31T10:37:46+01:00</time>
      </trkpt>
      <trkpt lat="44.96343" lon="4.69183">
        <ele>780</ele>
        <time>2018-01-31T10:37:56+01:00</time>
      </trkpt>
      <trkpt lat="44.96335" lon="4.69186">
        <ele>780</ele>
        <time>2018-01-31T10:38:03+01:00</time>
      </trkpt>
      <trkpt lat="44.96328" lon="4.69188">
        <ele>780</ele>
        <time>2018-01-31T10:38:10+01:00</time>
      </trkpt>
      <trkpt lat="44.96318" lon="4.6919">
        <ele>780</ele>
        <time>2018-01-31T10:38:18+01:00</time>
      </trkpt>
      <trkpt lat="44.9631" lon="4.69191">
        <ele>780</ele>
        <time>2018-01-31T10:38:26+01:00</time>
      </trkpt>
      <trkpt lat="44.96301" lon="4.69195">
        <ele>780</ele>
        <time>2018-01-31T10:38:36+01:00</time>
      </trkpt>
      <trkpt lat="44.96289" lon="4.692">
        <ele>780</ele>
        <time>2018-01-31T10:38:45+01:00</time>
      </trkpt>
      <trkpt lat="44.96277" lon="4.69203">
        <ele>779</ele>
        <time>2018-01-31T10:38:54+01:00</time>
      </trkpt>
      <trkpt lat="44.9627" lon="4.69203">
        <ele>779</ele>
        <time>2018-01-31T10:39:02+01:00</time>
      </trkpt>
      <trkpt lat="44.96269" lon="4.69208">
        <ele>779</ele>
        <time>2018-01-31T10:39:15+01:00</time>
      </trkpt>
      <trkpt lat="44.96264" lon="4.69209">
        <ele>779</ele>
        <time>2018-01-31T10:39:24+01:00</time>
      </trkpt>
      <trkpt lat="44.96256" lon="4.69207">
        <ele>779</ele>
        <time>2018-01-31T10:39:33+01:00</time>
      </trkpt>
      <trkpt lat="44.96243" lon="4.69205">
        <ele>779</ele>
        <time>2018-01-31T10:40:16+01:00</time>
      </trkpt>
      <trkpt lat="44.96237" lon="4.69203">
        <ele>778</ele>
        <time>2018-01-31T10:40:23+01:00</time>
      </trkpt>
      <trkpt lat="44.9623" lon="4.69203">
        <ele>778</ele>
        <time>2018-01-31T10:40:31+01:00</time>
      </trkpt>
      <trkpt lat="44.96221" lon="4.69204">
        <ele>776</ele>
        <time>2018-01-31T10:40:41+01:00</time>
      </trkpt>
      <trkpt lat="44.96217" lon="4.69204">
        <ele>776</ele>
        <time>2018-01-31T10:40:48+01:00</time>
      </trkpt>
      <trkpt lat="44.96209" lon="4.692">
        <ele>776</ele>
        <time>2018-01-31T10:40:58+01:00</time>
      </trkpt>
      <trkpt lat="44.96207" lon="4.69202">
        <ele>775</ele>
        <time>2018-01-31T10:41:05+01:00</time>
      </trkpt>
      <trkpt lat="44.96204" lon="4.69202">
        <ele>775</ele>
        <time>2018-01-31T10:41:22+01:00</time>
      </trkpt>
      <trkpt lat="44.96195" lon="4.69199">
        <ele>774</ele>
        <time>2018-01-31T10:41:32+01:00</time>
      </trkpt>
      <trkpt lat="44.96187" lon="4.69196">
        <ele>774</ele>
        <time>2018-01-31T10:41:41+01:00</time>
      </trkpt>
      <trkpt lat="44.96181" lon="4.69194">
        <ele>774</ele>
        <time>2018-01-31T10:41:49+01:00</time>
      </trkpt>
      <trkpt lat="44.96172" lon="4.69192">
        <ele>773</ele>
        <time>2018-01-31T10:41:55+01:00</time>
      </trkpt>
      <trkpt lat="44.96166" lon="4.69191">
        <ele>773</ele>
        <time>2018-01-31T10:42:02+01:00</time>
      </trkpt>
      <trkpt lat="44.96157" lon="4.69183">
        <ele>774</ele>
        <time>2018-01-31T10:42:11+01:00</time>
      </trkpt>
      <trkpt lat="44.96149" lon="4.69183">
        <ele>774</ele>
        <time>2018-01-31T10:42:18+01:00</time>
      </trkpt>
      <trkpt lat="44.96144" lon="4.69181">
        <ele>774</ele>
        <time>2018-01-31T10:42:26+01:00</time>
      </trkpt>
      <trkpt lat="44.96138" lon="4.69181">
        <ele>774</ele>
        <time>2018-01-31T10:42:33+01:00</time>
      </trkpt>
      <trkpt lat="44.96132" lon="4.69173">
        <ele>776</ele>
        <time>2018-01-31T10:42:40+01:00</time>
      </trkpt>
      <trkpt lat="44.96127" lon="4.69166">
        <ele>777</ele>
        <time>2018-01-31T10:42:47+01:00</time>
      </trkpt>
      <trkpt lat="44.9612" lon="4.69162">
        <ele>777</ele>
        <time>2018-01-31T10:42:55+01:00</time>
      </trkpt>
      <trkpt lat="44.96117" lon="4.69159">
        <ele>777</ele>
        <time>2018-01-31T10:43:01+01:00</time>
      </trkpt>
      <trkpt lat="44.96114" lon="4.69155">
        <ele>778</ele>
        <time>2018-01-31T10:43:09+01:00</time>
      </trkpt>
      <trkpt lat="44.96111" lon="4.69144">
        <ele>779</ele>
        <time>2018-01-31T10:43:17+01:00</time>
      </trkpt>
      <trkpt lat="44.961" lon="4.69131">
        <ele>780</ele>
        <time>2018-01-31T10:43:26+01:00</time>
      </trkpt>
      <trkpt lat="44.96095" lon="4.69127">
        <ele>780</ele>
        <time>2018-01-31T10:43:33+01:00</time>
      </trkpt>
      <trkpt lat="44.96086" lon="4.69123">
        <ele>780</ele>
        <time>2018-01-31T10:43:41+01:00</time>
      </trkpt>
      <trkpt lat="44.96079" lon="4.69116">
        <ele>781</ele>
        <time>2018-01-31T10:43:48+01:00</time>
      </trkpt>
      <trkpt lat="44.96073" lon="4.69109">
        <ele>781</ele>
        <time>2018-01-31T10:43:55+01:00</time>
      </trkpt>
      <trkpt lat="44.96067" lon="4.69105">
        <ele>781</ele>
        <time>2018-01-31T10:44:03+01:00</time>
      </trkpt>
      <trkpt lat="44.96063" lon="4.69101">
        <ele>782</ele>
        <time>2018-01-31T10:44:10+01:00</time>
      </trkpt>
      <trkpt lat="44.96052" lon="4.69092">
        <ele>782</ele>
        <time>2018-01-31T10:44:17+01:00</time>
      </trkpt>
      <trkpt lat="44.96043" lon="4.69088">
        <ele>782</ele>
        <time>2018-01-31T10:44:25+01:00</time>
      </trkpt>
      <trkpt lat="44.96039" lon="4.69088">
        <ele>782</ele>
        <time>2018-01-31T10:44:29+01:00</time>
      </trkpt>
      <trkpt lat="44.96031" lon="4.6909">
        <ele>781</ele>
        <time>2018-01-31T10:44:37+01:00</time>
      </trkpt>
      <trkpt lat="44.96027" lon="4.69091">
        <ele>781</ele>
        <time>2018-01-31T10:44:43+01:00</time>
      </trkpt>
      <trkpt lat="44.96022" lon="4.69093">
        <ele>781</ele>
        <time>2018-01-31T10:44:50+01:00</time>
      </trkpt>
      <trkpt lat="44.96018" lon="4.69095">
        <ele>781</ele>
        <time>2018-01-31T10:44:58+01:00</time>
      </trkpt>
      <trkpt lat="44.96011" lon="4.69099">
        <ele>781</ele>
        <time>2018-01-31T10:45:06+01:00</time>
      </trkpt>
      <trkpt lat="44.96007" lon="4.69102">
        <ele>781</ele>
        <time>2018-01-31T10:45:13+01:00</time>
      </trkpt>
      <trkpt lat="44.96002" lon="4.69109">
        <ele>781</ele>
        <time>2018-01-31T10:45:20+01:00</time>
      </trkpt>
      <trkpt lat="44.95998" lon="4.69116">
        <ele>781</ele>
        <time>2018-01-31T10:45:26+01:00</time>
      </trkpt>
      <trkpt lat="44.95993" lon="4.69123">
        <ele>781</ele>
        <time>2018-01-31T10:45:34+01:00</time>
      </trkpt>
      <trkpt lat="44.95989" lon="4.69127">
        <ele>781</ele>
        <time>2018-01-31T10:45:40+01:00</time>
      </trkpt>
      <trkpt lat="44.95986" lon="4.69132">
        <ele>782</ele>
        <time>2018-01-31T10:45:46+01:00</time>
      </trkpt>
      <trkpt lat="44.95974" lon="4.69139">
        <ele>782</ele>
        <time>2018-01-31T10:47:37+01:00</time>
      </trkpt>
      <trkpt lat="44.9597" lon="4.69141">
        <ele>782</ele>
        <time>2018-01-31T10:47:43+01:00</time>
      </trkpt>
      <trkpt lat="44.95965" lon="4.69144">
        <ele>782</ele>
        <time>2018-01-31T10:47:52+01:00</time>
      </trkpt>
      <trkpt lat="44.95958" lon="4.69152">
        <ele>782</ele>
        <time>2018-01-31T10:48:01+01:00</time>
      </trkpt>
      <trkpt lat="44.95949" lon="4.69157">
        <ele>782</ele>
        <time>2018-01-31T10:48:08+01:00</time>
      </trkpt>
      <trkpt lat="44.95944" lon="4.69158">
        <ele>782</ele>
        <time>2018-01-31T10:48:14+01:00</time>
      </trkpt>
      <trkpt lat="44.95941" lon="4.69161">
        <ele>782</ele>
        <time>2018-01-31T10:48:21+01:00</time>
      </trkpt>
      <trkpt lat="44.95937" lon="4.69163">
        <ele>782</ele>
        <time>2018-01-31T10:48:29+01:00</time>
      </trkpt>
      <trkpt lat="44.95934" lon="4.69163">
        <ele>782</ele>
        <time>2018-01-31T10:48:34+01:00</time>
      </trkpt>
      <trkpt lat="44.95926" lon="4.69168">
        <ele>782</ele>
        <time>2018-01-31T10:48:41+01:00</time>
      </trkpt>
      <trkpt lat="44.9592" lon="4.69168">
        <ele>782</ele>
        <time>2018-01-31T10:48:48+01:00</time>
      </trkpt>
      <trkpt lat="44.95915" lon="4.69169">
        <ele>782</ele>
        <time>2018-01-31T10:48:56+01:00</time>
      </trkpt>
      <trkpt lat="44.95907" lon="4.69169">
        <ele>782</ele>
        <time>2018-01-31T10:49:05+01:00</time>
      </trkpt>
      <trkpt lat="44.95897" lon="4.69168">
        <ele>782</ele>
        <time>2018-01-31T10:49:16+01:00</time>
      </trkpt>
      <trkpt lat="44.95888" lon="4.69167">
        <ele>782</ele>
        <time>2018-01-31T10:49:24+01:00</time>
      </trkpt>
      <trkpt lat="44.95876" lon="4.69164">
        <ele>782</ele>
        <time>2018-01-31T10:49:32+01:00</time>
      </trkpt>
      <trkpt lat="44.95868" lon="4.69162">
        <ele>782</ele>
        <time>2018-01-31T10:49:38+01:00</time>
      </trkpt>
      <trkpt lat="44.95861" lon="4.69162">
        <ele>782</ele>
        <time>2018-01-31T10:49:44+01:00</time>
      </trkpt>
      <trkpt lat="44.95856" lon="4.69163">
        <ele>781</ele>
        <time>2018-01-31T10:49:53+01:00</time>
      </trkpt>
      <trkpt lat="44.95851" lon="4.69166">
        <ele>781</ele>
        <time>2018-01-31T10:50:00+01:00</time>
      </trkpt>
      <trkpt lat="44.95838" lon="4.6917">
        <ele>781</ele>
        <time>2018-01-31T10:50:10+01:00</time>
      </trkpt>
      <trkpt lat="44.95825" lon="4.69173">
        <ele>780</ele>
        <time>2018-01-31T10:50:18+01:00</time>
      </trkpt>
      <trkpt lat="44.95814" lon="4.69178">
        <ele>779</ele>
        <time>2018-01-31T10:50:28+01:00</time>
      </trkpt>
      <trkpt lat="44.95808" lon="4.69182">
        <ele>779</ele>
        <time>2018-01-31T10:50:38+01:00</time>
      </trkpt>
      <trkpt lat="44.95799" lon="4.69186">
        <ele>778</ele>
        <time>2018-01-31T10:50:48+01:00</time>
      </trkpt>
      <trkpt lat="44.95791" lon="4.69186">
        <ele>778</ele>
        <time>2018-01-31T10:50:55+01:00</time>
      </trkpt>
      <trkpt lat="44.95782" lon="4.69188">
        <ele>777</ele>
        <time>2018-01-31T10:51:03+01:00</time>
      </trkpt>
      <trkpt lat="44.95779" lon="4.69186">
        <ele>777</ele>
        <time>2018-01-31T10:51:11+01:00</time>
      </trkpt>
      <trkpt lat="44.95772" lon="4.69187">
        <ele>777</ele>
        <time>2018-01-31T10:51:20+01:00</time>
      </trkpt>
      <trkpt lat="44.95763" lon="4.69192">
        <ele>776</ele>
        <time>2018-01-31T10:51:27+01:00</time>
      </trkpt>
      <trkpt lat="44.95755" lon="4.69197">
        <ele>776</ele>
        <time>2018-01-31T10:51:34+01:00</time>
      </trkpt>
      <trkpt lat="44.95748" lon="4.69203">
        <ele>775</ele>
        <time>2018-01-31T10:51:42+01:00</time>
      </trkpt>
      <trkpt lat="44.95742" lon="4.69208">
        <ele>775</ele>
        <time>2018-01-31T10:51:49+01:00</time>
      </trkpt>
      <trkpt lat="44.95735" lon="4.69213">
        <ele>774</ele>
        <time>2018-01-31T10:51:56+01:00</time>
      </trkpt>
      <trkpt lat="44.95726" lon="4.69217">
        <ele>774</ele>
        <time>2018-01-31T10:52:04+01:00</time>
      </trkpt>
      <trkpt lat="44.95718" lon="4.6922">
        <ele>774</ele>
        <time>2018-01-31T10:52:11+01:00</time>
      </trkpt>
      <trkpt lat="44.9571" lon="4.69222">
        <ele>773</ele>
        <time>2018-01-31T10:52:20+01:00</time>
      </trkpt>
      <trkpt lat="44.95699" lon="4.69222">
        <ele>772</ele>
        <time>2018-01-31T10:52:28+01:00</time>
      </trkpt>
      <trkpt lat="44.95692" lon="4.69221">
        <ele>772</ele>
        <time>2018-01-31T10:52:36+01:00</time>
      </trkpt>
      <trkpt lat="44.95681" lon="4.69222">
        <ele>771</ele>
        <time>2018-01-31T10:52:46+01:00</time>
      </trkpt>
      <trkpt lat="44.95671" lon="4.69225">
        <ele>771</ele>
        <time>2018-01-31T10:52:54+01:00</time>
      </trkpt>
      <trkpt lat="44.95662" lon="4.69231">
        <ele>771</ele>
        <time>2018-01-31T10:53:02+01:00</time>
      </trkpt>
      <trkpt lat="44.95641" lon="4.6924">
        <ele>770</ele>
        <time>2018-01-31T10:53:09+01:00</time>
      </trkpt>
      <trkpt lat="44.95651" lon="4.69226">
        <ele>770</ele>
        <time>2018-01-31T10:57:06+01:00</time>
      </trkpt>
      <trkpt lat="44.95657" lon="4.69221">
        <ele>770</ele>
        <time>2018-01-31T10:57:14+01:00</time>
      </trkpt>
      <trkpt lat="44.95666" lon="4.69216">
        <ele>770</ele>
        <time>2018-01-31T10:57:23+01:00</time>
      </trkpt>
      <trkpt lat="44.95675" lon="4.69214">
        <ele>771</ele>
        <time>2018-01-31T10:57:32+01:00</time>
      </trkpt>
      <trkpt lat="44.95686" lon="4.69208">
        <ele>771</ele>
        <time>2018-01-31T10:57:41+01:00</time>
      </trkpt>
      <trkpt lat="44.95699" lon="4.6921">
        <ele>772</ele>
        <time>2018-01-31T10:57:50+01:00</time>
      </trkpt>
      <trkpt lat="44.95707" lon="4.69206">
        <ele>773</ele>
        <time>2018-01-31T10:57:58+01:00</time>
      </trkpt>
      <trkpt lat="44.95718" lon="4.69198">
        <ele>773</ele>
        <time>2018-01-31T10:58:07+01:00</time>
      </trkpt>
      <trkpt lat="44.9573" lon="4.69191">
        <ele>774</ele>
        <time>2018-01-31T10:58:18+01:00</time>
      </trkpt>
      <trkpt lat="44.95738" lon="4.69183">
        <ele>775</ele>
        <time>2018-01-31T10:58:27+01:00</time>
      </trkpt>
      <trkpt lat="44.95749" lon="4.69171">
        <ele>776</ele>
        <time>2018-01-31T10:58:37+01:00</time>
      </trkpt>
      <trkpt lat="44.95758" lon="4.69164">
        <ele>776</ele>
        <time>2018-01-31T10:58:45+01:00</time>
      </trkpt>
      <trkpt lat="44.95765" lon="4.69154">
        <ele>777</ele>
        <time>2018-01-31T10:58:55+01:00</time>
      </trkpt>
      <trkpt lat="44.95771" lon="4.69143">
        <ele>778</ele>
        <time>2018-01-31T10:59:04+01:00</time>
      </trkpt>
      <trkpt lat="44.95778" lon="4.69131">
        <ele>778</ele>
        <time>2018-01-31T10:59:13+01:00</time>
      </trkpt>
      <trkpt lat="44.95786" lon="4.69118">
        <ele>779</ele>
        <time>2018-01-31T10:59:23+01:00</time>
      </trkpt>
      <trkpt lat="44.95793" lon="4.69107">
        <ele>780</ele>
        <time>2018-01-31T10:59:33+01:00</time>
      </trkpt>
      <trkpt lat="44.95801" lon="4.69098">
        <ele>782</ele>
        <time>2018-01-31T10:59:42+01:00</time>
      </trkpt>
      <trkpt lat="44.95811" lon="4.69084">
        <ele>783</ele>
        <time>2018-01-31T10:59:53+01:00</time>
      </trkpt>
      <trkpt lat="44.95815" lon="4.69074">
        <ele>783</ele>
        <time>2018-01-31T11:00:02+01:00</time>
      </trkpt>
      <trkpt lat="44.9582" lon="4.6906">
        <ele>783</ele>
        <time>2018-01-31T11:00:10+01:00</time>
      </trkpt>
      <trkpt lat="44.95824" lon="4.69044">
        <ele>783</ele>
        <time>2018-01-31T11:00:20+01:00</time>
      </trkpt>
      <trkpt lat="44.95825" lon="4.69035">
        <ele>782</ele>
        <time>2018-01-31T11:00:28+01:00</time>
      </trkpt>
      <trkpt lat="44.9583" lon="4.69019">
        <ele>782</ele>
        <time>2018-01-31T11:00:38+01:00</time>
      </trkpt>
      <trkpt lat="44.95832" lon="4.69004">
        <ele>782</ele>
        <time>2018-01-31T11:00:47+01:00</time>
      </trkpt>
      <trkpt lat="44.95836" lon="4.68992">
        <ele>782</ele>
        <time>2018-01-31T11:00:57+01:00</time>
      </trkpt>
      <trkpt lat="44.95841" lon="4.68981">
        <ele>781</ele>
        <time>2018-01-31T11:01:05+01:00</time>
      </trkpt>
      <trkpt lat="44.9585" lon="4.68966">
        <ele>781</ele>
        <time>2018-01-31T11:01:15+01:00</time>
      </trkpt>
      <trkpt lat="44.95855" lon="4.68959">
        <ele>781</ele>
        <time>2018-01-31T11:01:23+01:00</time>
      </trkpt>
      <trkpt lat="44.95865" lon="4.68949">
        <ele>782</ele>
        <time>2018-01-31T11:01:32+01:00</time>
      </trkpt>
      <trkpt lat="44.95876" lon="4.68936">
        <ele>782</ele>
        <time>2018-01-31T11:01:41+01:00</time>
      </trkpt>
      <trkpt lat="44.95881" lon="4.68927">
        <ele>782</ele>
        <time>2018-01-31T11:01:50+01:00</time>
      </trkpt>
      <trkpt lat="44.95892" lon="4.68914">
        <ele>783</ele>
        <time>2018-01-31T11:01:59+01:00</time>
      </trkpt>
      <trkpt lat="44.959" lon="4.68902">
        <ele>783</ele>
        <time>2018-01-31T11:02:10+01:00</time>
      </trkpt>
      <trkpt lat="44.95907" lon="4.68893">
        <ele>784</ele>
        <time>2018-01-31T11:02:18+01:00</time>
      </trkpt>
      <trkpt lat="44.95912" lon="4.68879">
        <ele>784</ele>
        <time>2018-01-31T11:02:29+01:00</time>
      </trkpt>
      <trkpt lat="44.95919" lon="4.68867">
        <ele>784</ele>
        <time>2018-01-31T11:02:37+01:00</time>
      </trkpt>
      <trkpt lat="44.95926" lon="4.68855">
        <ele>783</ele>
        <time>2018-01-31T11:02:46+01:00</time>
      </trkpt>
      <trkpt lat="44.9593" lon="4.68848">
        <ele>783</ele>
        <time>2018-01-31T11:02:54+01:00</time>
      </trkpt>
      <trkpt lat="44.95936" lon="4.68841">
        <ele>783</ele>
        <time>2018-01-31T11:03:04+01:00</time>
      </trkpt>
      <trkpt lat="44.95945" lon="4.68832">
        <ele>783</ele>
        <time>2018-01-31T11:03:11+01:00</time>
      </trkpt>
      <trkpt lat="44.95954" lon="4.68822">
        <ele>783</ele>
        <time>2018-01-31T11:03:21+01:00</time>
      </trkpt>
      <trkpt lat="44.95961" lon="4.68813">
        <ele>783</ele>
        <time>2018-01-31T11:03:29+01:00</time>
      </trkpt>
      <trkpt lat="44.95969" lon="4.68798">
        <ele>783</ele>
        <time>2018-01-31T11:03:39+01:00</time>
      </trkpt>
      <trkpt lat="44.95978" lon="4.68787">
        <ele>783</ele>
        <time>2018-01-31T11:03:48+01:00</time>
      </trkpt>
      <trkpt lat="44.95984" lon="4.68776">
        <ele>783</ele>
        <time>2018-01-31T11:03:56+01:00</time>
      </trkpt>
      <trkpt lat="44.95991" lon="4.68765">
        <ele>782</ele>
        <time>2018-01-31T11:04:06+01:00</time>
      </trkpt>
      <trkpt lat="44.95995" lon="4.68752">
        <ele>782</ele>
        <time>2018-01-31T11:04:15+01:00</time>
      </trkpt>
      <trkpt lat="44.96001" lon="4.68738">
        <ele>781</ele>
        <time>2018-01-31T11:04:24+01:00</time>
      </trkpt>
      <trkpt lat="44.96004" lon="4.68735">
        <ele>781</ele>
        <time>2018-01-31T11:04:33+01:00</time>
      </trkpt>
      <trkpt lat="44.96011" lon="4.68738">
        <ele>781</ele>
        <time>2018-01-31T11:04:43+01:00</time>
      </trkpt>
      <trkpt lat="44.96013" lon="4.68735">
        <ele>781</ele>
        <time>2018-01-31T11:04:51+01:00</time>
      </trkpt>
      <trkpt lat="44.96023" lon="4.68714">
        <ele>780</ele>
        <time>2018-01-31T11:05:06+01:00</time>
      </trkpt>
      <trkpt lat="44.96027" lon="4.68711">
        <ele>780</ele>
        <time>2018-01-31T11:05:09+01:00</time>
      </trkpt>
      <trkpt lat="44.9603" lon="4.68697">
        <ele>779</ele>
        <time>2018-01-31T11:05:17+01:00</time>
      </trkpt>
      <trkpt lat="44.96034" lon="4.68674">
        <ele>777</ele>
        <time>2018-01-31T11:05:33+01:00</time>
      </trkpt>
      <trkpt lat="44.96038" lon="4.68666">
        <ele>777</ele>
        <time>2018-01-31T11:05:39+01:00</time>
      </trkpt>
      <trkpt lat="44.96042" lon="4.68654">
        <ele>776</ele>
        <time>2018-01-31T11:05:47+01:00</time>
      </trkpt>
      <trkpt lat="44.96045" lon="4.68641">
        <ele>775</ele>
        <time>2018-01-31T11:05:55+01:00</time>
      </trkpt>
      <trkpt lat="44.96049" lon="4.68631">
        <ele>774</ele>
        <time>2018-01-31T11:06:04+01:00</time>
      </trkpt>
      <trkpt lat="44.9605" lon="4.6862">
        <ele>773</ele>
        <time>2018-01-31T11:06:12+01:00</time>
      </trkpt>
      <trkpt lat="44.96052" lon="4.68604">
        <ele>772</ele>
        <time>2018-01-31T11:06:23+01:00</time>
      </trkpt>
      <trkpt lat="44.96054" lon="4.68594">
        <ele>771</ele>
        <time>2018-01-31T11:06:30+01:00</time>
      </trkpt>
      <trkpt lat="44.96059" lon="4.68577">
        <ele>769</ele>
        <time>2018-01-31T11:06:40+01:00</time>
      </trkpt>
      <trkpt lat="44.96062" lon="4.68565">
        <ele>768</ele>
        <time>2018-01-31T11:06:47+01:00</time>
      </trkpt>
      <trkpt lat="44.96065" lon="4.68551">
        <ele>766</ele>
        <time>2018-01-31T11:06:56+01:00</time>
      </trkpt>
      <trkpt lat="44.96065" lon="4.6854">
        <ele>766</ele>
        <time>2018-01-31T11:07:04+01:00</time>
      </trkpt>
      <trkpt lat="44.96067" lon="4.68529">
        <ele>764</ele>
        <time>2018-01-31T11:07:11+01:00</time>
      </trkpt>
      <trkpt lat="44.96066" lon="4.68513">
        <ele>763</ele>
        <time>2018-01-31T11:07:20+01:00</time>
      </trkpt>
      <trkpt lat="44.96065" lon="4.68497">
        <ele>762</ele>
        <time>2018-01-31T11:07:29+01:00</time>
      </trkpt>
      <trkpt lat="44.96068" lon="4.6849">
        <ele>762</ele>
        <time>2018-01-31T11:07:35+01:00</time>
      </trkpt>
      <trkpt lat="44.96075" lon="4.68474">
        <ele>761</ele>
        <time>2018-01-31T11:07:45+01:00</time>
      </trkpt>
      <trkpt lat="44.96076" lon="4.68454">
        <ele>762</ele>
        <time>2018-01-31T11:07:56+01:00</time>
      </trkpt>
      <trkpt lat="44.9608" lon="4.68432">
        <ele>762</ele>
        <time>2018-01-31T11:08:08+01:00</time>
      </trkpt>
      <trkpt lat="44.96081" lon="4.68418">
        <ele>762</ele>
        <time>2018-01-31T11:08:17+01:00</time>
      </trkpt>
      <trkpt lat="44.96083" lon="4.68404">
        <ele>762</ele>
        <time>2018-01-31T11:08:25+01:00</time>
      </trkpt>
      <trkpt lat="44.96085" lon="4.68399">
        <ele>762</ele>
        <time>2018-01-31T11:08:28+01:00</time>
      </trkpt>
      <trkpt lat="44.96087" lon="4.68382">
        <ele>762</ele>
        <time>2018-01-31T11:08:38+01:00</time>
      </trkpt>
      <trkpt lat="44.96086" lon="4.68372">
        <ele>761</ele>
        <time>2018-01-31T11:08:57+01:00</time>
      </trkpt>
      <trkpt lat="44.96081" lon="4.68367">
        <ele>762</ele>
        <time>2018-01-31T11:09:02+01:00</time>
      </trkpt>
      <trkpt lat="44.96073" lon="4.68364">
        <ele>762</ele>
        <time>2018-01-31T11:09:11+01:00</time>
      </trkpt>
      <trkpt lat="44.96066" lon="4.68363">
        <ele>762</ele>
        <time>2018-01-31T11:09:17+01:00</time>
      </trkpt>
      <trkpt lat="44.96058" lon="4.68361">
        <ele>763</ele>
        <time>2018-01-31T11:09:24+01:00</time>
      </trkpt>
      <trkpt lat="44.96052" lon="4.68358">
        <ele>763</ele>
        <time>2018-01-31T11:09:29+01:00</time>
      </trkpt>
      <trkpt lat="44.96042" lon="4.68352">
        <ele>764</ele>
        <time>2018-01-31T11:09:38+01:00</time>
      </trkpt>
      <trkpt lat="44.96039" lon="4.6835">
        <ele>764</ele>
        <time>2018-01-31T11:09:40+01:00</time>
      </trkpt>
      <trkpt lat="44.96032" lon="4.68345">
        <ele>764</ele>
        <time>2018-01-31T11:09:46+01:00</time>
      </trkpt>
      <trkpt lat="44.9603" lon="4.68343">
        <ele>765</ele>
        <time>2018-01-31T11:09:49+01:00</time>
      </trkpt>
      <trkpt lat="44.96024" lon="4.68342">
        <ele>765</ele>
        <time>2018-01-31T11:09:54+01:00</time>
      </trkpt>
      <trkpt lat="44.96015" lon="4.68335">
        <ele>766</ele>
        <time>2018-01-31T11:10:03+01:00</time>
      </trkpt>
      <trkpt lat="44.96009" lon="4.6833">
        <ele>766</ele>
        <time>2018-01-31T11:10:10+01:00</time>
      </trkpt>
      <trkpt lat="44.96003" lon="4.68324">
        <ele>766</ele>
        <time>2018-01-31T11:10:17+01:00</time>
      </trkpt>
      <trkpt lat="44.95997" lon="4.68317">
        <ele>766</ele>
        <time>2018-01-31T11:10:24+01:00</time>
      </trkpt>
      <trkpt lat="44.95993" lon="4.6831">
        <ele>766</ele>
        <time>2018-01-31T11:10:30+01:00</time>
      </trkpt>
      <trkpt lat="44.95988" lon="4.68303">
        <ele>765</ele>
        <time>2018-01-31T11:10:37+01:00</time>
      </trkpt>
      <trkpt lat="44.95982" lon="4.68291">
        <ele>765</ele>
        <time>2018-01-31T11:10:44+01:00</time>
      </trkpt>
      <trkpt lat="44.9598" lon="4.6828">
        <ele>765</ele>
        <time>2018-01-31T11:10:49+01:00</time>
      </trkpt>
      <trkpt lat="44.95976" lon="4.68269">
        <ele>765</ele>
        <time>2018-01-31T11:10:56+01:00</time>
      </trkpt>
      <trkpt lat="44.95971" lon="4.68258">
        <ele>765</ele>
        <time>2018-01-31T11:11:03+01:00</time>
      </trkpt>
      <trkpt lat="44.95967" lon="4.68249">
        <ele>765</ele>
        <time>2018-01-31T11:11:10+01:00</time>
      </trkpt>
      <trkpt lat="44.95961" lon="4.6824">
        <ele>766</ele>
        <time>2018-01-31T11:11:17+01:00</time>
      </trkpt>
      <trkpt lat="44.95956" lon="4.68229">
        <ele>766</ele>
        <time>2018-01-31T11:11:25+01:00</time>
      </trkpt>
      <trkpt lat="44.95952" lon="4.68217">
        <ele>767</ele>
        <time>2018-01-31T11:11:34+01:00</time>
      </trkpt>
      <trkpt lat="44.95948" lon="4.6821">
        <ele>767</ele>
        <time>2018-01-31T11:11:43+01:00</time>
      </trkpt>
      <trkpt lat="44.95941" lon="4.68199">
        <ele>768</ele>
        <time>2018-01-31T11:11:55+01:00</time>
      </trkpt>
      <trkpt lat="44.95933" lon="4.68184">
        <ele>769</ele>
        <time>2018-01-31T11:12:06+01:00</time>
      </trkpt>
      <trkpt lat="44.95922" lon="4.68161">
        <ele>770</ele>
        <time>2018-01-31T11:12:19+01:00</time>
      </trkpt>
      <trkpt lat="44.95914" lon="4.68145">
        <ele>769</ele>
        <time>2018-01-31T11:12:29+01:00</time>
      </trkpt>
      <trkpt lat="44.95907" lon="4.68128">
        <ele>768</ele>
        <time>2018-01-31T11:12:40+01:00</time>
      </trkpt>
      <trkpt lat="44.95904" lon="4.68114">
        <ele>767</ele>
        <time>2018-01-31T11:12:49+01:00</time>
      </trkpt>
      <trkpt lat="44.95897" lon="4.68107">
        <ele>767</ele>
        <time>2018-01-31T11:12:57+01:00</time>
      </trkpt>
      <trkpt lat="44.95895" lon="4.68098">
        <ele>766</ele>
        <time>2018-01-31T11:13:09+01:00</time>
      </trkpt>
      <trkpt lat="44.95891" lon="4.68086">
        <ele>766</ele>
        <time>2018-01-31T11:13:18+01:00</time>
      </trkpt>
      <trkpt lat="44.95884" lon="4.68075">
        <ele>765</ele>
        <time>2018-01-31T11:13:28+01:00</time>
      </trkpt>
      <trkpt lat="44.95879" lon="4.6806">
        <ele>764</ele>
        <time>2018-01-31T11:13:38+01:00</time>
      </trkpt>
      <trkpt lat="44.95871" lon="4.68046">
        <ele>763</ele>
        <time>2018-01-31T11:13:47+01:00</time>
      </trkpt>
      <trkpt lat="44.95861" lon="4.68035">
        <ele>761</ele>
        <time>2018-01-31T11:13:56+01:00</time>
      </trkpt>
      <trkpt lat="44.9585" lon="4.68027">
        <ele>760</ele>
        <time>2018-01-31T11:14:05+01:00</time>
      </trkpt>
      <trkpt lat="44.95844" lon="4.68017">
        <ele>759</ele>
        <time>2018-01-31T11:14:13+01:00</time>
      </trkpt>
      <trkpt lat="44.95837" lon="4.6801">
        <ele>758</ele>
        <time>2018-01-31T11:14:21+01:00</time>
      </trkpt>
      <trkpt lat="44.95831" lon="4.68004">
        <ele>757</ele>
        <time>2018-01-31T11:14:28+01:00</time>
      </trkpt>
      <trkpt lat="44.95824" lon="4.67997">
        <ele>755</ele>
        <time>2018-01-31T11:14:35+01:00</time>
      </trkpt>
      <trkpt lat="44.95818" lon="4.6799">
        <ele>754</ele>
        <time>2018-01-31T11:14:42+01:00</time>
      </trkpt>
      <trkpt lat="44.9581" lon="4.67984">
        <ele>752</ele>
        <time>2018-01-31T11:14:50+01:00</time>
      </trkpt>
      <trkpt lat="44.95806" lon="4.6798">
        <ele>751</ele>
        <time>2018-01-31T11:14:56+01:00</time>
      </trkpt>
      <trkpt lat="44.95802" lon="4.67967">
        <ele>750</ele>
        <time>2018-01-31T11:15:04+01:00</time>
      </trkpt>
      <trkpt lat="44.95802" lon="4.67964">
        <ele>750</ele>
        <time>2018-01-31T11:15:07+01:00</time>
      </trkpt>
      <trkpt lat="44.95803" lon="4.67956">
        <ele>750</ele>
        <time>2018-01-31T11:15:11+01:00</time>
      </trkpt>
      <trkpt lat="44.95804" lon="4.67941">
        <ele>749</ele>
        <time>2018-01-31T11:15:19+01:00</time>
      </trkpt>
      <trkpt lat="44.95804" lon="4.67923">
        <ele>748</ele>
        <time>2018-01-31T11:15:27+01:00</time>
      </trkpt>
      <trkpt lat="44.95805" lon="4.67918">
        <ele>748</ele>
        <time>2018-01-31T11:15:30+01:00</time>
      </trkpt>
      <trkpt lat="44.95805" lon="4.679">
        <ele>748</ele>
        <time>2018-01-31T11:15:40+01:00</time>
      </trkpt>
      <trkpt lat="44.95805" lon="4.67884">
        <ele>747</ele>
        <time>2018-01-31T11:15:48+01:00</time>
      </trkpt>
      <trkpt lat="44.95804" lon="4.6788">
        <ele>747</ele>
        <time>2018-01-31T11:15:50+01:00</time>
      </trkpt>
      <trkpt lat="44.95805" lon="4.67865">
        <ele>746</ele>
        <time>2018-01-31T11:15:58+01:00</time>
      </trkpt>
      <trkpt lat="44.95803" lon="4.67852">
        <ele>745</ele>
        <time>2018-01-31T11:16:05+01:00</time>
      </trkpt>
      <trkpt lat="44.95803" lon="4.67845">
        <ele>745</ele>
        <time>2018-01-31T11:16:09+01:00</time>
      </trkpt>
      <trkpt lat="44.95798" lon="4.67832">
        <ele>744</ele>
        <time>2018-01-31T11:16:17+01:00</time>
      </trkpt>
      <trkpt lat="44.95792" lon="4.67822">
        <ele>743</ele>
        <time>2018-01-31T11:16:23+01:00</time>
      </trkpt>
      <trkpt lat="44.95787" lon="4.67813">
        <ele>743</ele>
        <time>2018-01-31T11:16:30+01:00</time>
      </trkpt>
      <trkpt lat="44.9578" lon="4.67806">
        <ele>742</ele>
        <time>2018-01-31T11:16:37+01:00</time>
      </trkpt>
      <trkpt lat="44.95774" lon="4.67798">
        <ele>741</ele>
        <time>2018-01-31T11:16:45+01:00</time>
      </trkpt>
      <trkpt lat="44.95769" lon="4.67785">
        <ele>741</ele>
        <time>2018-01-31T11:16:54+01:00</time>
      </trkpt>
      <trkpt lat="44.95768" lon="4.67771">
        <ele>741</ele>
        <time>2018-01-31T11:17:03+01:00</time>
      </trkpt>
      <trkpt lat="44.95765" lon="4.67758">
        <ele>741</ele>
        <time>2018-01-31T11:17:11+01:00</time>
      </trkpt>
      <trkpt lat="44.95761" lon="4.67741">
        <ele>740</ele>
        <time>2018-01-31T11:17:21+01:00</time>
      </trkpt>
      <trkpt lat="44.9576" lon="4.67729">
        <ele>738</ele>
        <time>2018-01-31T11:17:28+01:00</time>
      </trkpt>
      <trkpt lat="44.95761" lon="4.6773">
        <ele>738</ele>
        <time>2018-01-31T11:17:37+01:00</time>
      </trkpt>
      <trkpt lat="44.95758" lon="4.67724">
        <ele>737</ele>
        <time>2018-01-31T11:17:46+01:00</time>
      </trkpt>
      <trkpt lat="44.95753" lon="4.67713">
        <ele>736</ele>
        <time>2018-01-31T11:17:53+01:00</time>
      </trkpt>
      <trkpt lat="44.9575" lon="4.67709">
        <ele>735</ele>
        <time>2018-01-31T11:18:01+01:00</time>
      </trkpt>
      <trkpt lat="44.95744" lon="4.67705">
        <ele>734</ele>
        <time>2018-01-31T11:18:07+01:00</time>
      </trkpt>
      <trkpt lat="44.9574" lon="4.67701">
        <ele>733</ele>
        <time>2018-01-31T11:18:11+01:00</time>
      </trkpt>
      <trkpt lat="44.95728" lon="4.67694">
        <ele>732</ele>
        <time>2018-01-31T11:18:22+01:00</time>
      </trkpt>
      <trkpt lat="44.95717" lon="4.67686">
        <ele>730</ele>
        <time>2018-01-31T11:18:32+01:00</time>
      </trkpt>
      <trkpt lat="44.95708" lon="4.6768">
        <ele>729</ele>
        <time>2018-01-31T11:18:41+01:00</time>
      </trkpt>
      <trkpt lat="44.957" lon="4.67675">
        <ele>728</ele>
        <time>2018-01-31T11:18:50+01:00</time>
      </trkpt>
      <trkpt lat="44.95691" lon="4.67672">
        <ele>728</ele>
        <time>2018-01-31T11:18:58+01:00</time>
      </trkpt>
      <trkpt lat="44.95677" lon="4.67665">
        <ele>726</ele>
        <time>2018-01-31T11:19:10+01:00</time>
      </trkpt>
      <trkpt lat="44.95669" lon="4.67658">
        <ele>725</ele>
        <time>2018-01-31T11:19:18+01:00</time>
      </trkpt>
      <trkpt lat="44.95661" lon="4.67652">
        <ele>724</ele>
        <time>2018-01-31T11:19:26+01:00</time>
      </trkpt>
      <trkpt lat="44.95653" lon="4.67644">
        <ele>722</ele>
        <time>2018-01-31T11:19:34+01:00</time>
      </trkpt>
      <trkpt lat="44.95642" lon="4.67637">
        <ele>721</ele>
        <time>2018-01-31T11:19:43+01:00</time>
      </trkpt>
      <trkpt lat="44.95634" lon="4.67636">
        <ele>720</ele>
        <time>2018-01-31T11:19:49+01:00</time>
      </trkpt>
      <trkpt lat="44.95625" lon="4.67639">
        <ele>719</ele>
        <time>2018-01-31T11:19:57+01:00</time>
      </trkpt>
      <trkpt lat="44.95619" lon="4.67636">
        <ele>719</ele>
      </trkpt>
      <trkpt lat="44.95623" lon="4.67625">
        <ele>718</ele>
        <time>2018-01-31T11:21:23+01:00</time>
      </trkpt>
      <trkpt lat="44.95623" lon="4.67624">
        <ele>718</ele>
        <time>2018-01-31T11:21:24+01:00</time>
      </trkpt>
      <trkpt lat="44.95631" lon="4.67614">
        <ele>717</ele>
        <time>2018-01-31T11:21:34+01:00</time>
      </trkpt>
      <trkpt lat="44.95637" lon="4.67611">
        <ele>718</ele>
        <time>2018-01-31T11:21:40+01:00</time>
      </trkpt>
      <trkpt lat="44.95647" lon="4.67603">
        <ele>718</ele>
        <time>2018-01-31T11:21:49+01:00</time>
      </trkpt>
      <trkpt lat="44.95653" lon="4.67598">
        <ele>718</ele>
        <time>2018-01-31T11:21:56+01:00</time>
      </trkpt>
      <trkpt lat="44.9566" lon="4.67592">
        <ele>718</ele>
        <time>2018-01-31T11:22:05+01:00</time>
      </trkpt>
      <trkpt lat="44.9567" lon="4.67585">
        <ele>718</ele>
        <time>2018-01-31T11:22:14+01:00</time>
      </trkpt>
      <trkpt lat="44.95682" lon="4.67576">
        <ele>717</ele>
        <time>2018-01-31T11:22:23+01:00</time>
      </trkpt>
      <trkpt lat="44.95692" lon="4.6757">
        <ele>717</ele>
        <time>2018-01-31T11:22:31+01:00</time>
      </trkpt>
      <trkpt lat="44.957" lon="4.67564">
        <ele>716</ele>
        <time>2018-01-31T11:22:39+01:00</time>
      </trkpt>
      <trkpt lat="44.95706" lon="4.6756">
        <ele>716</ele>
        <time>2018-01-31T11:22:46+01:00</time>
      </trkpt>
      <trkpt lat="44.95712" lon="4.67555">
        <ele>716</ele>
        <time>2018-01-31T11:22:52+01:00</time>
      </trkpt>
      <trkpt lat="44.95719" lon="4.67547">
        <ele>715</ele>
        <time>2018-01-31T11:23:00+01:00</time>
      </trkpt>
      <trkpt lat="44.95724" lon="4.67541">
        <ele>714</ele>
        <time>2018-01-31T11:23:07+01:00</time>
      </trkpt>
      <trkpt lat="44.95725" lon="4.6754">
        <ele>714</ele>
        <time>2018-01-31T11:23:09+01:00</time>
      </trkpt>
      <trkpt lat="44.95727" lon="4.67538">
        <ele>714</ele>
        <time>2018-01-31T11:23:11+01:00</time>
      </trkpt>
      <trkpt lat="44.95735" lon="4.67531">
        <ele>714</ele>
        <time>2018-01-31T11:23:20+01:00</time>
      </trkpt>
      <trkpt lat="44.95742" lon="4.67528">
        <ele>714</ele>
        <time>2018-01-31T11:23:27+01:00</time>
      </trkpt>
      <trkpt lat="44.9575" lon="4.67526">
        <ele>714</ele>
        <time>2018-01-31T11:23:34+01:00</time>
      </trkpt>
      <trkpt lat="44.95754" lon="4.67525">
        <ele>714</ele>
        <time>2018-01-31T11:23:38+01:00</time>
      </trkpt>
      <trkpt lat="44.9576" lon="4.67523">
        <ele>715</ele>
        <time>2018-01-31T11:23:45+01:00</time>
      </trkpt>
      <trkpt lat="44.95768" lon="4.67517">
        <ele>715</ele>
        <time>2018-01-31T11:23:52+01:00</time>
      </trkpt>
      <trkpt lat="44.95772" lon="4.67512">
        <ele>715</ele>
        <time>2018-01-31T11:23:59+01:00</time>
      </trkpt>
      <trkpt lat="44.95769" lon="4.675">
        <ele>714</ele>
        <time>2018-01-31T11:24:19+01:00</time>
      </trkpt>
      <trkpt lat="44.95777" lon="4.6749">
        <ele>715</ele>
        <time>2018-01-31T11:24:29+01:00</time>
      </trkpt>
      <trkpt lat="44.95781" lon="4.6748">
        <ele>716</ele>
        <time>2018-01-31T11:24:37+01:00</time>
      </trkpt>
      <trkpt lat="44.95782" lon="4.67471">
        <ele>716</ele>
        <time>2018-01-31T11:24:44+01:00</time>
      </trkpt>
      <trkpt lat="44.95782" lon="4.67465">
        <ele>716</ele>
        <time>2018-01-31T11:24:48+01:00</time>
      </trkpt>
      <trkpt lat="44.95784" lon="4.67454">
        <ele>716</ele>
        <time>2018-01-31T11:24:56+01:00</time>
      </trkpt>
      <trkpt lat="44.95793" lon="4.67446">
        <ele>718</ele>
        <time>2018-01-31T11:25:05+01:00</time>
      </trkpt>
      <trkpt lat="44.95795" lon="4.67444">
        <ele>718</ele>
        <time>2018-01-31T11:25:07+01:00</time>
      </trkpt>
      <trkpt lat="44.95801" lon="4.67435">
        <ele>719</ele>
        <time>2018-01-31T11:25:17+01:00</time>
      </trkpt>
      <trkpt lat="44.95802" lon="4.67428">
        <ele>719</ele>
        <time>2018-01-31T11:25:24+01:00</time>
      </trkpt>
      <trkpt lat="44.95805" lon="4.6742">
        <ele>719</ele>
        <time>2018-01-31T11:25:32+01:00</time>
      </trkpt>
      <trkpt lat="44.95807" lon="4.67413">
        <ele>720</ele>
        <time>2018-01-31T11:25:39+01:00</time>
      </trkpt>
      <trkpt lat="44.95807" lon="4.67409">
        <ele>719</ele>
        <time>2018-01-31T11:25:50+01:00</time>
      </trkpt>
      <trkpt lat="44.95811" lon="4.67402">
        <ele>720</ele>
        <time>2018-01-31T11:26:02+01:00</time>
      </trkpt>
      <trkpt lat="44.95817" lon="4.67396">
        <ele>721</ele>
        <time>2018-01-31T11:26:11+01:00</time>
      </trkpt>
      <trkpt lat="44.95818" lon="4.67392">
        <ele>721</ele>
        <time>2018-01-31T11:26:19+01:00</time>
      </trkpt>
      <trkpt lat="44.95823" lon="4.67381">
        <ele>722</ele>
        <time>2018-01-31T11:26:27+01:00</time>
      </trkpt>
      <trkpt lat="44.95829" lon="4.67371">
        <ele>722</ele>
        <time>2018-01-31T11:26:35+01:00</time>
      </trkpt>
      <trkpt lat="44.95833" lon="4.67361">
        <ele>723</ele>
        <time>2018-01-31T11:26:44+01:00</time>
      </trkpt>
      <trkpt lat="44.95838" lon="4.67352">
        <ele>724</ele>
        <time>2018-01-31T11:26:51+01:00</time>
      </trkpt>
      <trkpt lat="44.95843" lon="4.67342">
        <ele>725</ele>
        <time>2018-01-31T11:26:59+01:00</time>
      </trkpt>
      <trkpt lat="44.95849" lon="4.67334">
        <ele>726</ele>
        <time>2018-01-31T11:27:06+01:00</time>
      </trkpt>
      <trkpt lat="44.95852" lon="4.67331">
        <ele>726</ele>
        <time>2018-01-31T11:27:13+01:00</time>
      </trkpt>
      <trkpt lat="44.95854" lon="4.67332">
        <ele>726</ele>
        <time>2018-01-31T11:27:26+01:00</time>
      </trkpt>
      <trkpt lat="44.9586" lon="4.67323">
        <ele>727</ele>
        <time>2018-01-31T11:27:32+01:00</time>
      </trkpt>
      <trkpt lat="44.95863" lon="4.67311">
        <ele>726</ele>
        <time>2018-01-31T11:27:41+01:00</time>
      </trkpt>
      <trkpt lat="44.95866" lon="4.67299">
        <ele>726</ele>
        <time>2018-01-31T11:27:51+01:00</time>
      </trkpt>
      <trkpt lat="44.95865" lon="4.67287">
        <ele>725</ele>
        <time>2018-01-31T11:28:01+01:00</time>
      </trkpt>
      <trkpt lat="44.95865" lon="4.67273">
        <ele>724</ele>
        <time>2018-01-31T11:28:12+01:00</time>
      </trkpt>
      <trkpt lat="44.95867" lon="4.6726">
        <ele>723</ele>
        <time>2018-01-31T11:28:21+01:00</time>
      </trkpt>
      <trkpt lat="44.95871" lon="4.67247">
        <ele>722</ele>
        <time>2018-01-31T11:28:31+01:00</time>
      </trkpt>
      <trkpt lat="44.95876" lon="4.67241">
        <ele>722</ele>
        <time>2018-01-31T11:28:37+01:00</time>
      </trkpt>
      <trkpt lat="44.95882" lon="4.67232">
        <ele>721</ele>
        <time>2018-01-31T11:28:47+01:00</time>
      </trkpt>
      <trkpt lat="44.95884" lon="4.67225">
        <ele>720</ele>
        <time>2018-01-31T11:28:53+01:00</time>
      </trkpt>
      <trkpt lat="44.95888" lon="4.6722">
        <ele>719</ele>
        <time>2018-01-31T11:29:01+01:00</time>
      </trkpt>
      <trkpt lat="44.95892" lon="4.67208">
        <ele>717</ele>
        <time>2018-01-31T11:29:10+01:00</time>
      </trkpt>
      <trkpt lat="44.95897" lon="4.67198">
        <ele>716</ele>
        <time>2018-01-31T11:29:18+01:00</time>
      </trkpt>
      <trkpt lat="44.95905" lon="4.67191">
        <ele>716</ele>
        <time>2018-01-31T11:29:26+01:00</time>
      </trkpt>
      <trkpt lat="44.9591" lon="4.67181">
        <ele>714</ele>
        <time>2018-01-31T11:29:35+01:00</time>
      </trkpt>
      <trkpt lat="44.95913" lon="4.67176">
        <ele>714</ele>
        <time>2018-01-31T11:29:42+01:00</time>
      </trkpt>
      <trkpt lat="44.95913" lon="4.67167">
        <ele>712</ele>
        <time>2018-01-31T11:29:49+01:00</time>
      </trkpt>
      <trkpt lat="44.95915" lon="4.67159">
        <ele>711</ele>
        <time>2018-01-31T11:30:00+01:00</time>
      </trkpt>
      <trkpt lat="44.95918" lon="4.6715">
        <ele>709</ele>
        <time>2018-01-31T11:30:07+01:00</time>
      </trkpt>
      <trkpt lat="44.95922" lon="4.6714">
        <ele>708</ele>
        <time>2018-01-31T11:30:16+01:00</time>
      </trkpt>
      <trkpt lat="44.95926" lon="4.67133">
        <ele>707</ele>
        <time>2018-01-31T11:30:25+01:00</time>
      </trkpt>
      <trkpt lat="44.95927" lon="4.6712">
        <ele>705</ele>
        <time>2018-01-31T11:30:34+01:00</time>
      </trkpt>
      <trkpt lat="44.95928" lon="4.67111">
        <ele>704</ele>
        <time>2018-01-31T11:30:42+01:00</time>
      </trkpt>
      <trkpt lat="44.95928" lon="4.67099">
        <ele>702</ele>
        <time>2018-01-31T11:30:50+01:00</time>
      </trkpt>
      <trkpt lat="44.95928" lon="4.67089">
        <ele>700</ele>
        <time>2018-01-31T11:30:59+01:00</time>
      </trkpt>
      <trkpt lat="44.95923" lon="4.67087">
        <ele>699</ele>
        <time>2018-01-31T11:31:08+01:00</time>
      </trkpt>
      <trkpt lat="44.95922" lon="4.67088">
        <ele>699</ele>
        <time>2018-01-31T11:31:09+01:00</time>
      </trkpt>
      <trkpt lat="44.95918" lon="4.67089">
        <ele>698</ele>
        <time>2018-01-31T11:31:16+01:00</time>
      </trkpt>
      <trkpt lat="44.95923" lon="4.67081">
        <ele>698</ele>
        <time>2018-01-31T11:31:23+01:00</time>
      </trkpt>
      <trkpt lat="44.95928" lon="4.67073">
        <ele>699</ele>
        <time>2018-01-31T11:31:31+01:00</time>
      </trkpt>
      <trkpt lat="44.9593" lon="4.67072">
        <ele>699</ele>
        <time>2018-01-31T11:31:33+01:00</time>
      </trkpt>
      <trkpt lat="44.95935" lon="4.67058">
        <ele>699</ele>
        <time>2018-01-31T11:31:43+01:00</time>
      </trkpt>
      <trkpt lat="44.95939" lon="4.67043">
        <ele>699</ele>
        <time>2018-01-31T11:31:52+01:00</time>
      </trkpt>
      <trkpt lat="44.9594" lon="4.67031">
        <ele>698</ele>
        <time>2018-01-31T11:32:00+01:00</time>
      </trkpt>
      <trkpt lat="44.95939" lon="4.67023">
        <ele>698</ele>
        <time>2018-01-31T11:32:07+01:00</time>
      </trkpt>
      <trkpt lat="44.95939" lon="4.67015">
        <ele>697</ele>
        <time>2018-01-31T11:32:13+01:00</time>
      </trkpt>
      <trkpt lat="44.95938" lon="4.67002">
        <ele>696</ele>
        <time>2018-01-31T11:32:21+01:00</time>
      </trkpt>
      <trkpt lat="44.9594" lon="4.66989">
        <ele>695</ele>
        <time>2018-01-31T11:32:29+01:00</time>
      </trkpt>
      <trkpt lat="44.95942" lon="4.66978">
        <ele>695</ele>
        <time>2018-01-31T11:32:36+01:00</time>
      </trkpt>
      <trkpt lat="44.95946" lon="4.66963">
        <ele>695</ele>
        <time>2018-01-31T11:32:46+01:00</time>
      </trkpt>
      <trkpt lat="44.95948" lon="4.66951">
        <ele>694</ele>
        <time>2018-01-31T11:32:53+01:00</time>
      </trkpt>
      <trkpt lat="44.95949" lon="4.66935">
        <ele>693</ele>
        <time>2018-01-31T11:33:03+01:00</time>
      </trkpt>
      <trkpt lat="44.95953" lon="4.66928">
        <ele>694</ele>
        <time>2018-01-31T11:33:08+01:00</time>
      </trkpt>
      <trkpt lat="44.9596" lon="4.6692">
        <ele>695</ele>
        <time>2018-01-31T11:33:17+01:00</time>
      </trkpt>
      <trkpt lat="44.95968" lon="4.66911">
        <ele>696</ele>
        <time>2018-01-31T11:33:25+01:00</time>
      </trkpt>
      <trkpt lat="44.95972" lon="4.66904">
        <ele>697</ele>
        <time>2018-01-31T11:33:33+01:00</time>
      </trkpt>
      <trkpt lat="44.9597" lon="4.66896">
        <ele>695</ele>
        <time>2018-01-31T11:33:43+01:00</time>
      </trkpt>
      <trkpt lat="44.95971" lon="4.66889">
        <ele>694</ele>
        <time>2018-01-31T11:34:02+01:00</time>
      </trkpt>
      <trkpt lat="44.95976" lon="4.66886">
        <ele>695</ele>
        <time>2018-01-31T11:34:07+01:00</time>
      </trkpt>
      <trkpt lat="44.95981" lon="4.66881">
        <ele>695</ele>
        <time>2018-01-31T11:34:15+01:00</time>
      </trkpt>
      <trkpt lat="44.95987" lon="4.66876">
        <ele>696</ele>
        <time>2018-01-31T11:34:23+01:00</time>
      </trkpt>
      <trkpt lat="44.95995" lon="4.66868">
        <ele>697</ele>
        <time>2018-01-31T11:34:31+01:00</time>
      </trkpt>
      <trkpt lat="44.95999" lon="4.66859">
        <ele>697</ele>
        <time>2018-01-31T11:34:40+01:00</time>
      </trkpt>
      <trkpt lat="44.96005" lon="4.6685">
        <ele>697</ele>
        <time>2018-01-31T11:34:48+01:00</time>
      </trkpt>
      <trkpt lat="44.96011" lon="4.66842">
        <ele>697</ele>
        <time>2018-01-31T11:34:55+01:00</time>
      </trkpt>
      <trkpt lat="44.96016" lon="4.66833">
        <ele>697</ele>
        <time>2018-01-31T11:35:02+01:00</time>
      </trkpt>
      <trkpt lat="44.96025" lon="4.6682">
        <ele>697</ele>
        <time>2018-01-31T11:37:35+01:00</time>
      </trkpt>
      <trkpt lat="44.96032" lon="4.66809">
        <ele>697</ele>
        <time>2018-01-31T11:37:43+01:00</time>
      </trkpt>
      <trkpt lat="44.96039" lon="4.668">
        <ele>697</ele>
        <time>2018-01-31T11:37:51+01:00</time>
      </trkpt>
      <trkpt lat="44.9604" lon="4.66797">
        <ele>697</ele>
        <time>2018-01-31T11:37:53+01:00</time>
      </trkpt>
      <trkpt lat="44.96042" lon="4.66792">
        <ele>697</ele>
        <time>2018-01-31T11:37:56+01:00</time>
      </trkpt>
      <trkpt lat="44.96047" lon="4.66784">
        <ele>697</ele>
        <time>2018-01-31T11:38:02+01:00</time>
      </trkpt>
      <trkpt lat="44.96053" lon="4.66774">
        <ele>696</ele>
        <time>2018-01-31T11:38:10+01:00</time>
      </trkpt>
      <trkpt lat="44.96059" lon="4.66763">
        <ele>696</ele>
        <time>2018-01-31T11:38:18+01:00</time>
      </trkpt>
      <trkpt lat="44.96066" lon="4.66746">
        <ele>695</ele>
        <time>2018-01-31T11:38:29+01:00</time>
      </trkpt>
      <trkpt lat="44.96072" lon="4.66732">
        <ele>694</ele>
        <time>2018-01-31T11:38:39+01:00</time>
      </trkpt>
      <trkpt lat="44.96075" lon="4.66724">
        <ele>694</ele>
        <time>2018-01-31T11:38:44+01:00</time>
      </trkpt>
      <trkpt lat="44.96077" lon="4.6672">
        <ele>694</ele>
        <time>2018-01-31T11:38:47+01:00</time>
      </trkpt>
      <trkpt lat="44.9608" lon="4.66711">
        <ele>694</ele>
        <time>2018-01-31T11:38:53+01:00</time>
      </trkpt>
      <trkpt lat="44.96086" lon="4.66699">
        <ele>693</ele>
        <time>2018-01-31T11:39:02+01:00</time>
      </trkpt>
      <trkpt lat="44.96093" lon="4.66691">
        <ele>693</ele>
        <time>2018-01-31T11:39:10+01:00</time>
      </trkpt>
      <trkpt lat="44.961" lon="4.6668">
        <ele>693</ele>
        <time>2018-01-31T11:39:19+01:00</time>
      </trkpt>
      <trkpt lat="44.96107" lon="4.6667">
        <ele>693</ele>
        <time>2018-01-31T11:39:28+01:00</time>
      </trkpt>
      <trkpt lat="44.96116" lon="4.66662">
        <ele>694</ele>
        <time>2018-01-31T11:39:36+01:00</time>
      </trkpt>
      <trkpt lat="44.96126" lon="4.66654">
        <ele>695</ele>
        <time>2018-01-31T11:39:46+01:00</time>
      </trkpt>
      <trkpt lat="44.96134" lon="4.66645">
        <ele>695</ele>
        <time>2018-01-31T11:39:54+01:00</time>
      </trkpt>
      <trkpt lat="44.96137" lon="4.66641">
        <ele>696</ele>
        <time>2018-01-31T11:39:58+01:00</time>
      </trkpt>
      <trkpt lat="44.96142" lon="4.66632">
        <ele>695</ele>
        <time>2018-01-31T11:40:08+01:00</time>
      </trkpt>
      <trkpt lat="44.96143" lon="4.66627">
        <ele>695</ele>
        <time>2018-01-31T11:40:14+01:00</time>
      </trkpt>
      <trkpt lat="44.96146" lon="4.66616">
        <ele>695</ele>
        <time>2018-01-31T11:40:23+01:00</time>
      </trkpt>
      <trkpt lat="44.96152" lon="4.66605">
        <ele>695</ele>
        <time>2018-01-31T11:40:31+01:00</time>
      </trkpt>
      <trkpt lat="44.96155" lon="4.66595">
        <ele>694</ele>
        <time>2018-01-31T11:40:38+01:00</time>
      </trkpt>
      <trkpt lat="44.96156" lon="4.66593">
        <ele>694</ele>
        <time>2018-01-31T11:40:39+01:00</time>
      </trkpt>
      <trkpt lat="44.96162" lon="4.66579">
        <ele>694</ele>
        <time>2018-01-31T11:40:49+01:00</time>
      </trkpt>
      <trkpt lat="44.96166" lon="4.66569">
        <ele>694</ele>
        <time>2018-01-31T11:40:57+01:00</time>
      </trkpt>
      <trkpt lat="44.96169" lon="4.66564">
        <ele>694</ele>
        <time>2018-01-31T11:41:01+01:00</time>
      </trkpt>
      <trkpt lat="44.96174" lon="4.6655">
        <ele>694</ele>
        <time>2018-01-31T11:41:10+01:00</time>
      </trkpt>
      <trkpt lat="44.96175" lon="4.66536">
        <ele>693</ele>
        <time>2018-01-31T11:41:19+01:00</time>
      </trkpt>
      <trkpt lat="44.96181" lon="4.66525">
        <ele>694</ele>
        <time>2018-01-31T11:41:28+01:00</time>
      </trkpt>
      <trkpt lat="44.96185" lon="4.66516">
        <ele>694</ele>
        <time>2018-01-31T11:41:35+01:00</time>
      </trkpt>
      <trkpt lat="44.96192" lon="4.66506">
        <ele>695</ele>
        <time>2018-01-31T11:41:43+01:00</time>
      </trkpt>
      <trkpt lat="44.96194" lon="4.66494">
        <ele>695</ele>
        <time>2018-01-31T11:41:51+01:00</time>
      </trkpt>
      <trkpt lat="44.96194" lon="4.66491">
        <ele>695</ele>
        <time>2018-01-31T11:41:53+01:00</time>
      </trkpt>
      <trkpt lat="44.96192" lon="4.66479">
        <ele>696</ele>
        <time>2018-01-31T11:42:01+01:00</time>
      </trkpt>
      <trkpt lat="44.96196" lon="4.66468">
        <ele>697</ele>
        <time>2018-01-31T11:42:09+01:00</time>
      </trkpt>
      <trkpt lat="44.96197" lon="4.66455">
        <ele>698</ele>
        <time>2018-01-31T11:42:17+01:00</time>
      </trkpt>
      <trkpt lat="44.96198" lon="4.66446">
        <ele>699</ele>
        <time>2018-01-31T11:42:24+01:00</time>
      </trkpt>
      <trkpt lat="44.96199" lon="4.66434">
        <ele>700</ele>
        <time>2018-01-31T11:42:32+01:00</time>
      </trkpt>
      <trkpt lat="44.96197" lon="4.66419">
        <ele>700</ele>
        <time>2018-01-31T11:42:41+01:00</time>
      </trkpt>
      <trkpt lat="44.96196" lon="4.66417">
        <ele>700</ele>
        <time>2018-01-31T11:42:42+01:00</time>
      </trkpt>
      <trkpt lat="44.96191" lon="4.66413">
        <ele>700</ele>
        <time>2018-01-31T11:42:46+01:00</time>
      </trkpt>
      <trkpt lat="44.96182" lon="4.6641">
        <ele>699</ele>
        <time>2018-01-31T11:42:54+01:00</time>
      </trkpt>
      <trkpt lat="44.96179" lon="4.66409">
        <ele>698</ele>
        <time>2018-01-31T11:43:00+01:00</time>
      </trkpt>
      <trkpt lat="44.9617" lon="4.66405">
        <ele>697</ele>
        <time>2018-01-31T11:43:07+01:00</time>
      </trkpt>
      <trkpt lat="44.96167" lon="4.66402">
        <ele>697</ele>
        <time>2018-01-31T11:43:10+01:00</time>
      </trkpt>
      <trkpt lat="44.96159" lon="4.664">
        <ele>696</ele>
        <time>2018-01-31T11:43:18+01:00</time>
      </trkpt>
      <trkpt lat="44.96154" lon="4.66401">
        <ele>695</ele>
        <time>2018-01-31T11:43:21+01:00</time>
      </trkpt>
      <trkpt lat="44.9615" lon="4.66402">
        <ele>695</ele>
        <time>2018-01-31T11:43:24+01:00</time>
      </trkpt>
      <trkpt lat="44.96142" lon="4.6641">
        <ele>693</ele>
        <time>2018-01-31T11:43:31+01:00</time>
      </trkpt>
      <trkpt lat="44.96134" lon="4.66426">
        <ele>691</ele>
        <time>2018-01-31T11:43:42+01:00</time>
      </trkpt>
      <trkpt lat="44.96121" lon="4.66433">
        <ele>689</ele>
        <time>2018-01-31T11:43:52+01:00</time>
      </trkpt>
      <trkpt lat="44.96117" lon="4.66434">
        <ele>688</ele>
        <time>2018-01-31T11:43:56+01:00</time>
      </trkpt>
      <trkpt lat="44.96112" lon="4.66431">
        <ele>688</ele>
        <time>2018-01-31T11:44:00+01:00</time>
      </trkpt>
      <trkpt lat="44.96108" lon="4.66431">
        <ele>688</ele>
        <time>2018-01-31T11:44:03+01:00</time>
      </trkpt>
      <trkpt lat="44.96106" lon="4.66429">
        <ele>687</ele>
        <time>2018-01-31T11:44:06+01:00</time>
      </trkpt>
      <trkpt lat="44.96096" lon="4.66424">
        <ele>687</ele>
        <time>2018-01-31T11:44:15+01:00</time>
      </trkpt>
      <trkpt lat="44.96093" lon="4.66425">
        <ele>686</ele>
        <time>2018-01-31T11:44:24+01:00</time>
      </trkpt>
      <trkpt lat="44.9609" lon="4.66426">
        <ele>686</ele>
        <time>2018-01-31T11:44:34+01:00</time>
      </trkpt>
      <trkpt lat="44.96086" lon="4.66428">
        <ele>685</ele>
        <time>2018-01-31T11:44:38+01:00</time>
      </trkpt>
      <trkpt lat="44.96071" lon="4.66431">
        <ele>683</ele>
        <time>2018-01-31T11:44:48+01:00</time>
      </trkpt>
      <trkpt lat="44.9606" lon="4.66437">
        <ele>682</ele>
        <time>2018-01-31T11:44:57+01:00</time>
      </trkpt>
      <trkpt lat="44.96048" lon="4.66443">
        <ele>680</ele>
        <time>2018-01-31T11:45:06+01:00</time>
      </trkpt>
      <trkpt lat="44.96042" lon="4.66444">
        <ele>679</ele>
        <time>2018-01-31T11:45:11+01:00</time>
      </trkpt>
      <trkpt lat="44.96033" lon="4.66446">
        <ele>679</ele>
        <time>2018-01-31T11:45:18+01:00</time>
      </trkpt>
      <trkpt lat="44.9603" lon="4.66446">
        <ele>678</ele>
        <time>2018-01-31T11:45:21+01:00</time>
      </trkpt>
      <trkpt lat="44.96019" lon="4.66448">
        <ele>677</ele>
        <time>2018-01-31T11:45:31+01:00</time>
      </trkpt>
      <trkpt lat="44.96011" lon="4.66449">
        <ele>676</ele>
        <time>2018-01-31T11:45:38+01:00</time>
      </trkpt>
      <trkpt lat="44.95999" lon="4.66451">
        <ele>675</ele>
        <time>2018-01-31T11:45:48+01:00</time>
      </trkpt>
      <trkpt lat="44.95986" lon="4.66455">
        <ele>674</ele>
        <time>2018-01-31T11:45:59+01:00</time>
      </trkpt>
      <trkpt lat="44.95974" lon="4.66459">
        <ele>673</ele>
        <time>2018-01-31T11:46:08+01:00</time>
      </trkpt>
      <trkpt lat="44.95962" lon="4.66465">
        <ele>672</ele>
        <time>2018-01-31T11:46:18+01:00</time>
      </trkpt>
      <trkpt lat="44.95951" lon="4.66469">
        <ele>671</ele>
        <time>2018-01-31T11:46:27+01:00</time>
      </trkpt>
      <trkpt lat="44.95941" lon="4.66473">
        <ele>670</ele>
        <time>2018-01-31T11:46:35+01:00</time>
      </trkpt>
      <trkpt lat="44.9593" lon="4.66474">
        <ele>669</ele>
        <time>2018-01-31T11:46:44+01:00</time>
      </trkpt>
      <trkpt lat="44.95926" lon="4.66475">
        <ele>669</ele>
        <time>2018-01-31T11:46:49+01:00</time>
      </trkpt>
      <trkpt lat="44.95914" lon="4.66471">
        <ele>668</ele>
        <time>2018-01-31T11:47:00+01:00</time>
      </trkpt>
      <trkpt lat="44.95908" lon="4.66468">
        <ele>667</ele>
        <time>2018-01-31T11:47:06+01:00</time>
      </trkpt>
      <trkpt lat="44.95896" lon="4.66457">
        <ele>665</ele>
        <time>2018-01-31T11:47:17+01:00</time>
      </trkpt>
      <trkpt lat="44.95894" lon="4.66455">
        <ele>665</ele>
        <time>2018-01-31T11:47:19+01:00</time>
      </trkpt>
      <trkpt lat="44.95885" lon="4.66441">
        <ele>664</ele>
        <time>2018-01-31T11:47:30+01:00</time>
      </trkpt>
      <trkpt lat="44.95882" lon="4.66436">
        <ele>664</ele>
        <time>2018-01-31T11:47:37+01:00</time>
      </trkpt>
      <trkpt lat="44.95878" lon="4.66425">
        <ele>663</ele>
        <time>2018-01-31T11:47:44+01:00</time>
      </trkpt>
      <trkpt lat="44.95875" lon="4.66408">
        <ele>663</ele>
        <time>2018-01-31T11:47:54+01:00</time>
      </trkpt>
      <trkpt lat="44.95875" lon="4.66404">
        <ele>663</ele>
        <time>2018-01-31T11:48:02+01:00</time>
      </trkpt>
      <trkpt lat="44.95876" lon="4.66402">
        <ele>663</ele>
        <time>2018-01-31T11:48:12+01:00</time>
      </trkpt>
      <trkpt lat="44.95874" lon="4.66384">
        <ele>663</ele>
        <time>2018-01-31T11:48:21+01:00</time>
      </trkpt>
      <trkpt lat="44.95874" lon="4.66382">
        <ele>663</ele>
        <time>2018-01-31T11:48:22+01:00</time>
      </trkpt>
      <trkpt lat="44.95872" lon="4.66377">
        <ele>662</ele>
        <time>2018-01-31T11:48:25+01:00</time>
      </trkpt>
      <trkpt lat="44.95872" lon="4.66368">
        <ele>662</ele>
        <time>2018-01-31T11:48:46+01:00</time>
      </trkpt>
      <trkpt lat="44.95882" lon="4.66351">
        <ele>664</ele>
        <time>2018-01-31T11:51:59+01:00</time>
      </trkpt>
      <trkpt lat="44.95885" lon="4.66343">
        <ele>665</ele>
        <time>2018-01-31T11:52:05+01:00</time>
      </trkpt>
      <trkpt lat="44.9589" lon="4.66331">
        <ele>666</ele>
        <time>2018-01-31T11:52:14+01:00</time>
      </trkpt>
      <trkpt lat="44.95898" lon="4.66321">
        <ele>668</ele>
        <time>2018-01-31T11:52:25+01:00</time>
      </trkpt>
      <trkpt lat="44.95903" lon="4.66314">
        <ele>669</ele>
        <time>2018-01-31T11:52:33+01:00</time>
      </trkpt>
      <trkpt lat="44.95907" lon="4.66307">
        <ele>670</ele>
        <time>2018-01-31T11:52:40+01:00</time>
      </trkpt>
      <trkpt lat="44.9591" lon="4.66297">
        <ele>672</ele>
        <time>2018-01-31T11:52:48+01:00</time>
      </trkpt>
      <trkpt lat="44.95914" lon="4.66286">
        <ele>674</ele>
        <time>2018-01-31T11:52:55+01:00</time>
      </trkpt>
      <trkpt lat="44.95917" lon="4.66281">
        <ele>674</ele>
        <time>2018-01-31T11:52:59+01:00</time>
      </trkpt>
      <trkpt lat="44.95922" lon="4.66268">
        <ele>676</ele>
        <time>2018-01-31T11:53:09+01:00</time>
      </trkpt>
      <trkpt lat="44.95925" lon="4.66254">
        <ele>678</ele>
        <time>2018-01-31T11:53:19+01:00</time>
      </trkpt>
      <trkpt lat="44.95925" lon="4.66246">
        <ele>679</ele>
        <time>2018-01-31T11:53:26+01:00</time>
      </trkpt>
      <trkpt lat="44.9593" lon="4.66235">
        <ele>680</ele>
        <time>2018-01-31T11:53:34+01:00</time>
      </trkpt>
      <trkpt lat="44.95934" lon="4.66224">
        <ele>681</ele>
        <time>2018-01-31T11:53:43+01:00</time>
      </trkpt>
      <trkpt lat="44.95939" lon="4.66213">
        <ele>683</ele>
        <time>2018-01-31T11:53:52+01:00</time>
      </trkpt>
      <trkpt lat="44.95941" lon="4.66211">
        <ele>683</ele>
        <time>2018-01-31T11:53:55+01:00</time>
      </trkpt>
      <trkpt lat="44.95944" lon="4.66206">
        <ele>684</ele>
        <time>2018-01-31T11:54:02+01:00</time>
      </trkpt>
      <trkpt lat="44.95944" lon="4.66202">
        <ele>684</ele>
        <time>2018-01-31T11:54:13+01:00</time>
      </trkpt>
      <trkpt lat="44.95949" lon="4.66198">
        <ele>685</ele>
        <time>2018-01-31T11:54:20+01:00</time>
      </trkpt>
      <trkpt lat="44.95955" lon="4.6619">
        <ele>687</ele>
        <time>2018-01-31T11:54:27+01:00</time>
      </trkpt>
      <trkpt lat="44.95961" lon="4.66183">
        <ele>689</ele>
        <time>2018-01-31T11:54:34+01:00</time>
      </trkpt>
      <trkpt lat="44.95965" lon="4.66177">
        <ele>691</ele>
        <time>2018-01-31T11:54:41+01:00</time>
      </trkpt>
      <trkpt lat="44.95971" lon="4.66173">
        <ele>693</ele>
        <time>2018-01-31T11:54:49+01:00</time>
      </trkpt>
      <trkpt lat="44.95975" lon="4.6617">
        <ele>694</ele>
        <time>2018-01-31T11:54:57+01:00</time>
      </trkpt>
      <trkpt lat="44.95979" lon="4.66167">
        <ele>695</ele>
        <time>2018-01-31T11:55:08+01:00</time>
      </trkpt>
      <trkpt lat="44.95982" lon="4.66162">
        <ele>696</ele>
        <time>2018-01-31T11:55:15+01:00</time>
      </trkpt>
      <trkpt lat="44.95985" lon="4.66157">
        <ele>697</ele>
        <time>2018-01-31T11:55:21+01:00</time>
      </trkpt>
      <trkpt lat="44.95988" lon="4.66149">
        <ele>697</ele>
        <time>2018-01-31T11:55:28+01:00</time>
      </trkpt>
      <trkpt lat="44.95994" lon="4.66141">
        <ele>699</ele>
        <time>2018-01-31T11:55:37+01:00</time>
      </trkpt>
      <trkpt lat="44.95999" lon="4.66132">
        <ele>700</ele>
        <time>2018-01-31T11:55:46+01:00</time>
      </trkpt>
      <trkpt lat="44.96004" lon="4.66127">
        <ele>701</ele>
        <time>2018-01-31T11:55:53+01:00</time>
      </trkpt>
      <trkpt lat="44.96009" lon="4.66123">
        <ele>701</ele>
        <time>2018-01-31T11:56:00+01:00</time>
      </trkpt>
      <trkpt lat="44.96015" lon="4.66118">
        <ele>701</ele>
        <time>2018-01-31T11:56:09+01:00</time>
      </trkpt>
      <trkpt lat="44.96022" lon="4.66113">
        <ele>701</ele>
        <time>2018-01-31T11:56:16+01:00</time>
      </trkpt>
      <trkpt lat="44.96027" lon="4.6611">
        <ele>701</ele>
        <time>2018-01-31T11:56:24+01:00</time>
      </trkpt>
      <trkpt lat="44.96034" lon="4.66107">
        <ele>702</ele>
        <time>2018-01-31T11:56:32+01:00</time>
      </trkpt>
      <trkpt lat="44.96041" lon="4.66103">
        <ele>702</ele>
        <time>2018-01-31T11:56:40+01:00</time>
      </trkpt>
      <trkpt lat="44.9605" lon="4.66095">
        <ele>702</ele>
        <time>2018-01-31T11:56:50+01:00</time>
      </trkpt>
      <trkpt lat="44.96056" lon="4.66087">
        <ele>703</ele>
        <time>2018-01-31T11:57:00+01:00</time>
      </trkpt>
      <trkpt lat="44.96058" lon="4.66081">
        <ele>703</ele>
        <time>2018-01-31T11:57:24+01:00</time>
      </trkpt>
      <trkpt lat="44.96062" lon="4.66073">
        <ele>702</ele>
        <time>2018-01-31T11:57:32+01:00</time>
      </trkpt>
      <trkpt lat="44.96066" lon="4.66069">
        <ele>702</ele>
        <time>2018-01-31T11:57:40+01:00</time>
      </trkpt>
      <trkpt lat="44.9607" lon="4.66066">
        <ele>702</ele>
        <time>2018-01-31T11:57:48+01:00</time>
      </trkpt>
      <trkpt lat="44.96073" lon="4.66061">
        <ele>702</ele>
        <time>2018-01-31T11:57:57+01:00</time>
      </trkpt>
      <trkpt lat="44.96075" lon="4.66059">
        <ele>702</ele>
        <time>2018-01-31T11:57:59+01:00</time>
      </trkpt>
      <trkpt lat="44.96084" lon="4.6605">
        <ele>702</ele>
        <time>2018-01-31T11:58:09+01:00</time>
      </trkpt>
      <trkpt lat="44.96085" lon="4.66049">
        <ele>703</ele>
        <time>2018-01-31T11:58:10+01:00</time>
      </trkpt>
      <trkpt lat="44.96092" lon="4.66043">
        <ele>703</ele>
        <time>2018-01-31T11:58:18+01:00</time>
      </trkpt>
      <trkpt lat="44.96099" lon="4.66035">
        <ele>703</ele>
        <time>2018-01-31T11:58:26+01:00</time>
      </trkpt>
      <trkpt lat="44.96104" lon="4.6603">
        <ele>704</ele>
        <time>2018-01-31T11:58:32+01:00</time>
      </trkpt>
      <trkpt lat="44.96111" lon="4.66024">
        <ele>704</ele>
        <time>2018-01-31T11:58:39+01:00</time>
      </trkpt>
      <trkpt lat="44.96116" lon="4.66018">
        <ele>705</ele>
        <time>2018-01-31T11:58:45+01:00</time>
      </trkpt>
      <trkpt lat="44.96117" lon="4.66017">
        <ele>705</ele>
        <time>2018-01-31T11:58:46+01:00</time>
      </trkpt>
      <trkpt lat="44.96126" lon="4.66006">
        <ele>705</ele>
        <time>2018-01-31T11:59:03+01:00</time>
      </trkpt>
      <trkpt lat="44.96129" lon="4.66001">
        <ele>706</ele>
        <time>2018-01-31T11:59:08+01:00</time>
      </trkpt>
      <trkpt lat="44.96137" lon="4.65992">
        <ele>706</ele>
        <time>2018-01-31T11:59:17+01:00</time>
      </trkpt>
      <trkpt lat="44.96139" lon="4.65988">
        <ele>706</ele>
        <time>2018-01-31T11:59:20+01:00</time>
      </trkpt>
      <trkpt lat="44.96145" lon="4.65981">
        <ele>706</ele>
        <time>2018-01-31T11:59:27+01:00</time>
      </trkpt>
      <trkpt lat="44.96153" lon="4.65973">
        <ele>706</ele>
        <time>2018-01-31T11:59:34+01:00</time>
      </trkpt>
      <trkpt lat="44.96162" lon="4.65962">
        <ele>707</ele>
        <time>2018-01-31T11:59:43+01:00</time>
      </trkpt>
      <trkpt lat="44.96168" lon="4.65955">
        <ele>708</ele>
        <time>2018-01-31T11:59:50+01:00</time>
      </trkpt>
      <trkpt lat="44.96172" lon="4.65949">
        <ele>708</ele>
        <time>2018-01-31T11:59:55+01:00</time>
      </trkpt>
      <trkpt lat="44.96179" lon="4.6594">
        <ele>709</ele>
        <time>2018-01-31T12:00:01+01:00</time>
      </trkpt>
      <trkpt lat="44.96186" lon="4.65929">
        <ele>710</ele>
        <time>2018-01-31T12:00:09+01:00</time>
      </trkpt>
      <trkpt lat="44.9619" lon="4.65921">
        <ele>710</ele>
        <time>2018-01-31T12:00:15+01:00</time>
      </trkpt>
      <trkpt lat="44.96197" lon="4.6591">
        <ele>711</ele>
        <time>2018-01-31T12:00:24+01:00</time>
      </trkpt>
      <trkpt lat="44.96202" lon="4.65903">
        <ele>712</ele>
        <time>2018-01-31T12:00:31+01:00</time>
      </trkpt>
      <trkpt lat="44.96203" lon="4.65898">
        <ele>711</ele>
        <time>2018-01-31T12:00:36+01:00</time>
      </trkpt>
      <trkpt lat="44.96204" lon="4.65891">
        <ele>711</ele>
        <time>2018-01-31T12:00:42+01:00</time>
      </trkpt>
      <trkpt lat="44.96206" lon="4.65882">
        <ele>711</ele>
        <time>2018-01-31T12:00:49+01:00</time>
      </trkpt>
      <trkpt lat="44.96207" lon="4.65873">
        <ele>710</ele>
        <time>2018-01-31T12:00:57+01:00</time>
      </trkpt>
      <trkpt lat="44.9621" lon="4.65864">
        <ele>710</ele>
        <time>2018-01-31T12:01:04+01:00</time>
      </trkpt>
      <trkpt lat="44.96213" lon="4.65857">
        <ele>710</ele>
        <time>2018-01-31T12:01:09+01:00</time>
      </trkpt>
      <trkpt lat="44.96218" lon="4.65846">
        <ele>711</ele>
        <time>2018-01-31T12:01:16+01:00</time>
      </trkpt>
      <trkpt lat="44.96222" lon="4.65836">
        <ele>711</ele>
        <time>2018-01-31T12:01:22+01:00</time>
      </trkpt>
      <trkpt lat="44.96227" lon="4.65826">
        <ele>711</ele>
        <time>2018-01-31T12:01:29+01:00</time>
      </trkpt>
      <trkpt lat="44.96231" lon="4.65818">
        <ele>711</ele>
        <time>2018-01-31T12:01:35+01:00</time>
      </trkpt>
      <trkpt lat="44.96236" lon="4.65811">
        <ele>711</ele>
        <time>2018-01-31T12:01:42+01:00</time>
      </trkpt>
      <trkpt lat="44.96241" lon="4.65803">
        <ele>711</ele>
        <time>2018-01-31T12:01:50+01:00</time>
      </trkpt>
      <trkpt lat="44.96246" lon="4.65793">
        <ele>711</ele>
        <time>2018-01-31T12:01:57+01:00</time>
      </trkpt>
      <trkpt lat="44.9625" lon="4.65785">
        <ele>711</ele>
        <time>2018-01-31T12:02:04+01:00</time>
      </trkpt>
      <trkpt lat="44.96252" lon="4.65777">
        <ele>711</ele>
        <time>2018-01-31T12:02:12+01:00</time>
      </trkpt>
      <trkpt lat="44.96257" lon="4.65769">
        <ele>711</ele>
        <time>2018-01-31T12:02:18+01:00</time>
      </trkpt>
      <trkpt lat="44.96261" lon="4.65761">
        <ele>710</ele>
        <time>2018-01-31T12:02:26+01:00</time>
      </trkpt>
      <trkpt lat="44.96265" lon="4.65755">
        <ele>710</ele>
        <time>2018-01-31T12:02:31+01:00</time>
      </trkpt>
      <trkpt lat="44.96271" lon="4.65743">
        <ele>710</ele>
        <time>2018-01-31T12:02:41+01:00</time>
      </trkpt>
      <trkpt lat="44.96273" lon="4.65737">
        <ele>709</ele>
        <time>2018-01-31T12:02:47+01:00</time>
      </trkpt>
      <trkpt lat="44.9628" lon="4.65724">
        <ele>709</ele>
        <time>2018-01-31T12:02:57+01:00</time>
      </trkpt>
      <trkpt lat="44.96286" lon="4.65718">
        <ele>709</ele>
        <time>2018-01-31T12:03:03+01:00</time>
      </trkpt>
      <trkpt lat="44.96293" lon="4.65709">
        <ele>709</ele>
        <time>2018-01-31T12:03:09+01:00</time>
      </trkpt>
      <trkpt lat="44.96296" lon="4.65701">
        <ele>709</ele>
        <time>2018-01-31T12:03:16+01:00</time>
      </trkpt>
      <trkpt lat="44.96301" lon="4.65696">
        <ele>709</ele>
        <time>2018-01-31T12:03:23+01:00</time>
      </trkpt>
      <trkpt lat="44.96303" lon="4.65693">
        <ele>709</ele>
        <time>2018-01-31T12:03:26+01:00</time>
      </trkpt>
      <trkpt lat="44.9631" lon="4.65686">
        <ele>709</ele>
        <time>2018-01-31T12:03:34+01:00</time>
      </trkpt>
      <trkpt lat="44.96313" lon="4.65681">
        <ele>708</ele>
        <time>2018-01-31T12:03:38+01:00</time>
      </trkpt>
      <trkpt lat="44.96316" lon="4.65676">
        <ele>708</ele>
        <time>2018-01-31T12:03:42+01:00</time>
      </trkpt>
      <trkpt lat="44.96319" lon="4.65672">
        <ele>708</ele>
        <time>2018-01-31T12:03:45+01:00</time>
      </trkpt>
      <trkpt lat="44.96321" lon="4.65667">
        <ele>708</ele>
        <time>2018-01-31T12:03:48+01:00</time>
      </trkpt>
      <trkpt lat="44.96332" lon="4.65657">
        <ele>708</ele>
        <time>2018-01-31T12:03:56+01:00</time>
      </trkpt>
      <trkpt lat="44.96341" lon="4.65648">
        <ele>709</ele>
        <time>2018-01-31T12:04:03+01:00</time>
      </trkpt>
      <trkpt lat="44.96343" lon="4.65646">
        <ele>709</ele>
        <time>2018-01-31T12:04:05+01:00</time>
      </trkpt>
      <trkpt lat="44.9635" lon="4.65636">
        <ele>709</ele>
        <time>2018-01-31T12:04:12+01:00</time>
      </trkpt>
      <trkpt lat="44.96353" lon="4.65627">
        <ele>709</ele>
        <time>2018-01-31T12:04:19+01:00</time>
      </trkpt>
      <trkpt lat="44.96358" lon="4.65616">
        <ele>709</ele>
        <time>2018-01-31T12:04:28+01:00</time>
      </trkpt>
      <trkpt lat="44.96363" lon="4.65603">
        <ele>709</ele>
        <time>2018-01-31T12:04:37+01:00</time>
      </trkpt>
      <trkpt lat="44.96367" lon="4.65593">
        <ele>709</ele>
        <time>2018-01-31T12:04:45+01:00</time>
      </trkpt>
      <trkpt lat="44.96372" lon="4.65585">
        <ele>709</ele>
        <time>2018-01-31T12:04:51+01:00</time>
      </trkpt>
      <trkpt lat="44.96372" lon="4.65582">
        <ele>709</ele>
        <time>2018-01-31T12:04:53+01:00</time>
      </trkpt>
      <trkpt lat="44.96376" lon="4.65569">
        <ele>708</ele>
        <time>2018-01-31T12:05:01+01:00</time>
      </trkpt>
      <trkpt lat="44.96377" lon="4.65559">
        <ele>708</ele>
        <time>2018-01-31T12:05:07+01:00</time>
      </trkpt>
      <trkpt lat="44.9638" lon="4.6555">
        <ele>708</ele>
        <time>2018-01-31T12:05:13+01:00</time>
      </trkpt>
      <trkpt lat="44.96383" lon="4.6554">
        <ele>708</ele>
        <time>2018-01-31T12:05:20+01:00</time>
      </trkpt>
      <trkpt lat="44.96386" lon="4.65535">
        <ele>707</ele>
        <time>2018-01-31T12:05:24+01:00</time>
      </trkpt>
      <trkpt lat="44.96387" lon="4.65533">
        <ele>707</ele>
        <time>2018-01-31T12:05:26+01:00</time>
      </trkpt>
      <trkpt lat="44.96394" lon="4.65524">
        <ele>707</ele>
        <time>2018-01-31T12:05:34+01:00</time>
      </trkpt>
      <trkpt lat="44.964" lon="4.65519">
        <ele>707</ele>
        <time>2018-01-31T12:05:41+01:00</time>
      </trkpt>
      <trkpt lat="44.96407" lon="4.65513">
        <ele>707</ele>
        <time>2018-01-31T12:05:49+01:00</time>
      </trkpt>
      <trkpt lat="44.96413" lon="4.65507">
        <ele>707</ele>
        <time>2018-01-31T12:05:55+01:00</time>
      </trkpt>
      <trkpt lat="44.96419" lon="4.655">
        <ele>706</ele>
        <time>2018-01-31T12:06:02+01:00</time>
      </trkpt>
      <trkpt lat="44.96425" lon="4.65496">
        <ele>705</ele>
        <time>2018-01-31T12:06:08+01:00</time>
      </trkpt>
      <trkpt lat="44.96432" lon="4.65491">
        <ele>705</ele>
        <time>2018-01-31T12:06:17+01:00</time>
      </trkpt>
      <trkpt lat="44.96431" lon="4.65489">
        <ele>704</ele>
        <time>2018-01-31T12:06:35+01:00</time>
      </trkpt>
      <trkpt lat="44.96433" lon="4.65488">
        <ele>704</ele>
        <time>2018-01-31T12:06:44+01:00</time>
      </trkpt>
      <trkpt lat="44.96436" lon="4.65486">
        <ele>704</ele>
        <time>2018-01-31T12:07:00+01:00</time>
      </trkpt>
      <trkpt lat="44.96444" lon="4.65484">
        <ele>704</ele>
        <time>2018-01-31T12:07:07+01:00</time>
      </trkpt>
      <trkpt lat="44.96445" lon="4.65482">
        <ele>704</ele>
        <time>2018-01-31T12:07:14+01:00</time>
      </trkpt>
      <trkpt lat="44.96456" lon="4.6548">
        <ele>704</ele>
        <time>2018-01-31T12:07:23+01:00</time>
      </trkpt>
      <trkpt lat="44.96466" lon="4.65476">
        <ele>703</ele>
        <time>2018-01-31T12:07:31+01:00</time>
      </trkpt>
      <trkpt lat="44.96471" lon="4.65474">
        <ele>703</ele>
        <time>2018-01-31T12:07:35+01:00</time>
      </trkpt>
      <trkpt lat="44.96482" lon="4.65471">
        <ele>703</ele>
        <time>2018-01-31T12:07:44+01:00</time>
      </trkpt>
      <trkpt lat="44.96495" lon="4.65469">
        <ele>703</ele>
        <time>2018-01-31T12:07:54+01:00</time>
      </trkpt>
      <trkpt lat="44.96504" lon="4.65473">
        <ele>704</ele>
        <time>2018-01-31T12:08:02+01:00</time>
      </trkpt>
      <trkpt lat="44.96511" lon="4.65478">
        <ele>704</ele>
        <time>2018-01-31T12:08:17+01:00</time>
      </trkpt>
      <trkpt lat="44.96504" lon="4.65485">
        <ele>705</ele>
        <time>2018-01-31T12:10:22+01:00</time>
      </trkpt>
      <trkpt lat="44.96499" lon="4.65494">
        <ele>706</ele>
        <time>2018-01-31T12:10:32+01:00</time>
      </trkpt>
      <trkpt lat="44.96499" lon="4.65496">
        <ele>706</ele>
        <time>2018-01-31T12:10:34+01:00</time>
      </trkpt>
      <trkpt lat="44.96502" lon="4.65507">
        <ele>708</ele>
        <time>2018-01-31T12:10:43+01:00</time>
      </trkpt>
      <trkpt lat="44.96505" lon="4.65513">
        <ele>708</ele>
        <time>2018-01-31T12:10:48+01:00</time>
      </trkpt>
      <trkpt lat="44.96509" lon="4.6552">
        <ele>708</ele>
        <time>2018-01-31T12:10:53+01:00</time>
      </trkpt>
      <trkpt lat="44.96517" lon="4.65531">
        <ele>709</ele>
        <time>2018-01-31T12:11:02+01:00</time>
      </trkpt>
      <trkpt lat="44.96519" lon="4.6554">
        <ele>709</ele>
        <time>2018-01-31T12:11:09+01:00</time>
      </trkpt>
      <trkpt lat="44.96521" lon="4.65545">
        <ele>709</ele>
        <time>2018-01-31T12:11:12+01:00</time>
      </trkpt>
      <trkpt lat="44.96522" lon="4.65554">
        <ele>710</ele>
        <time>2018-01-31T12:11:19+01:00</time>
      </trkpt>
      <trkpt lat="44.9652" lon="4.65564">
        <ele>711</ele>
        <time>2018-01-31T12:11:26+01:00</time>
      </trkpt>
      <trkpt lat="44.96518" lon="4.65571">
        <ele>713</ele>
        <time>2018-01-31T12:11:32+01:00</time>
      </trkpt>
      <trkpt lat="44.96517" lon="4.65581">
        <ele>714</ele>
        <time>2018-01-31T12:11:40+01:00</time>
      </trkpt>
      <trkpt lat="44.96514" lon="4.65593">
        <ele>715</ele>
        <time>2018-01-31T12:11:48+01:00</time>
      </trkpt>
      <trkpt lat="44.96513" lon="4.65607">
        <ele>717</ele>
        <time>2018-01-31T12:11:57+01:00</time>
      </trkpt>
      <trkpt lat="44.96513" lon="4.65609">
        <ele>717</ele>
        <time>2018-01-31T12:11:58+01:00</time>
      </trkpt>
      <trkpt lat="44.96513" lon="4.65621">
        <ele>718</ele>
        <time>2018-01-31T12:12:06+01:00</time>
      </trkpt>
      <trkpt lat="44.96515" lon="4.6563">
        <ele>719</ele>
        <time>2018-01-31T12:12:13+01:00</time>
      </trkpt>
      <trkpt lat="44.96516" lon="4.65638">
        <ele>719</ele>
        <time>2018-01-31T12:12:19+01:00</time>
      </trkpt>
      <trkpt lat="44.96515" lon="4.65647">
        <ele>720</ele>
        <time>2018-01-31T12:12:25+01:00</time>
      </trkpt>
      <trkpt lat="44.96516" lon="4.65657">
        <ele>721</ele>
        <time>2018-01-31T12:12:32+01:00</time>
      </trkpt>
      <trkpt lat="44.96516" lon="4.65662">
        <ele>721</ele>
        <time>2018-01-31T12:12:36+01:00</time>
      </trkpt>
      <trkpt lat="44.96516" lon="4.6567">
        <ele>722</ele>
        <time>2018-01-31T12:12:43+01:00</time>
      </trkpt>
      <trkpt lat="44.96515" lon="4.65681">
        <ele>724</ele>
        <time>2018-01-31T12:12:49+01:00</time>
      </trkpt>
      <trkpt lat="44.96518" lon="4.65689">
        <ele>725</ele>
        <time>2018-01-31T12:12:54+01:00</time>
      </trkpt>
      <trkpt lat="44.96519" lon="4.65697">
        <ele>726</ele>
        <time>2018-01-31T12:13:01+01:00</time>
      </trkpt>
      <trkpt lat="44.96521" lon="4.65704">
        <ele>727</ele>
        <time>2018-01-31T12:13:08+01:00</time>
      </trkpt>
      <trkpt lat="44.96519" lon="4.65708">
        <ele>727</ele>
        <time>2018-01-31T12:13:13+01:00</time>
      </trkpt>
      <trkpt lat="44.96521" lon="4.65718">
        <ele>729</ele>
        <time>2018-01-31T12:13:21+01:00</time>
      </trkpt>
      <trkpt lat="44.96524" lon="4.65728">
        <ele>730</ele>
        <time>2018-01-31T12:13:29+01:00</time>
      </trkpt>
      <trkpt lat="44.96525" lon="4.65729">
        <ele>730</ele>
        <time>2018-01-31T12:13:30+01:00</time>
      </trkpt>
      <trkpt lat="44.96528" lon="4.65738">
        <ele>731</ele>
        <time>2018-01-31T12:13:36+01:00</time>
      </trkpt>
      <trkpt lat="44.96528" lon="4.65746">
        <ele>732</ele>
        <time>2018-01-31T12:13:42+01:00</time>
      </trkpt>
      <trkpt lat="44.9653" lon="4.6575">
        <ele>732</ele>
        <time>2018-01-31T12:13:52+01:00</time>
      </trkpt>
      <trkpt lat="44.96534" lon="4.65762">
        <ele>734</ele>
        <time>2018-01-31T12:18:12+01:00</time>
      </trkpt>
      <trkpt lat="44.96537" lon="4.6577">
        <ele>735</ele>
        <time>2018-01-31T12:18:16+01:00</time>
      </trkpt>
      <trkpt lat="44.96542" lon="4.6578">
        <ele>736</ele>
        <time>2018-01-31T12:18:24+01:00</time>
      </trkpt>
      <trkpt lat="44.96547" lon="4.65788">
        <ele>736</ele>
        <time>2018-01-31T12:18:30+01:00</time>
      </trkpt>
      <trkpt lat="44.96549" lon="4.65796">
        <ele>737</ele>
        <time>2018-01-31T12:18:36+01:00</time>
      </trkpt>
      <trkpt lat="44.96552" lon="4.65805">
        <ele>738</ele>
        <time>2018-01-31T12:18:43+01:00</time>
      </trkpt>
      <trkpt lat="44.96553" lon="4.65814">
        <ele>740</ele>
        <time>2018-01-31T12:18:49+01:00</time>
      </trkpt>
      <trkpt lat="44.96555" lon="4.65816">
        <ele>740</ele>
        <time>2018-01-31T12:18:51+01:00</time>
      </trkpt>
      <trkpt lat="44.96556" lon="4.65819">
        <ele>740</ele>
        <time>2018-01-31T12:18:53+01:00</time>
      </trkpt>
      <trkpt lat="44.96558" lon="4.65833">
        <ele>742</ele>
        <time>2018-01-31T12:19:03+01:00</time>
      </trkpt>
      <trkpt lat="44.96556" lon="4.6584">
        <ele>743</ele>
        <time>2018-01-31T12:19:08+01:00</time>
      </trkpt>
      <trkpt lat="44.9656" lon="4.65849">
        <ele>744</ele>
        <time>2018-01-31T12:19:15+01:00</time>
      </trkpt>
      <trkpt lat="44.9656" lon="4.65857">
        <ele>745</ele>
        <time>2018-01-31T12:19:20+01:00</time>
      </trkpt>
      <trkpt lat="44.96562" lon="4.65861">
        <ele>746</ele>
        <time>2018-01-31T12:19:23+01:00</time>
      </trkpt>
      <trkpt lat="44.96563" lon="4.65874">
        <ele>748</ele>
        <time>2018-01-31T12:19:31+01:00</time>
      </trkpt>
      <trkpt lat="44.96563" lon="4.65887">
        <ele>750</ele>
        <time>2018-01-31T12:19:39+01:00</time>
      </trkpt>
      <trkpt lat="44.96563" lon="4.65898">
        <ele>751</ele>
        <time>2018-01-31T12:19:47+01:00</time>
      </trkpt>
      <trkpt lat="44.96565" lon="4.65913">
        <ele>753</ele>
        <time>2018-01-31T12:19:54+01:00</time>
      </trkpt>
      <trkpt lat="44.96567" lon="4.65928">
        <ele>754</ele>
        <time>2018-01-31T12:20:03+01:00</time>
      </trkpt>
      <trkpt lat="44.96566" lon="4.65935">
        <ele>755</ele>
        <time>2018-01-31T12:20:09+01:00</time>
      </trkpt>
      <trkpt lat="44.96569" lon="4.65947">
        <ele>755</ele>
        <time>2018-01-31T12:20:17+01:00</time>
      </trkpt>
      <trkpt lat="44.96568" lon="4.65955">
        <ele>756</ele>
        <time>2018-01-31T12:20:25+01:00</time>
      </trkpt>
      <trkpt lat="44.96566" lon="4.65974">
        <ele>757</ele>
        <time>2018-01-31T12:20:34+01:00</time>
      </trkpt>
      <trkpt lat="44.96564" lon="4.65989">
        <ele>758</ele>
        <time>2018-01-31T12:20:43+01:00</time>
      </trkpt>
      <trkpt lat="44.96566" lon="4.65998">
        <ele>758</ele>
        <time>2018-01-31T12:20:51+01:00</time>
      </trkpt>
      <trkpt lat="44.96567" lon="4.66008">
        <ele>758</ele>
        <time>2018-01-31T12:20:58+01:00</time>
      </trkpt>
      <trkpt lat="44.96567" lon="4.66017">
        <ele>758</ele>
        <time>2018-01-31T12:21:05+01:00</time>
      </trkpt>
      <trkpt lat="44.96568" lon="4.66031">
        <ele>758</ele>
        <time>2018-01-31T12:21:13+01:00</time>
      </trkpt>
      <trkpt lat="44.9657" lon="4.66044">
        <ele>758</ele>
        <time>2018-01-31T12:21:21+01:00</time>
      </trkpt>
      <trkpt lat="44.9657" lon="4.66056">
        <ele>758</ele>
        <time>2018-01-31T12:21:27+01:00</time>
      </trkpt>
      <trkpt lat="44.96572" lon="4.66066">
        <ele>757</ele>
        <time>2018-01-31T12:21:34+01:00</time>
      </trkpt>
      <trkpt lat="44.96573" lon="4.66075">
        <ele>757</ele>
        <time>2018-01-31T12:21:42+01:00</time>
      </trkpt>
      <trkpt lat="44.96574" lon="4.6608">
        <ele>757</ele>
        <time>2018-01-31T12:21:52+01:00</time>
      </trkpt>
      <trkpt lat="44.96574" lon="4.66083">
        <ele>757</ele>
        <time>2018-01-31T12:22:01+01:00</time>
      </trkpt>
      <trkpt lat="44.96575" lon="4.66089">
        <ele>757</ele>
        <time>2018-01-31T12:22:11+01:00</time>
      </trkpt>
      <trkpt lat="44.96575" lon="4.66093">
        <ele>757</ele>
        <time>2018-01-31T12:22:28+01:00</time>
      </trkpt>
      <trkpt lat="44.96575" lon="4.66087">
        <ele>757</ele>
        <time>2018-01-31T12:22:37+01:00</time>
      </trkpt>
      <trkpt lat="44.96573" lon="4.6608">
        <ele>757</ele>
        <time>2018-01-31T12:22:44+01:00</time>
      </trkpt>
      <trkpt lat="44.96571" lon="4.66078">
        <ele>758</ele>
        <time>2018-01-31T12:22:57+01:00</time>
      </trkpt>
      <trkpt lat="44.96567" lon="4.66076">
        <ele>758</ele>
        <time>2018-01-31T12:23:11+01:00</time>
      </trkpt>
      <trkpt lat="44.96566" lon="4.66076">
        <ele>758</ele>
        <time>2018-01-31T12:23:24+01:00</time>
      </trkpt>
      <trkpt lat="44.96567" lon="4.66074">
        <ele>758</ele>
        <time>2018-01-31T12:23:33+01:00</time>
      </trkpt>
      <trkpt lat="44.96567" lon="4.66075">
        <ele>758</ele>
        <time>2018-01-31T12:23:42+01:00</time>
      </trkpt>
      <trkpt lat="44.96566" lon="4.66079">
        <ele>758</ele>
        <time>2018-01-31T12:23:50+01:00</time>
      </trkpt>
      <trkpt lat="44.96566" lon="4.6608">
        <ele>758</ele>
        <time>2018-01-31T12:23:51+01:00</time>
      </trkpt>
      <trkpt lat="44.96566" lon="4.6608">
        <ele>758</ele>
        <time>2018-01-31T12:23:52+01:00</time>
      </trkpt>
      <trkpt lat="44.96566" lon="4.66075">
        <ele>758</ele>
        <time>2018-01-31T12:54:48+01:00</time>
      </trkpt>
      <trkpt lat="44.96573" lon="4.66119">
        <ele>757</ele>
        <time>2018-01-31T12:54:49+01:00</time>
      </trkpt>
      <trkpt lat="44.96575" lon="4.66126">
        <ele>757</ele>
        <time>2018-01-31T12:54:57+01:00</time>
      </trkpt>
      <trkpt lat="44.96574" lon="4.66128">
        <ele>757</ele>
        <time>2018-01-31T12:55:00+01:00</time>
      </trkpt>
      <trkpt lat="44.96576" lon="4.66137">
        <ele>757</ele>
        <time>2018-01-31T12:55:05+01:00</time>
      </trkpt>
      <trkpt lat="44.96577" lon="4.66146">
        <ele>757</ele>
        <time>2018-01-31T12:55:10+01:00</time>
      </trkpt>
      <trkpt lat="44.96579" lon="4.66156">
        <ele>757</ele>
        <time>2018-01-31T12:55:15+01:00</time>
      </trkpt>
      <trkpt lat="44.96583" lon="4.66168">
        <ele>756</ele>
        <time>2018-01-31T12:55:21+01:00</time>
      </trkpt>
      <trkpt lat="44.96586" lon="4.6618">
        <ele>757</ele>
        <time>2018-01-31T12:55:26+01:00</time>
      </trkpt>
      <trkpt lat="44.96587" lon="4.66182">
        <ele>757</ele>
        <time>2018-01-31T12:55:27+01:00</time>
      </trkpt>
      <trkpt lat="44.96588" lon="4.66185">
        <ele>757</ele>
        <time>2018-01-31T12:55:28+01:00</time>
      </trkpt>
      <trkpt lat="44.96589" lon="4.6619">
        <ele>758</ele>
        <time>2018-01-31T12:55:31+01:00</time>
      </trkpt>
      <trkpt lat="44.96592" lon="4.662">
        <ele>758</ele>
        <time>2018-01-31T12:55:38+01:00</time>
      </trkpt>
      <trkpt lat="44.96595" lon="4.66208">
        <ele>759</ele>
        <time>2018-01-31T12:55:43+01:00</time>
      </trkpt>
      <trkpt lat="44.966" lon="4.6622">
        <ele>759</ele>
        <time>2018-01-31T12:55:52+01:00</time>
      </trkpt>
      <trkpt lat="44.96601" lon="4.66226">
        <ele>760</ele>
        <time>2018-01-31T12:56:01+01:00</time>
      </trkpt>
      <trkpt lat="44.96604" lon="4.66227">
        <ele>759</ele>
        <time>2018-01-31T12:56:13+01:00</time>
      </trkpt>
      <trkpt lat="44.96605" lon="4.66234">
        <ele>760</ele>
        <time>2018-01-31T12:56:27+01:00</time>
      </trkpt>
      <trkpt lat="44.96608" lon="4.66248">
        <ele>761</ele>
        <time>2018-01-31T12:56:36+01:00</time>
      </trkpt>
      <trkpt lat="44.96611" lon="4.66256">
        <ele>762</ele>
        <time>2018-01-31T12:56:43+01:00</time>
      </trkpt>
      <trkpt lat="44.96614" lon="4.6627">
        <ele>762</ele>
        <time>2018-01-31T12:56:52+01:00</time>
      </trkpt>
      <trkpt lat="44.96617" lon="4.66278">
        <ele>762</ele>
        <time>2018-01-31T12:56:58+01:00</time>
      </trkpt>
      <trkpt lat="44.96622" lon="4.66287">
        <ele>762</ele>
        <time>2018-01-31T12:57:05+01:00</time>
      </trkpt>
      <trkpt lat="44.96622" lon="4.66296">
        <ele>763</ele>
        <time>2018-01-31T12:57:13+01:00</time>
      </trkpt>
      <trkpt lat="44.96624" lon="4.66305">
        <ele>763</ele>
        <time>2018-01-31T12:57:21+01:00</time>
      </trkpt>
      <trkpt lat="44.96622" lon="4.66318">
        <ele>765</ele>
        <time>2018-01-31T12:57:29+01:00</time>
      </trkpt>
      <trkpt lat="44.96622" lon="4.6633">
        <ele>766</ele>
        <time>2018-01-31T12:57:37+01:00</time>
      </trkpt>
      <trkpt lat="44.96623" lon="4.66338">
        <ele>766</ele>
        <time>2018-01-31T12:57:44+01:00</time>
      </trkpt>
      <trkpt lat="44.96621" lon="4.66348">
        <ele>766</ele>
        <time>2018-01-31T12:57:52+01:00</time>
      </trkpt>
      <trkpt lat="44.96622" lon="4.66357">
        <ele>766</ele>
        <time>2018-01-31T12:58:01+01:00</time>
      </trkpt>
      <trkpt lat="44.96622" lon="4.66365">
        <ele>766</ele>
        <time>2018-01-31T12:58:08+01:00</time>
      </trkpt>
      <trkpt lat="44.96623" lon="4.66375">
        <ele>766</ele>
        <time>2018-01-31T12:58:14+01:00</time>
      </trkpt>
      <trkpt lat="44.9662" lon="4.66395">
        <ele>767</ele>
        <time>2018-01-31T12:58:22+01:00</time>
      </trkpt>
      <trkpt lat="44.96622" lon="4.66411">
        <ele>767</ele>
        <time>2018-01-31T12:58:29+01:00</time>
      </trkpt>
      <trkpt lat="44.96625" lon="4.66419">
        <ele>767</ele>
        <time>2018-01-31T12:58:35+01:00</time>
      </trkpt>
      <trkpt lat="44.96624" lon="4.66424">
        <ele>767</ele>
        <time>2018-01-31T12:58:45+01:00</time>
      </trkpt>
      <trkpt lat="44.96624" lon="4.66428">
        <ele>767</ele>
        <time>2018-01-31T12:58:52+01:00</time>
      </trkpt>
      <trkpt lat="44.96625" lon="4.66434">
        <ele>767</ele>
        <time>2018-01-31T12:58:59+01:00</time>
      </trkpt>
      <trkpt lat="44.96626" lon="4.6644">
        <ele>768</ele>
        <time>2018-01-31T12:59:02+01:00</time>
      </trkpt>
      <trkpt lat="44.96628" lon="4.66451">
        <ele>768</ele>
        <time>2018-01-31T12:59:09+01:00</time>
      </trkpt>
      <trkpt lat="44.96629" lon="4.66453">
        <ele>768</ele>
        <time>2018-01-31T12:59:17+01:00</time>
      </trkpt>
      <trkpt lat="44.96629" lon="4.66458">
        <ele>768</ele>
        <time>2018-01-31T12:59:26+01:00</time>
      </trkpt>
      <trkpt lat="44.96631" lon="4.66467">
        <ele>769</ele>
        <time>2018-01-31T12:59:34+01:00</time>
      </trkpt>
      <trkpt lat="44.96631" lon="4.66485">
        <ele>770</ele>
        <time>2018-01-31T12:59:42+01:00</time>
      </trkpt>
      <trkpt lat="44.96629" lon="4.66499">
        <ele>771</ele>
        <time>2018-01-31T12:59:52+01:00</time>
      </trkpt>
      <trkpt lat="44.96626" lon="4.66507">
        <ele>770</ele>
        <time>2018-01-31T12:59:59+01:00</time>
      </trkpt>
      <trkpt lat="44.96622" lon="4.66519">
        <ele>770</ele>
        <time>2018-01-31T13:00:07+01:00</time>
      </trkpt>
      <trkpt lat="44.96617" lon="4.6653">
        <ele>769</ele>
        <time>2018-01-31T13:00:15+01:00</time>
      </trkpt>
      <trkpt lat="44.96619" lon="4.66543">
        <ele>769</ele>
        <time>2018-01-31T13:00:24+01:00</time>
      </trkpt>
      <trkpt lat="44.9662" lon="4.66545">
        <ele>769</ele>
        <time>2018-01-31T13:00:26+01:00</time>
      </trkpt>
      <trkpt lat="44.96626" lon="4.66556">
        <ele>770</ele>
        <time>2018-01-31T13:00:34+01:00</time>
      </trkpt>
      <trkpt lat="44.96632" lon="4.66562">
        <ele>770</ele>
        <time>2018-01-31T13:00:43+01:00</time>
      </trkpt>
      <trkpt lat="44.96635" lon="4.66564">
        <ele>771</ele>
        <time>2018-01-31T13:00:46+01:00</time>
      </trkpt>
      <trkpt lat="44.96638" lon="4.66567">
        <ele>771</ele>
        <time>2018-01-31T13:00:49+01:00</time>
      </trkpt>
      <trkpt lat="44.96646" lon="4.66573">
        <ele>772</ele>
        <time>2018-01-31T13:00:57+01:00</time>
      </trkpt>
      <trkpt lat="44.96654" lon="4.66579">
        <ele>773</ele>
        <time>2018-01-31T13:01:05+01:00</time>
      </trkpt>
      <trkpt lat="44.96661" lon="4.66586">
        <ele>774</ele>
        <time>2018-01-31T13:01:13+01:00</time>
      </trkpt>
      <trkpt lat="44.96669" lon="4.66594">
        <ele>775</ele>
        <time>2018-01-31T13:01:21+01:00</time>
      </trkpt>
      <trkpt lat="44.96676" lon="4.66601">
        <ele>776</ele>
        <time>2018-01-31T13:01:27+01:00</time>
      </trkpt>
      <trkpt lat="44.96684" lon="4.66608">
        <ele>776</ele>
        <time>2018-01-31T13:01:35+01:00</time>
      </trkpt>
      <trkpt lat="44.9669" lon="4.66613">
        <ele>777</ele>
        <time>2018-01-31T13:01:42+01:00</time>
      </trkpt>
      <trkpt lat="44.96693" lon="4.66615">
        <ele>777</ele>
        <time>2018-01-31T13:01:45+01:00</time>
      </trkpt>
      <trkpt lat="44.967" lon="4.66622">
        <ele>778</ele>
        <time>2018-01-31T13:01:52+01:00</time>
      </trkpt>
      <trkpt lat="44.967" lon="4.66624">
        <ele>778</ele>
        <time>2018-01-31T13:01:53+01:00</time>
      </trkpt>
      <trkpt lat="44.96704" lon="4.66634">
        <ele>779</ele>
        <time>2018-01-31T13:02:00+01:00</time>
      </trkpt>
      <trkpt lat="44.96705" lon="4.66643">
        <ele>779</ele>
        <time>2018-01-31T13:02:07+01:00</time>
      </trkpt>
      <trkpt lat="44.96705" lon="4.66651">
        <ele>780</ele>
        <time>2018-01-31T13:02:13+01:00</time>
      </trkpt>
      <trkpt lat="44.96705" lon="4.66666">
        <ele>781</ele>
        <time>2018-01-31T13:02:23+01:00</time>
      </trkpt>
      <trkpt lat="44.96704" lon="4.66674">
        <ele>782</ele>
        <time>2018-01-31T13:02:31+01:00</time>
      </trkpt>
      <trkpt lat="44.96702" lon="4.66685">
        <ele>783</ele>
        <time>2018-01-31T13:02:40+01:00</time>
      </trkpt>
      <trkpt lat="44.96701" lon="4.66694">
        <ele>785</ele>
        <time>2018-01-31T13:02:47+01:00</time>
      </trkpt>
      <trkpt lat="44.96701" lon="4.66702">
        <ele>786</ele>
        <time>2018-01-31T13:02:54+01:00</time>
      </trkpt>
      <trkpt lat="44.967" lon="4.66712">
        <ele>788</ele>
        <time>2018-01-31T13:03:03+01:00</time>
      </trkpt>
      <trkpt lat="44.96705" lon="4.66721">
        <ele>790</ele>
        <time>2018-01-31T13:03:10+01:00</time>
      </trkpt>
      <trkpt lat="44.96709" lon="4.66731">
        <ele>791</ele>
        <time>2018-01-31T13:03:17+01:00</time>
      </trkpt>
      <trkpt lat="44.96715" lon="4.66739">
        <ele>793</ele>
        <time>2018-01-31T13:03:24+01:00</time>
      </trkpt>
      <trkpt lat="44.96721" lon="4.66746">
        <ele>794</ele>
        <time>2018-01-31T13:03:32+01:00</time>
      </trkpt>
      <trkpt lat="44.9673" lon="4.66755">
        <ele>796</ele>
        <time>2018-01-31T13:03:42+01:00</time>
      </trkpt>
      <trkpt lat="44.96736" lon="4.66762">
        <ele>797</ele>
        <time>2018-01-31T13:03:50+01:00</time>
      </trkpt>
      <trkpt lat="44.96738" lon="4.66767">
        <ele>797</ele>
        <time>2018-01-31T13:03:58+01:00</time>
      </trkpt>
      <trkpt lat="44.9674" lon="4.66767">
        <ele>797</ele>
        <time>2018-01-31T13:04:06+01:00</time>
      </trkpt>
      <trkpt lat="44.96745" lon="4.66774">
        <ele>798</ele>
        <time>2018-01-31T13:04:14+01:00</time>
      </trkpt>
      <trkpt lat="44.96748" lon="4.66783">
        <ele>799</ele>
        <time>2018-01-31T13:04:21+01:00</time>
      </trkpt>
      <trkpt lat="44.96753" lon="4.66792">
        <ele>799</ele>
        <time>2018-01-31T13:04:30+01:00</time>
      </trkpt>
      <trkpt lat="44.96758" lon="4.668">
        <ele>798</ele>
        <time>2018-01-31T13:04:43+01:00</time>
      </trkpt>
      <trkpt lat="44.96759" lon="4.66812">
        <ele>799</ele>
        <time>2018-01-31T13:04:51+01:00</time>
      </trkpt>
      <trkpt lat="44.96759" lon="4.66814">
        <ele>799</ele>
        <time>2018-01-31T13:04:52+01:00</time>
      </trkpt>
      <trkpt lat="44.9676" lon="4.66824">
        <ele>800</ele>
        <time>2018-01-31T13:05:02+01:00</time>
      </trkpt>
      <trkpt lat="44.9676" lon="4.6684">
        <ele>800</ele>
        <time>2018-01-31T13:05:11+01:00</time>
      </trkpt>
      <trkpt lat="44.96757" lon="4.66859">
        <ele>801</ele>
        <time>2018-01-31T13:05:22+01:00</time>
      </trkpt>
      <trkpt lat="44.96755" lon="4.66868">
        <ele>801</ele>
        <time>2018-01-31T13:05:30+01:00</time>
      </trkpt>
      <trkpt lat="44.96754" lon="4.66877">
        <ele>801</ele>
        <time>2018-01-31T13:05:39+01:00</time>
      </trkpt>
      <trkpt lat="44.96753" lon="4.66879">
        <ele>801</ele>
        <time>2018-01-31T13:05:41+01:00</time>
      </trkpt>
      <trkpt lat="44.96748" lon="4.66895">
        <ele>802</ele>
        <time>2018-01-31T13:05:51+01:00</time>
      </trkpt>
      <trkpt lat="44.96742" lon="4.66912">
        <ele>802</ele>
        <time>2018-01-31T13:06:00+01:00</time>
      </trkpt>
      <trkpt lat="44.96741" lon="4.6693">
        <ele>801</ele>
        <time>2018-01-31T13:06:10+01:00</time>
      </trkpt>
      <trkpt lat="44.96738" lon="4.66942">
        <ele>800</ele>
        <time>2018-01-31T13:06:20+01:00</time>
      </trkpt>
      <trkpt lat="44.9673" lon="4.66958">
        <ele>799</ele>
        <time>2018-01-31T13:06:30+01:00</time>
      </trkpt>
      <trkpt lat="44.96719" lon="4.66976">
        <ele>799</ele>
        <time>2018-01-31T13:06:41+01:00</time>
      </trkpt>
      <trkpt lat="44.96713" lon="4.6699">
        <ele>799</ele>
        <time>2018-01-31T13:06:51+01:00</time>
      </trkpt>
      <trkpt lat="44.96704" lon="4.67">
        <ele>799</ele>
        <time>2018-01-31T13:07:01+01:00</time>
      </trkpt>
      <trkpt lat="44.96702" lon="4.67002">
        <ele>799</ele>
        <time>2018-01-31T13:07:03+01:00</time>
      </trkpt>
      <trkpt lat="44.96696" lon="4.67011">
        <ele>799</ele>
        <time>2018-01-31T13:07:12+01:00</time>
      </trkpt>
      <trkpt lat="44.96688" lon="4.67021">
        <ele>799</ele>
        <time>2018-01-31T13:07:21+01:00</time>
      </trkpt>
      <trkpt lat="44.96677" lon="4.67033">
        <ele>800</ele>
        <time>2018-01-31T13:07:29+01:00</time>
      </trkpt>
      <trkpt lat="44.96675" lon="4.67036">
        <ele>800</ele>
        <time>2018-01-31T13:07:35+01:00</time>
      </trkpt>
      <trkpt lat="44.9667" lon="4.67047">
        <ele>799</ele>
        <time>2018-01-31T13:07:43+01:00</time>
      </trkpt>
      <trkpt lat="44.96669" lon="4.6705">
        <ele>799</ele>
        <time>2018-01-31T13:07:45+01:00</time>
      </trkpt>
      <trkpt lat="44.96665" lon="4.67064">
        <ele>798</ele>
        <time>2018-01-31T13:07:54+01:00</time>
      </trkpt>
      <trkpt lat="44.96664" lon="4.6707">
        <ele>798</ele>
        <time>2018-01-31T13:08:00+01:00</time>
      </trkpt>
      <trkpt lat="44.96658" lon="4.67081">
        <ele>798</ele>
        <time>2018-01-31T13:08:08+01:00</time>
      </trkpt>
      <trkpt lat="44.96654" lon="4.67088">
        <ele>797</ele>
        <time>2018-01-31T13:08:15+01:00</time>
      </trkpt>
      <trkpt lat="44.96651" lon="4.67098">
        <ele>796</ele>
        <time>2018-01-31T13:08:24+01:00</time>
      </trkpt>
      <trkpt lat="44.96643" lon="4.67109">
        <ele>796</ele>
        <time>2018-01-31T13:08:33+01:00</time>
      </trkpt>
      <trkpt lat="44.96641" lon="4.67114">
        <ele>795</ele>
        <time>2018-01-31T13:08:40+01:00</time>
      </trkpt>
      <trkpt lat="44.96632" lon="4.6712">
        <ele>796</ele>
        <time>2018-01-31T13:08:48+01:00</time>
      </trkpt>
      <trkpt lat="44.96627" lon="4.67128">
        <ele>796</ele>
        <time>2018-01-31T13:08:55+01:00</time>
      </trkpt>
      <trkpt lat="44.9662" lon="4.67139">
        <ele>796</ele>
        <time>2018-01-31T13:09:04+01:00</time>
      </trkpt>
      <trkpt lat="44.96616" lon="4.67144">
        <ele>796</ele>
        <time>2018-01-31T13:09:09+01:00</time>
      </trkpt>
      <trkpt lat="44.9661" lon="4.67156">
        <ele>795</ele>
        <time>2018-01-31T13:09:18+01:00</time>
      </trkpt>
      <trkpt lat="44.96605" lon="4.67163">
        <ele>795</ele>
        <time>2018-01-31T13:09:25+01:00</time>
      </trkpt>
      <trkpt lat="44.966" lon="4.67169">
        <ele>796</ele>
        <time>2018-01-31T13:09:32+01:00</time>
      </trkpt>
      <trkpt lat="44.96599" lon="4.67182">
        <ele>795</ele>
        <time>2018-01-31T13:09:41+01:00</time>
      </trkpt>
      <trkpt lat="44.96595" lon="4.67193">
        <ele>795</ele>
        <time>2018-01-31T13:09:49+01:00</time>
      </trkpt>
      <trkpt lat="44.96595" lon="4.67195">
        <ele>795</ele>
        <time>2018-01-31T13:09:50+01:00</time>
      </trkpt>
      <trkpt lat="44.96592" lon="4.67205">
        <ele>795</ele>
        <time>2018-01-31T13:09:55+01:00</time>
      </trkpt>
      <trkpt lat="44.96591" lon="4.6721">
        <ele>795</ele>
        <time>2018-01-31T13:09:57+01:00</time>
      </trkpt>
      <trkpt lat="44.9659" lon="4.67213">
        <ele>795</ele>
        <time>2018-01-31T13:09:59+01:00</time>
      </trkpt>
      <trkpt lat="44.96592" lon="4.67221">
        <ele>794</ele>
        <time>2018-01-31T13:10:03+01:00</time>
      </trkpt>
      <trkpt lat="44.96591" lon="4.67226">
        <ele>794</ele>
        <time>2018-01-31T13:10:07+01:00</time>
      </trkpt>
      <trkpt lat="44.96587" lon="4.67237">
        <ele>794</ele>
        <time>2018-01-31T13:10:15+01:00</time>
      </trkpt>
      <trkpt lat="44.96587" lon="4.67238">
        <ele>794</ele>
        <time>2018-01-31T13:10:16+01:00</time>
      </trkpt>
      <trkpt lat="44.96585" lon="4.67247">
        <ele>794</ele>
        <time>2018-01-31T13:10:22+01:00</time>
      </trkpt>
      <trkpt lat="44.96578" lon="4.67258">
        <ele>793</ele>
        <time>2018-01-31T13:10:30+01:00</time>
      </trkpt>
      <trkpt lat="44.96577" lon="4.67261">
        <ele>793</ele>
        <time>2018-01-31T13:10:35+01:00</time>
      </trkpt>
      <trkpt lat="44.96578" lon="4.67263">
        <ele>793</ele>
        <time>2018-01-31T13:10:44+01:00</time>
      </trkpt>
      <trkpt lat="44.96575" lon="4.67268">
        <ele>792</ele>
        <time>2018-01-31T13:10:56+01:00</time>
      </trkpt>
      <trkpt lat="44.96566" lon="4.67278">
        <ele>791</ele>
        <time>2018-01-31T13:11:06+01:00</time>
      </trkpt>
      <trkpt lat="44.96562" lon="4.67282">
        <ele>791</ele>
        <time>2018-01-31T13:11:13+01:00</time>
      </trkpt>
      <trkpt lat="44.96556" lon="4.67287">
        <ele>791</ele>
        <time>2018-01-31T13:11:20+01:00</time>
      </trkpt>
      <trkpt lat="44.96547" lon="4.67295">
        <ele>790</ele>
        <time>2018-01-31T13:11:29+01:00</time>
      </trkpt>
      <trkpt lat="44.96537" lon="4.67303">
        <ele>789</ele>
        <time>2018-01-31T13:11:38+01:00</time>
      </trkpt>
      <trkpt lat="44.96535" lon="4.67307">
        <ele>788</ele>
        <time>2018-01-31T13:11:44+01:00</time>
      </trkpt>
      <trkpt lat="44.96531" lon="4.67317">
        <ele>786</ele>
        <time>2018-01-31T13:11:51+01:00</time>
      </trkpt>
      <trkpt lat="44.96531" lon="4.67319">
        <ele>786</ele>
        <time>2018-01-31T13:11:52+01:00</time>
      </trkpt>
      <trkpt lat="44.96536" lon="4.67327">
        <ele>785</ele>
        <time>2018-01-31T13:11:57+01:00</time>
      </trkpt>
      <trkpt lat="44.96539" lon="4.67325">
        <ele>785</ele>
        <time>2018-01-31T13:12:04+01:00</time>
      </trkpt>
      <trkpt lat="44.96545" lon="4.67329">
        <ele>784</ele>
        <time>2018-01-31T13:12:11+01:00</time>
      </trkpt>
      <trkpt lat="44.96553" lon="4.67333">
        <ele>783</ele>
        <time>2018-01-31T13:12:19+01:00</time>
      </trkpt>
      <trkpt lat="44.96561" lon="4.67336">
        <ele>783</ele>
        <time>2018-01-31T13:12:26+01:00</time>
      </trkpt>
      <trkpt lat="44.96574" lon="4.67338">
        <ele>783</ele>
        <time>2018-01-31T13:12:35+01:00</time>
      </trkpt>
      <trkpt lat="44.96579" lon="4.67339">
        <ele>783</ele>
        <time>2018-01-31T13:12:39+01:00</time>
      </trkpt>
      <trkpt lat="44.96586" lon="4.67337">
        <ele>783</ele>
        <time>2018-01-31T13:12:46+01:00</time>
      </trkpt>
      <trkpt lat="44.96593" lon="4.67338">
        <ele>782</ele>
        <time>2018-01-31T13:12:54+01:00</time>
      </trkpt>
      <trkpt lat="44.96602" lon="4.67338">
        <ele>781</ele>
        <time>2018-01-31T13:13:03+01:00</time>
      </trkpt>
      <trkpt lat="44.96611" lon="4.67338">
        <ele>779</ele>
        <time>2018-01-31T13:13:10+01:00</time>
      </trkpt>
      <trkpt lat="44.96621" lon="4.67337">
        <ele>778</ele>
        <time>2018-01-31T13:13:19+01:00</time>
      </trkpt>
      <trkpt lat="44.96627" lon="4.67335">
        <ele>778</ele>
        <time>2018-01-31T13:13:26+01:00</time>
      </trkpt>
      <trkpt lat="44.96636" lon="4.6733">
        <ele>777</ele>
        <time>2018-01-31T13:13:55+01:00</time>
      </trkpt>
      <trkpt lat="44.96641" lon="4.67331">
        <ele>776</ele>
        <time>2018-01-31T13:14:03+01:00</time>
      </trkpt>
      <trkpt lat="44.96649" lon="4.67335">
        <ele>775</ele>
        <time>2018-01-31T13:14:11+01:00</time>
      </trkpt>
      <trkpt lat="44.96656" lon="4.67339">
        <ele>774</ele>
        <time>2018-01-31T13:14:18+01:00</time>
      </trkpt>
      <trkpt lat="44.96668" lon="4.67352">
        <ele>772</ele>
        <time>2018-01-31T13:14:31+01:00</time>
      </trkpt>
      <trkpt lat="44.96676" lon="4.67365">
        <ele>770</ele>
        <time>2018-01-31T13:14:40+01:00</time>
      </trkpt>
      <trkpt lat="44.96681" lon="4.67379">
        <ele>769</ele>
        <time>2018-01-31T13:14:49+01:00</time>
      </trkpt>
      <trkpt lat="44.96688" lon="4.67394">
        <ele>767</ele>
        <time>2018-01-31T13:14:59+01:00</time>
      </trkpt>
      <trkpt lat="44.96691" lon="4.67402">
        <ele>767</ele>
        <time>2018-01-31T13:15:07+01:00</time>
      </trkpt>
      <trkpt lat="44.96698" lon="4.67415">
        <ele>765</ele>
        <time>2018-01-31T13:15:16+01:00</time>
      </trkpt>
      <trkpt lat="44.96705" lon="4.67432">
        <ele>764</ele>
        <time>2018-01-31T13:15:26+01:00</time>
      </trkpt>
      <trkpt lat="44.96711" lon="4.67445">
        <ele>763</ele>
        <time>2018-01-31T13:15:34+01:00</time>
      </trkpt>
      <trkpt lat="44.96718" lon="4.67461">
        <ele>762</ele>
        <time>2018-01-31T13:15:44+01:00</time>
      </trkpt>
      <trkpt lat="44.96727" lon="4.67475">
        <ele>760</ele>
        <time>2018-01-31T13:15:53+01:00</time>
      </trkpt>
      <trkpt lat="44.96732" lon="4.67485">
        <ele>759</ele>
        <time>2018-01-31T13:16:01+01:00</time>
      </trkpt>
      <trkpt lat="44.9674" lon="4.67497">
        <ele>758</ele>
        <time>2018-01-31T13:16:10+01:00</time>
      </trkpt>
      <trkpt lat="44.96748" lon="4.67505">
        <ele>758</ele>
        <time>2018-01-31T13:16:18+01:00</time>
      </trkpt>
      <trkpt lat="44.96756" lon="4.67515">
        <ele>756</ele>
        <time>2018-01-31T13:16:27+01:00</time>
      </trkpt>
      <trkpt lat="44.96765" lon="4.67525">
        <ele>755</ele>
        <time>2018-01-31T13:16:36+01:00</time>
      </trkpt>
      <trkpt lat="44.96775" lon="4.67534">
        <ele>754</ele>
        <time>2018-01-31T13:16:44+01:00</time>
      </trkpt>
      <trkpt lat="44.96783" lon="4.6754">
        <ele>752</ele>
        <time>2018-01-31T13:16:53+01:00</time>
      </trkpt>
      <trkpt lat="44.96791" lon="4.67548">
        <ele>751</ele>
        <time>2018-01-31T13:17:02+01:00</time>
      </trkpt>
      <trkpt lat="44.96802" lon="4.6756">
        <ele>750</ele>
        <time>2018-01-31T13:17:10+01:00</time>
      </trkpt>
      <trkpt lat="44.96812" lon="4.67569">
        <ele>749</ele>
        <time>2018-01-31T13:17:19+01:00</time>
      </trkpt>
      <trkpt lat="44.9682" lon="4.67576">
        <ele>748</ele>
        <time>2018-01-31T13:17:27+01:00</time>
      </trkpt>
      <trkpt lat="44.96829" lon="4.67583">
        <ele>747</ele>
        <time>2018-01-31T13:17:36+01:00</time>
      </trkpt>
      <trkpt lat="44.9684" lon="4.6759">
        <ele>745</ele>
        <time>2018-01-31T13:17:45+01:00</time>
      </trkpt>
      <trkpt lat="44.96845" lon="4.67595">
        <ele>743</ele>
        <time>2018-01-31T13:17:50+01:00</time>
      </trkpt>
      <trkpt lat="44.96858" lon="4.67602">
        <ele>741</ele>
        <time>2018-01-31T13:18:00+01:00</time>
      </trkpt>
      <trkpt lat="44.96859" lon="4.67603">
        <ele>741</ele>
        <time>2018-01-31T13:18:01+01:00</time>
      </trkpt>
      <trkpt lat="44.96866" lon="4.67608">
        <ele>739</ele>
        <time>2018-01-31T13:18:08+01:00</time>
      </trkpt>
      <trkpt lat="44.96871" lon="4.67611">
        <ele>738</ele>
        <time>2018-01-31T13:18:14+01:00</time>
      </trkpt>
      <trkpt lat="44.9688" lon="4.67615">
        <ele>737</ele>
        <time>2018-01-31T13:18:22+01:00</time>
      </trkpt>
      <trkpt lat="44.96889" lon="4.67621">
        <ele>735</ele>
        <time>2018-01-31T13:18:30+01:00</time>
      </trkpt>
      <trkpt lat="44.96895" lon="4.67626">
        <ele>735</ele>
        <time>2018-01-31T13:18:40+01:00</time>
      </trkpt>
      <trkpt lat="44.96904" lon="4.67632">
        <ele>734</ele>
        <time>2018-01-31T13:18:48+01:00</time>
      </trkpt>
      <trkpt lat="44.96911" lon="4.67638">
        <ele>733</ele>
        <time>2018-01-31T13:18:56+01:00</time>
      </trkpt>
      <trkpt lat="44.96915" lon="4.67642">
        <ele>733</ele>
        <time>2018-01-31T13:19:04+01:00</time>
      </trkpt>
      <trkpt lat="44.96922" lon="4.67651">
        <ele>732</ele>
        <time>2018-01-31T13:19:13+01:00</time>
      </trkpt>
      <trkpt lat="44.96924" lon="4.67654">
        <ele>732</ele>
        <time>2018-01-31T13:19:16+01:00</time>
      </trkpt>
      <trkpt lat="44.96932" lon="4.67658">
        <ele>731</ele>
        <time>2018-01-31T13:19:25+01:00</time>
      </trkpt>
      <trkpt lat="44.96944" lon="4.6766">
        <ele>729</ele>
        <time>2018-01-31T13:19:35+01:00</time>
      </trkpt>
      <trkpt lat="44.96956" lon="4.67662">
        <ele>728</ele>
        <time>2018-01-31T13:19:44+01:00</time>
      </trkpt>
      <trkpt lat="44.96969" lon="4.6766">
        <ele>725</ele>
        <time>2018-01-31T13:19:54+01:00</time>
      </trkpt>
      <trkpt lat="44.96978" lon="4.67659">
        <ele>724</ele>
        <time>2018-01-31T13:20:02+01:00</time>
      </trkpt>
      <trkpt lat="44.96989" lon="4.67659">
        <ele>722</ele>
        <time>2018-01-31T13:20:11+01:00</time>
      </trkpt>
      <trkpt lat="44.96996" lon="4.67659">
        <ele>721</ele>
        <time>2018-01-31T13:20:18+01:00</time>
      </trkpt>
      <trkpt lat="44.97008" lon="4.67659">
        <ele>720</ele>
        <time>2018-01-31T13:20:27+01:00</time>
      </trkpt>
      <trkpt lat="44.97017" lon="4.67656">
        <ele>718</ele>
        <time>2018-01-31T13:20:35+01:00</time>
      </trkpt>
      <trkpt lat="44.97027" lon="4.67651">
        <ele>717</ele>
        <time>2018-01-31T13:20:44+01:00</time>
      </trkpt>
      <trkpt lat="44.9704" lon="4.67645">
        <ele>715</ele>
        <time>2018-01-31T13:20:55+01:00</time>
      </trkpt>
      <trkpt lat="44.97052" lon="4.67642">
        <ele>713</ele>
        <time>2018-01-31T13:21:04+01:00</time>
      </trkpt>
      <trkpt lat="44.97063" lon="4.67642">
        <ele>712</ele>
        <time>2018-01-31T13:21:13+01:00</time>
      </trkpt>
      <trkpt lat="44.97075" lon="4.67642">
        <ele>711</ele>
        <time>2018-01-31T13:21:23+01:00</time>
      </trkpt>
      <trkpt lat="44.97086" lon="4.67643">
        <ele>710</ele>
        <time>2018-01-31T13:21:32+01:00</time>
      </trkpt>
      <trkpt lat="44.97099" lon="4.67647">
        <ele>709</ele>
        <time>2018-01-31T13:21:41+01:00</time>
      </trkpt>
      <trkpt lat="44.9711" lon="4.67652">
        <ele>709</ele>
        <time>2018-01-31T13:21:50+01:00</time>
      </trkpt>
      <trkpt lat="44.97119" lon="4.67658">
        <ele>708</ele>
        <time>2018-01-31T13:21:58+01:00</time>
      </trkpt>
      <trkpt lat="44.97129" lon="4.67665">
        <ele>708</ele>
        <time>2018-01-31T13:22:08+01:00</time>
      </trkpt>
      <trkpt lat="44.97137" lon="4.67671">
        <ele>707</ele>
        <time>2018-01-31T13:23:13+01:00</time>
      </trkpt>
      <trkpt lat="44.97145" lon="4.67677">
        <ele>706</ele>
        <time>2018-01-31T13:23:22+01:00</time>
      </trkpt>
      <trkpt lat="44.9716" lon="4.67688">
        <ele>705</ele>
        <time>2018-01-31T13:23:34+01:00</time>
      </trkpt>
      <trkpt lat="44.9717" lon="4.67694">
        <ele>704</ele>
        <time>2018-01-31T13:23:41+01:00</time>
      </trkpt>
      <trkpt lat="44.97185" lon="4.67703">
        <ele>703</ele>
        <time>2018-01-31T13:23:53+01:00</time>
      </trkpt>
      <trkpt lat="44.97198" lon="4.67709">
        <ele>702</ele>
        <time>2018-01-31T13:24:03+01:00</time>
      </trkpt>
      <trkpt lat="44.97211" lon="4.67715">
        <ele>701</ele>
        <time>2018-01-31T13:24:13+01:00</time>
      </trkpt>
      <trkpt lat="44.9722" lon="4.67718">
        <ele>701</ele>
        <time>2018-01-31T13:24:20+01:00</time>
      </trkpt>
      <trkpt lat="44.9723" lon="4.67723">
        <ele>701</ele>
        <time>2018-01-31T13:24:28+01:00</time>
      </trkpt>
      <trkpt lat="44.97239" lon="4.67726">
        <ele>700</ele>
        <time>2018-01-31T13:24:35+01:00</time>
      </trkpt>
      <trkpt lat="44.97249" lon="4.67733">
        <ele>700</ele>
        <time>2018-01-31T13:24:44+01:00</time>
      </trkpt>
      <trkpt lat="44.97261" lon="4.67739">
        <ele>700</ele>
        <time>2018-01-31T13:24:53+01:00</time>
      </trkpt>
      <trkpt lat="44.9727" lon="4.67744">
        <ele>700</ele>
        <time>2018-01-31T13:25:01+01:00</time>
      </trkpt>
      <trkpt lat="44.97281" lon="4.67749">
        <ele>700</ele>
        <time>2018-01-31T13:25:10+01:00</time>
      </trkpt>
      <trkpt lat="44.97295" lon="4.67754">
        <ele>699</ele>
        <time>2018-01-31T13:25:21+01:00</time>
      </trkpt>
      <trkpt lat="44.97305" lon="4.67758">
        <ele>698</ele>
        <time>2018-01-31T13:25:30+01:00</time>
      </trkpt>
      <trkpt lat="44.97314" lon="4.67759">
        <ele>698</ele>
        <time>2018-01-31T13:25:37+01:00</time>
      </trkpt>
      <trkpt lat="44.97325" lon="4.6776">
        <ele>697</ele>
        <time>2018-01-31T13:25:45+01:00</time>
      </trkpt>
      <trkpt lat="44.97336" lon="4.67762">
        <ele>696</ele>
        <time>2018-01-31T13:25:54+01:00</time>
      </trkpt>
      <trkpt lat="44.97347" lon="4.67764">
        <ele>695</ele>
        <time>2018-01-31T13:26:02+01:00</time>
      </trkpt>
      <trkpt lat="44.97356" lon="4.67766">
        <ele>694</ele>
        <time>2018-01-31T13:26:10+01:00</time>
      </trkpt>
      <trkpt lat="44.97363" lon="4.67768">
        <ele>693</ele>
        <time>2018-01-31T13:26:18+01:00</time>
      </trkpt>
      <trkpt lat="44.97374" lon="4.67771">
        <ele>692</ele>
        <time>2018-01-31T13:26:26+01:00</time>
      </trkpt>
      <trkpt lat="44.9738" lon="4.67772">
        <ele>691</ele>
        <time>2018-01-31T13:26:32+01:00</time>
      </trkpt>
      <trkpt lat="44.97389" lon="4.67775">
        <ele>690</ele>
        <time>2018-01-31T13:26:40+01:00</time>
      </trkpt>
      <trkpt lat="44.97391" lon="4.67775">
        <ele>690</ele>
        <time>2018-01-31T13:26:42+01:00</time>
      </trkpt>
      <trkpt lat="44.97403" lon="4.6778">
        <ele>689</ele>
        <time>2018-01-31T13:26:51+01:00</time>
      </trkpt>
      <trkpt lat="44.97416" lon="4.67786">
        <ele>687</ele>
        <time>2018-01-31T13:27:01+01:00</time>
      </trkpt>
      <trkpt lat="44.97423" lon="4.67784">
        <ele>686</ele>
        <time>2018-01-31T13:27:09+01:00</time>
      </trkpt>
      <trkpt lat="44.97432" lon="4.67787">
        <ele>686</ele>
        <time>2018-01-31T13:27:20+01:00</time>
      </trkpt>
      <trkpt lat="44.9744" lon="4.67797">
        <ele>685</ele>
        <time>2018-01-31T13:27:27+01:00</time>
      </trkpt>
      <trkpt lat="44.97449" lon="4.67811">
        <ele>685</ele>
        <time>2018-01-31T13:27:36+01:00</time>
      </trkpt>
      <trkpt lat="44.97458" lon="4.67822">
        <ele>684</ele>
        <time>2018-01-31T13:27:44+01:00</time>
      </trkpt>
      <trkpt lat="44.97467" lon="4.6783">
        <ele>684</ele>
        <time>2018-01-31T13:27:53+01:00</time>
      </trkpt>
      <trkpt lat="44.97473" lon="4.67836">
        <ele>683</ele>
        <time>2018-01-31T13:28:00+01:00</time>
      </trkpt>
      <trkpt lat="44.97479" lon="4.67838">
        <ele>682</ele>
        <time>2018-01-31T13:28:05+01:00</time>
      </trkpt>
      <trkpt lat="44.97481" lon="4.67839">
        <ele>682</ele>
        <time>2018-01-31T13:28:07+01:00</time>
      </trkpt>
      <trkpt lat="44.97489" lon="4.6784">
        <ele>681</ele>
        <time>2018-01-31T13:28:14+01:00</time>
      </trkpt>
      <trkpt lat="44.9749" lon="4.6784">
        <ele>681</ele>
        <time>2018-01-31T13:28:16+01:00</time>
      </trkpt>
      <trkpt lat="44.975" lon="4.67844">
        <ele>680</ele>
        <time>2018-01-31T13:28:24+01:00</time>
      </trkpt>
      <trkpt lat="44.97509" lon="4.67847">
        <ele>679</ele>
        <time>2018-01-31T13:28:31+01:00</time>
      </trkpt>
      <trkpt lat="44.97519" lon="4.67847">
        <ele>679</ele>
        <time>2018-01-31T13:28:39+01:00</time>
      </trkpt>
      <trkpt lat="44.97531" lon="4.67851">
        <ele>678</ele>
        <time>2018-01-31T13:28:49+01:00</time>
      </trkpt>
      <trkpt lat="44.97543" lon="4.67853">
        <ele>677</ele>
        <time>2018-01-31T13:28:58+01:00</time>
      </trkpt>
      <trkpt lat="44.97553" lon="4.67855">
        <ele>676</ele>
        <time>2018-01-31T13:29:07+01:00</time>
      </trkpt>
      <trkpt lat="44.9756" lon="4.67857">
        <ele>676</ele>
        <time>2018-01-31T13:29:15+01:00</time>
      </trkpt>
      <trkpt lat="44.9757" lon="4.67859">
        <ele>675</ele>
        <time>2018-01-31T13:29:21+01:00</time>
      </trkpt>
      <trkpt lat="44.97584" lon="4.67859">
        <ele>674</ele>
        <time>2018-01-31T13:29:30+01:00</time>
      </trkpt>
      <trkpt lat="44.97588" lon="4.67858">
        <ele>674</ele>
        <time>2018-01-31T13:29:38+01:00</time>
      </trkpt>
      <trkpt lat="44.97591" lon="4.67859">
        <ele>673</ele>
        <time>2018-01-31T13:29:47+01:00</time>
      </trkpt>
      <trkpt lat="44.97602" lon="4.67862">
        <ele>672</ele>
        <time>2018-01-31T13:29:55+01:00</time>
      </trkpt>
      <trkpt lat="44.97604" lon="4.67862">
        <ele>671</ele>
        <time>2018-01-31T13:29:57+01:00</time>
      </trkpt>
      <trkpt lat="44.97612" lon="4.67863">
        <ele>670</ele>
        <time>2018-01-31T13:30:04+01:00</time>
      </trkpt>
      <trkpt lat="44.97612" lon="4.67859">
        <ele>671</ele>
        <time>2018-01-31T13:30:12+01:00</time>
      </trkpt>
      <trkpt lat="44.97617" lon="4.67861">
        <ele>670</ele>
        <time>2018-01-31T13:30:20+01:00</time>
      </trkpt>
      <trkpt lat="44.97622" lon="4.67862">
        <ele>669</ele>
        <time>2018-01-31T13:30:26+01:00</time>
      </trkpt>
      <trkpt lat="44.97629" lon="4.67867">
        <ele>668</ele>
        <time>2018-01-31T13:30:33+01:00</time>
      </trkpt>
      <trkpt lat="44.97636" lon="4.67865">
        <ele>667</ele>
        <time>2018-01-31T13:30:41+01:00</time>
      </trkpt>
      <trkpt lat="44.97645" lon="4.67863">
        <ele>666</ele>
        <time>2018-01-31T13:30:49+01:00</time>
      </trkpt>
      <trkpt lat="44.97651" lon="4.6786">
        <ele>666</ele>
        <time>2018-01-31T13:30:56+01:00</time>
      </trkpt>
      <trkpt lat="44.97658" lon="4.67861">
        <ele>665</ele>
        <time>2018-01-31T13:31:04+01:00</time>
      </trkpt>
      <trkpt lat="44.97665" lon="4.67864">
        <ele>664</ele>
        <time>2018-01-31T13:31:13+01:00</time>
      </trkpt>
      <trkpt lat="44.97675" lon="4.67873">
        <ele>661</ele>
        <time>2018-01-31T13:31:24+01:00</time>
      </trkpt>
      <trkpt lat="44.97679" lon="4.67884">
        <ele>660</ele>
        <time>2018-01-31T13:31:33+01:00</time>
      </trkpt>
      <trkpt lat="44.97683" lon="4.67894">
        <ele>658</ele>
        <time>2018-01-31T13:31:42+01:00</time>
      </trkpt>
      <trkpt lat="44.97684" lon="4.67895">
        <ele>658</ele>
        <time>2018-01-31T13:31:44+01:00</time>
      </trkpt>
      <trkpt lat="44.9769" lon="4.67904">
        <ele>656</ele>
        <time>2018-01-31T13:31:54+01:00</time>
      </trkpt>
      <trkpt lat="44.97698" lon="4.67917">
        <ele>654</ele>
        <time>2018-01-31T13:32:03+01:00</time>
      </trkpt>
      <trkpt lat="44.97702" lon="4.67919">
        <ele>653</ele>
        <time>2018-01-31T13:32:09+01:00</time>
      </trkpt>
      <trkpt lat="44.97708" lon="4.67925">
        <ele>650</ele>
        <time>2018-01-31T13:32:17+01:00</time>
      </trkpt>
      <trkpt lat="44.97716" lon="4.67933">
        <ele>648</ele>
        <time>2018-01-31T13:32:26+01:00</time>
      </trkpt>
      <trkpt lat="44.97722" lon="4.67941">
        <ele>645</ele>
        <time>2018-01-31T13:32:34+01:00</time>
      </trkpt>
      <trkpt lat="44.97728" lon="4.67953">
        <ele>643</ele>
        <time>2018-01-31T13:32:42+01:00</time>
      </trkpt>
      <trkpt lat="44.97734" lon="4.67963">
        <ele>641</ele>
        <time>2018-01-31T13:32:50+01:00</time>
      </trkpt>
      <trkpt lat="44.97742" lon="4.67966">
        <ele>640</ele>
        <time>2018-01-31T13:32:58+01:00</time>
      </trkpt>
      <trkpt lat="44.97746" lon="4.6797">
        <ele>639</ele>
        <time>2018-01-31T13:33:06+01:00</time>
      </trkpt>
      <trkpt lat="44.97756" lon="4.67958">
        <ele>637</ele>
        <time>2018-01-31T13:33:15+01:00</time>
      </trkpt>
      <trkpt lat="44.97764" lon="4.67944">
        <ele>635</ele>
        <time>2018-01-31T13:33:24+01:00</time>
      </trkpt>
      <trkpt lat="44.97768" lon="4.67933">
        <ele>635</ele>
        <time>2018-01-31T13:33:32+01:00</time>
      </trkpt>
      <trkpt lat="44.97772" lon="4.67921">
        <ele>634</ele>
        <time>2018-01-31T13:33:41+01:00</time>
      </trkpt>
      <trkpt lat="44.97776" lon="4.67913">
        <ele>633</ele>
        <time>2018-01-31T13:33:47+01:00</time>
      </trkpt>
      <trkpt lat="44.9778" lon="4.67902">
        <ele>632</ele>
        <time>2018-01-31T13:33:57+01:00</time>
      </trkpt>
      <trkpt lat="44.97784" lon="4.67893">
        <ele>631</ele>
        <time>2018-01-31T13:34:05+01:00</time>
      </trkpt>
      <trkpt lat="44.97789" lon="4.67879">
        <ele>629</ele>
        <time>2018-01-31T13:34:13+01:00</time>
      </trkpt>
      <trkpt lat="44.97794" lon="4.67868">
        <ele>628</ele>
        <time>2018-01-31T13:34:21+01:00</time>
      </trkpt>
      <trkpt lat="44.978" lon="4.67858">
        <ele>626</ele>
        <time>2018-01-31T13:34:30+01:00</time>
      </trkpt>
      <trkpt lat="44.97805" lon="4.67846">
        <ele>625</ele>
        <time>2018-01-31T13:34:40+01:00</time>
      </trkpt>
      <trkpt lat="44.97809" lon="4.67839">
        <ele>623</ele>
        <time>2018-01-31T13:34:47+01:00</time>
      </trkpt>
      <trkpt lat="44.97817" lon="4.67844">
        <ele>621</ele>
        <time>2018-01-31T13:35:18+01:00</time>
      </trkpt>
      <trkpt lat="44.97824" lon="4.67851">
        <ele>619</ele>
        <time>2018-01-31T13:35:46+01:00</time>
      </trkpt>
      <trkpt lat="44.97831" lon="4.6787">
        <ele>616</ele>
        <time>2018-01-31T13:35:54+01:00</time>
      </trkpt>
      <trkpt lat="44.97833" lon="4.67883">
        <ele>615</ele>
        <time>2018-01-31T13:36:02+01:00</time>
      </trkpt>
      <trkpt lat="44.97834" lon="4.67885">
        <ele>614</ele>
        <time>2018-01-31T13:36:11+01:00</time>
      </trkpt>
      <trkpt lat="44.97835" lon="4.67891">
        <ele>614</ele>
        <time>2018-01-31T13:36:19+01:00</time>
      </trkpt>
      <trkpt lat="44.97833" lon="4.67901">
        <ele>615</ele>
        <time>2018-01-31T13:36:27+01:00</time>
      </trkpt>
      <trkpt lat="44.97831" lon="4.67916">
        <ele>615</ele>
        <time>2018-01-31T13:36:37+01:00</time>
      </trkpt>
      <trkpt lat="44.97835" lon="4.67926">
        <ele>613</ele>
        <time>2018-01-31T13:36:46+01:00</time>
      </trkpt>
      <trkpt lat="44.97844" lon="4.67928">
        <ele>609</ele>
        <time>2018-01-31T13:36:54+01:00</time>
      </trkpt>
      <trkpt lat="44.97853" lon="4.67931">
        <ele>606</ele>
        <time>2018-01-31T13:37:03+01:00</time>
      </trkpt>
      <trkpt lat="44.97858" lon="4.67931">
        <ele>604</ele>
        <time>2018-01-31T13:37:08+01:00</time>
      </trkpt>
      <trkpt lat="44.97868" lon="4.67929">
        <ele>601</ele>
        <time>2018-01-31T13:37:18+01:00</time>
      </trkpt>
      <trkpt lat="44.97876" lon="4.67927">
        <ele>598</ele>
        <time>2018-01-31T13:37:26+01:00</time>
      </trkpt>
      <trkpt lat="44.97884" lon="4.67922">
        <ele>596</ele>
        <time>2018-01-31T13:37:33+01:00</time>
      </trkpt>
      <trkpt lat="44.97891" lon="4.6791">
        <ele>594</ele>
        <time>2018-01-31T13:37:43+01:00</time>
      </trkpt>
      <trkpt lat="44.97894" lon="4.67899">
        <ele>593</ele>
        <time>2018-01-31T13:37:51+01:00</time>
      </trkpt>
      <trkpt lat="44.97897" lon="4.67886">
        <ele>592</ele>
        <time>2018-01-31T13:37:59+01:00</time>
      </trkpt>
      <trkpt lat="44.97902" lon="4.67882">
        <ele>590</ele>
        <time>2018-01-31T13:38:08+01:00</time>
      </trkpt>
      <trkpt lat="44.97904" lon="4.6789">
        <ele>589</ele>
        <time>2018-01-31T13:38:17+01:00</time>
      </trkpt>
      <trkpt lat="44.97905" lon="4.67903">
        <ele>589</ele>
        <time>2018-01-31T13:38:26+01:00</time>
      </trkpt>
      <trkpt lat="44.97908" lon="4.67911">
        <ele>588</ele>
        <time>2018-01-31T13:38:34+01:00</time>
      </trkpt>
      <trkpt lat="44.97913" lon="4.67923">
        <ele>586</ele>
        <time>2018-01-31T13:38:44+01:00</time>
      </trkpt>
      <trkpt lat="44.97919" lon="4.67933">
        <ele>583</ele>
        <time>2018-01-31T13:38:53+01:00</time>
      </trkpt>
      <trkpt lat="44.97926" lon="4.67938">
        <ele>582</ele>
        <time>2018-01-31T13:39:01+01:00</time>
      </trkpt>
      <trkpt lat="44.97928" lon="4.6794">
        <ele>581</ele>
        <time>2018-01-31T13:39:11+01:00</time>
      </trkpt>
      <trkpt lat="44.97935" lon="4.67943">
        <ele>580</ele>
        <time>2018-01-31T13:39:34+01:00</time>
      </trkpt>
      <trkpt lat="44.97945" lon="4.67935">
        <ele>578</ele>
        <time>2018-01-31T13:39:43+01:00</time>
      </trkpt>
      <trkpt lat="44.97955" lon="4.67931">
        <ele>576</ele>
        <time>2018-01-31T13:39:53+01:00</time>
      </trkpt>
      <trkpt lat="44.97958" lon="4.67927">
        <ele>576</ele>
        <time>2018-01-31T13:40:00+01:00</time>
      </trkpt>
      <trkpt lat="44.97961" lon="4.67915">
        <ele>576</ele>
        <time>2018-01-31T13:40:08+01:00</time>
      </trkpt>
      <trkpt lat="44.97961" lon="4.67902">
        <ele>576</ele>
        <time>2018-01-31T13:40:16+01:00</time>
      </trkpt>
      <trkpt lat="44.97961" lon="4.67897">
        <ele>576</ele>
        <time>2018-01-31T13:40:19+01:00</time>
      </trkpt>
      <trkpt lat="44.97959" lon="4.67885">
        <ele>576</ele>
        <time>2018-01-31T13:40:27+01:00</time>
      </trkpt>
      <trkpt lat="44.97956" lon="4.67869">
        <ele>577</ele>
        <time>2018-01-31T13:40:36+01:00</time>
      </trkpt>
      <trkpt lat="44.97954" lon="4.67861">
        <ele>577</ele>
        <time>2018-01-31T13:40:40+01:00</time>
      </trkpt>
      <trkpt lat="44.97952" lon="4.67845">
        <ele>577</ele>
        <time>2018-01-31T13:40:49+01:00</time>
      </trkpt>
      <trkpt lat="44.97948" lon="4.67833">
        <ele>578</ele>
        <time>2018-01-31T13:40:57+01:00</time>
      </trkpt>
      <trkpt lat="44.97946" lon="4.67826">
        <ele>578</ele>
        <time>2018-01-31T13:41:01+01:00</time>
      </trkpt>
      <trkpt lat="44.97944" lon="4.67819">
        <ele>578</ele>
        <time>2018-01-31T13:41:05+01:00</time>
      </trkpt>
      <trkpt lat="44.9794" lon="4.67806">
        <ele>577</ele>
        <time>2018-01-31T13:41:14+01:00</time>
      </trkpt>
      <trkpt lat="44.97938" lon="4.67793">
        <ele>577</ele>
        <time>2018-01-31T13:41:22+01:00</time>
      </trkpt>
      <trkpt lat="44.97936" lon="4.67786">
        <ele>576</ele>
        <time>2018-01-31T13:41:31+01:00</time>
      </trkpt>
      <trkpt lat="44.97946" lon="4.67783">
        <ele>574</ele>
        <time>2018-01-31T13:42:11+01:00</time>
      </trkpt>
      <trkpt lat="44.97958" lon="4.67785">
        <ele>572</ele>
        <time>2018-01-31T13:42:21+01:00</time>
      </trkpt>
      <trkpt lat="44.97961" lon="4.67783">
        <ele>571</ele>
        <time>2018-01-31T13:42:23+01:00</time>
      </trkpt>
      <trkpt lat="44.97968" lon="4.67773">
        <ele>569</ele>
        <time>2018-01-31T13:42:33+01:00</time>
      </trkpt>
      <trkpt lat="44.97965" lon="4.67761">
        <ele>568</ele>
        <time>2018-01-31T13:42:41+01:00</time>
      </trkpt>
      <trkpt lat="44.97965" lon="4.67753">
        <ele>567</ele>
        <time>2018-01-31T13:42:49+01:00</time>
      </trkpt>
      <trkpt lat="44.97973" lon="4.67753">
        <ele>566</ele>
        <time>2018-01-31T13:43:14+01:00</time>
      </trkpt>
      <trkpt lat="44.97979" lon="4.6775">
        <ele>564</ele>
        <time>2018-01-31T13:43:23+01:00</time>
      </trkpt>
      <trkpt lat="44.97989" lon="4.6775">
        <ele>562</ele>
        <time>2018-01-31T13:43:31+01:00</time>
      </trkpt>
      <trkpt lat="44.97997" lon="4.67749">
        <ele>561</ele>
        <time>2018-01-31T13:43:40+01:00</time>
      </trkpt>
      <trkpt lat="44.98008" lon="4.67757">
        <ele>559</ele>
        <time>2018-01-31T13:48:12+01:00</time>
      </trkpt>
      <trkpt lat="44.98015" lon="4.67764">
        <ele>559</ele>
        <time>2018-01-31T13:48:20+01:00</time>
      </trkpt>
      <trkpt lat="44.98022" lon="4.67769">
        <ele>558</ele>
        <time>2018-01-31T13:48:28+01:00</time>
      </trkpt>
      <trkpt lat="44.98031" lon="4.67778">
        <ele>557</ele>
        <time>2018-01-31T13:48:37+01:00</time>
      </trkpt>
      <trkpt lat="44.98034" lon="4.67784">
        <ele>557</ele>
        <time>2018-01-31T13:48:45+01:00</time>
      </trkpt>
      <trkpt lat="44.98038" lon="4.67791">
        <ele>557</ele>
        <time>2018-01-31T13:48:53+01:00</time>
      </trkpt>
      <trkpt lat="44.98041" lon="4.67801">
        <ele>557</ele>
        <time>2018-01-31T13:49:00+01:00</time>
      </trkpt>
      <trkpt lat="44.98046" lon="4.67806">
        <ele>556</ele>
        <time>2018-01-31T13:49:09+01:00</time>
      </trkpt>
      <trkpt lat="44.98051" lon="4.67809">
        <ele>555</ele>
        <time>2018-01-31T13:49:17+01:00</time>
      </trkpt>
      <trkpt lat="44.98056" lon="4.67808">
        <ele>555</ele>
        <time>2018-01-31T13:49:27+01:00</time>
      </trkpt>
      <trkpt lat="44.98058" lon="4.6781">
        <ele>554</ele>
        <time>2018-01-31T13:49:38+01:00</time>
      </trkpt>
      <trkpt lat="44.98064" lon="4.67815">
        <ele>554</ele>
        <time>2018-01-31T13:49:45+01:00</time>
      </trkpt>
      <trkpt lat="44.98069" lon="4.67821">
        <ele>553</ele>
        <time>2018-01-31T13:49:53+01:00</time>
      </trkpt>
      <trkpt lat="44.9807" lon="4.67823">
        <ele>553</ele>
        <time>2018-01-31T13:50:00+01:00</time>
      </trkpt>
      <trkpt lat="44.98077" lon="4.67829">
        <ele>552</ele>
        <time>2018-01-31T13:50:08+01:00</time>
      </trkpt>
      <trkpt lat="44.98104" lon="4.67855">
        <ele>547</ele>
        <time>2018-01-31T13:51:36+01:00</time>
      </trkpt>
      <trkpt lat="44.98111" lon="4.67853">
        <ele>546</ele>
        <time>2018-01-31T13:51:52+01:00</time>
      </trkpt>
      <trkpt lat="44.98117" lon="4.67857">
        <ele>545</ele>
        <time>2018-01-31T13:52:28+01:00</time>
      </trkpt>
      <trkpt lat="44.98118" lon="4.67856">
        <ele>545</ele>
        <time>2018-01-31T13:52:37+01:00</time>
      </trkpt>
      <trkpt lat="44.98119" lon="4.67864">
        <ele>544</ele>
        <time>2018-01-31T13:52:46+01:00</time>
      </trkpt>
      <trkpt lat="44.98124" lon="4.67873">
        <ele>544</ele>
        <time>2018-01-31T13:52:56+01:00</time>
      </trkpt>
      <trkpt lat="44.98126" lon="4.67887">
        <ele>543</ele>
        <time>2018-01-31T13:53:05+01:00</time>
      </trkpt>
      <trkpt lat="44.98129" lon="4.67901">
        <ele>543</ele>
        <time>2018-01-31T13:53:13+01:00</time>
      </trkpt>
      <trkpt lat="44.98134" lon="4.67914">
        <ele>542</ele>
        <time>2018-01-31T13:53:22+01:00</time>
      </trkpt>
      <trkpt lat="44.98145" lon="4.67922">
        <ele>539</ele>
        <time>2018-01-31T13:53:31+01:00</time>
      </trkpt>
      <trkpt lat="44.98151" lon="4.67923">
        <ele>538</ele>
        <time>2018-01-31T13:53:37+01:00</time>
      </trkpt>
      <trkpt lat="44.98162" lon="4.67928">
        <ele>535</ele>
        <time>2018-01-31T13:53:47+01:00</time>
      </trkpt>
      <trkpt lat="44.9817" lon="4.67933">
        <ele>534</ele>
        <time>2018-01-31T13:53:55+01:00</time>
      </trkpt>
      <trkpt lat="44.98178" lon="4.67939">
        <ele>532</ele>
        <time>2018-01-31T13:54:03+01:00</time>
      </trkpt>
      <trkpt lat="44.98188" lon="4.67944">
        <ele>530</ele>
        <time>2018-01-31T13:54:12+01:00</time>
      </trkpt>
      <trkpt lat="44.98198" lon="4.6795">
        <ele>528</ele>
        <time>2018-01-31T13:54:22+01:00</time>
      </trkpt>
      <trkpt lat="44.9821" lon="4.67952">
        <ele>526</ele>
        <time>2018-01-31T13:54:33+01:00</time>
      </trkpt>
      <trkpt lat="44.98219" lon="4.67953">
        <ele>525</ele>
        <time>2018-01-31T13:54:42+01:00</time>
      </trkpt>
      <trkpt lat="44.98228" lon="4.67953">
        <ele>523</ele>
        <time>2018-01-31T13:55:39+01:00</time>
      </trkpt>
      <trkpt lat="44.98232" lon="4.67952">
        <ele>523</ele>
        <time>2018-01-31T13:55:46+01:00</time>
      </trkpt>
      <trkpt lat="44.98239" lon="4.67952">
        <ele>522</ele>
        <time>2018-01-31T13:55:54+01:00</time>
      </trkpt>
      <trkpt lat="44.98243" lon="4.67951">
        <ele>521</ele>
        <time>2018-01-31T13:56:16+01:00</time>
      </trkpt>
      <trkpt lat="44.98253" lon="4.67947">
        <ele>520</ele>
        <time>2018-01-31T13:56:24+01:00</time>
      </trkpt>
      <trkpt lat="44.98264" lon="4.67942">
        <ele>519</ele>
        <time>2018-01-31T13:56:33+01:00</time>
      </trkpt>
      <trkpt lat="44.98274" lon="4.67937">
        <ele>517</ele>
        <time>2018-01-31T13:56:41+01:00</time>
      </trkpt>
      <trkpt lat="44.98283" lon="4.67932">
        <ele>516</ele>
        <time>2018-01-31T13:56:49+01:00</time>
      </trkpt>
      <trkpt lat="44.98289" lon="4.67929">
        <ele>515</ele>
        <time>2018-01-31T13:56:56+01:00</time>
      </trkpt>
      <trkpt lat="44.98293" lon="4.67926">
        <ele>515</ele>
        <time>2018-01-31T13:57:05+01:00</time>
      </trkpt>
      <trkpt lat="44.98295" lon="4.67924">
        <ele>514</ele>
        <time>2018-01-31T13:57:15+01:00</time>
      </trkpt>
      <trkpt lat="44.983" lon="4.6792">
        <ele>514</ele>
        <time>2018-01-31T13:57:22+01:00</time>
      </trkpt>
      <trkpt lat="44.98311" lon="4.67914">
        <ele>512</ele>
        <time>2018-01-31T13:57:31+01:00</time>
      </trkpt>
      <trkpt lat="44.98323" lon="4.67914">
        <ele>510</ele>
        <time>2018-01-31T13:57:40+01:00</time>
      </trkpt>
      <trkpt lat="44.98325" lon="4.67914">
        <ele>509</ele>
        <time>2018-01-31T13:57:42+01:00</time>
      </trkpt>
      <trkpt lat="44.98333" lon="4.67913">
        <ele>508</ele>
        <time>2018-01-31T13:57:50+01:00</time>
      </trkpt>
      <trkpt lat="44.9834" lon="4.67914">
        <ele>506</ele>
        <time>2018-01-31T13:57:58+01:00</time>
      </trkpt>
      <trkpt lat="44.98348" lon="4.67914">
        <ele>504</ele>
        <time>2018-01-31T13:58:08+01:00</time>
      </trkpt>
      <trkpt lat="44.98355" lon="4.67916">
        <ele>503</ele>
        <time>2018-01-31T13:58:16+01:00</time>
      </trkpt>
      <trkpt lat="44.98363" lon="4.6792">
        <ele>502</ele>
        <time>2018-01-31T13:58:23+01:00</time>
      </trkpt>
      <trkpt lat="44.98373" lon="4.67925">
        <ele>500</ele>
        <time>2018-01-31T13:58:33+01:00</time>
      </trkpt>
      <trkpt lat="44.98378" lon="4.67928">
        <ele>499</ele>
        <time>2018-01-31T13:58:42+01:00</time>
      </trkpt>
      <trkpt lat="44.98381" lon="4.67928">
        <ele>498</ele>
        <time>2018-01-31T13:58:54+01:00</time>
      </trkpt>
      <trkpt lat="44.98384" lon="4.67933">
        <ele>498</ele>
        <time>2018-01-31T13:59:02+01:00</time>
      </trkpt>
      <trkpt lat="44.98387" lon="4.67935">
        <ele>497</ele>
        <time>2018-01-31T13:59:09+01:00</time>
      </trkpt>
      <trkpt lat="44.98391" lon="4.67936">
        <ele>497</ele>
        <time>2018-01-31T13:59:21+01:00</time>
      </trkpt>
      <trkpt lat="44.98402" lon="4.67936">
        <ele>494</ele>
        <time>2018-01-31T13:59:29+01:00</time>
      </trkpt>
      <trkpt lat="44.98412" lon="4.67938">
        <ele>492</ele>
        <time>2018-01-31T13:59:38+01:00</time>
      </trkpt>
      <trkpt lat="44.98424" lon="4.67942">
        <ele>490</ele>
        <time>2018-01-31T13:59:48+01:00</time>
      </trkpt>
      <trkpt lat="44.98432" lon="4.67943">
        <ele>489</ele>
        <time>2018-01-31T13:59:55+01:00</time>
      </trkpt>
      <trkpt lat="44.98434" lon="4.67945">
        <ele>489</ele>
        <time>2018-01-31T14:00:03+01:00</time>
      </trkpt>
      <trkpt lat="44.98443" lon="4.67941">
        <ele>487</ele>
        <time>2018-01-31T14:00:11+01:00</time>
      </trkpt>
      <trkpt lat="44.98443" lon="4.67936">
        <ele>487</ele>
        <time>2018-01-31T14:00:14+01:00</time>
      </trkpt>
      <trkpt lat="44.98439" lon="4.67923">
        <ele>486</ele>
        <time>2018-01-31T14:00:23+01:00</time>
      </trkpt>
      <trkpt lat="44.98431" lon="4.67914">
        <ele>487</ele>
        <time>2018-01-31T14:00:32+01:00</time>
      </trkpt>
      <trkpt lat="44.98425" lon="4.67907">
        <ele>487</ele>
        <time>2018-01-31T14:00:37+01:00</time>
      </trkpt>
      <trkpt lat="44.98417" lon="4.67896">
        <ele>486</ele>
        <time>2018-01-31T14:00:47+01:00</time>
      </trkpt>
      <trkpt lat="44.98412" lon="4.67887">
        <ele>486</ele>
        <time>2018-01-31T14:00:54+01:00</time>
      </trkpt>
      <trkpt lat="44.98409" lon="4.67883">
        <ele>486</ele>
        <time>2018-01-31T14:01:01+01:00</time>
      </trkpt>
      <trkpt lat="44.9841" lon="4.67874">
        <ele>485</ele>
        <time>2018-01-31T14:01:09+01:00</time>
      </trkpt>
      <trkpt lat="44.98417" lon="4.67868">
        <ele>483</ele>
      </trkpt>
      <trkpt lat="44.98429" lon="4.67874">
        <ele>482</ele>
        <time>2018-01-31T14:01:51+01:00</time>
      </trkpt>
      <trkpt lat="44.98438" lon="4.6788">
        <ele>482</ele>
        <time>2018-01-31T14:01:59+01:00</time>
      </trkpt>
      <trkpt lat="44.98443" lon="4.67883">
        <ele>481</ele>
        <time>2018-01-31T14:02:06+01:00</time>
      </trkpt>
      <trkpt lat="44.98455" lon="4.67882">
        <ele>480</ele>
        <time>2018-01-31T14:02:15+01:00</time>
      </trkpt>
      <trkpt lat="44.98467" lon="4.67883">
        <ele>478</ele>
        <time>2018-01-31T14:02:24+01:00</time>
      </trkpt>
      <trkpt lat="44.98474" lon="4.67884">
        <ele>478</ele>
        <time>2018-01-31T14:02:30+01:00</time>
      </trkpt>
      <trkpt lat="44.98486" lon="4.67886">
        <ele>476</ele>
        <time>2018-01-31T14:02:40+01:00</time>
      </trkpt>
      <trkpt lat="44.98495" lon="4.6789">
        <ele>475</ele>
        <time>2018-01-31T14:02:48+01:00</time>
      </trkpt>
      <trkpt lat="44.98503" lon="4.67893">
        <ele>475</ele>
        <time>2018-01-31T14:02:55+01:00</time>
      </trkpt>
      <trkpt lat="44.98515" lon="4.67898">
        <ele>474</ele>
        <time>2018-01-31T14:03:05+01:00</time>
      </trkpt>
      <trkpt lat="44.98525" lon="4.67907">
        <ele>473</ele>
        <time>2018-01-31T14:03:13+01:00</time>
      </trkpt>
      <trkpt lat="44.98535" lon="4.67912">
        <ele>472</ele>
        <time>2018-01-31T14:03:20+01:00</time>
      </trkpt>
      <trkpt lat="44.98546" lon="4.67905">
        <ele>470</ele>
        <time>2018-01-31T14:03:30+01:00</time>
      </trkpt>
      <trkpt lat="44.98561" lon="4.67898">
        <ele>468</ele>
        <time>2018-01-31T14:04:30+01:00</time>
      </trkpt>
      <trkpt lat="44.98571" lon="4.67902">
        <ele>467</ele>
        <time>2018-01-31T14:04:38+01:00</time>
      </trkpt>
      <trkpt lat="44.98577" lon="4.67904">
        <ele>467</ele>
      </trkpt>
      <trkpt lat="44.98577" lon="4.67914">
        <ele>467</ele>
        <time>2018-01-31T14:04:48+01:00</time>
      </trkpt>
      <trkpt lat="44.98575" lon="4.67924">
        <ele>467</ele>
        <time>2018-01-31T14:04:55+01:00</time>
      </trkpt>
      <trkpt lat="44.98567" lon="4.67932">
        <ele>469</ele>
        <time>2018-01-31T14:05:03+01:00</time>
      </trkpt>
      <trkpt lat="44.98558" lon="4.67947">
        <ele>470</ele>
        <time>2018-01-31T14:05:13+01:00</time>
      </trkpt>
      <trkpt lat="44.98558" lon="4.67962">
        <ele>471</ele>
        <time>2018-01-31T14:05:20+01:00</time>
      </trkpt>
      <trkpt lat="44.9856" lon="4.6797">
        <ele>471</ele>
        <time>2018-01-31T14:05:28+01:00</time>
      </trkpt>
      <trkpt lat="44.98562" lon="4.6797">
        <ele>471</ele>
        <time>2018-01-31T14:05:29+01:00</time>
      </trkpt>
      <trkpt lat="44.98575" lon="4.67966">
        <ele>469</ele>
        <time>2018-01-31T14:05:37+01:00</time>
      </trkpt>
      <trkpt lat="44.98586" lon="4.6796">
        <ele>468</ele>
        <time>2018-01-31T14:05:47+01:00</time>
      </trkpt>
      <trkpt lat="44.98595" lon="4.67958">
        <ele>467</ele>
        <time>2018-01-31T14:05:54+01:00</time>
      </trkpt>
      <trkpt lat="44.98607" lon="4.67954">
        <ele>467</ele>
        <time>2018-01-31T14:06:04+01:00</time>
      </trkpt>
      <trkpt lat="44.98616" lon="4.67951">
        <ele>467</ele>
        <time>2018-01-31T14:06:12+01:00</time>
      </trkpt>
      <trkpt lat="44.98625" lon="4.67948">
        <ele>467</ele>
        <time>2018-01-31T14:06:19+01:00</time>
      </trkpt>
      <trkpt lat="44.98634" lon="4.67945">
        <ele>466</ele>
        <time>2018-01-31T14:06:28+01:00</time>
      </trkpt>
      <trkpt lat="44.98645" lon="4.67942">
        <ele>466</ele>
        <time>2018-01-31T14:06:37+01:00</time>
      </trkpt>
      <trkpt lat="44.98656" lon="4.67935">
        <ele>466</ele>
        <time>2018-01-31T14:06:46+01:00</time>
      </trkpt>
      <trkpt lat="44.9866" lon="4.6793">
        <ele>466</ele>
        <time>2018-01-31T14:06:54+01:00</time>
      </trkpt>
      <trkpt lat="44.98669" lon="4.67925">
        <ele>465</ele>
        <time>2018-01-31T14:07:01+01:00</time>
      </trkpt>
      <trkpt lat="44.98677" lon="4.67927">
        <ele>465</ele>
        <time>2018-01-31T14:07:11+01:00</time>
      </trkpt>
      <trkpt lat="44.98682" lon="4.67948">
        <ele>465</ele>
        <time>2018-01-31T14:08:11+01:00</time>
      </trkpt>
      <trkpt lat="44.98681" lon="4.67961">
        <ele>466</ele>
        <time>2018-01-31T14:08:21+01:00</time>
      </trkpt>
      <trkpt lat="44.98681" lon="4.67964">
        <ele>466</ele>
        <time>2018-01-31T14:08:23+01:00</time>
      </trkpt>
      <trkpt lat="44.98679" lon="4.67972">
        <ele>466</ele>
        <time>2018-01-31T14:08:28+01:00</time>
      </trkpt>
      <trkpt lat="44.98675" lon="4.67986">
        <ele>467</ele>
        <time>2018-01-31T14:08:38+01:00</time>
      </trkpt>
      <trkpt lat="44.98669" lon="4.67998">
        <ele>468</ele>
        <time>2018-01-31T14:08:46+01:00</time>
      </trkpt>
      <trkpt lat="44.98663" lon="4.6801">
        <ele>468</ele>
        <time>2018-01-31T14:08:54+01:00</time>
      </trkpt>
      <trkpt lat="44.98658" lon="4.68023">
        <ele>469</ele>
        <time>2018-01-31T14:09:01+01:00</time>
      </trkpt>
      <trkpt lat="44.98657" lon="4.68026">
        <ele>469</ele>
        <time>2018-01-31T14:09:03+01:00</time>
      </trkpt>
      <trkpt lat="44.98652" lon="4.68037">
        <ele>469</ele>
        <time>2018-01-31T14:09:11+01:00</time>
      </trkpt>
      <trkpt lat="44.98651" lon="4.68039">
        <ele>469</ele>
        <time>2018-01-31T14:09:13+01:00</time>
      </trkpt>
      <trkpt lat="44.98649" lon="4.68057">
        <ele>470</ele>
        <time>2018-01-31T14:09:24+01:00</time>
      </trkpt>
      <trkpt lat="44.98648" lon="4.68067">
        <ele>470</ele>
        <time>2018-01-31T14:09:31+01:00</time>
      </trkpt>
      <trkpt lat="44.98647" lon="4.68077">
        <ele>471</ele>
        <time>2018-01-31T14:09:37+01:00</time>
      </trkpt>
      <trkpt lat="44.98645" lon="4.68087">
        <ele>471</ele>
        <time>2018-01-31T14:09:45+01:00</time>
      </trkpt>
      <trkpt lat="44.98647" lon="4.68098">
        <ele>472</ele>
        <time>2018-01-31T14:09:52+01:00</time>
      </trkpt>
      <trkpt lat="44.98649" lon="4.68109">
        <ele>473</ele>
        <time>2018-01-31T14:09:59+01:00</time>
      </trkpt>
      <trkpt lat="44.98651" lon="4.6812">
        <ele>474</ele>
        <time>2018-01-31T14:10:07+01:00</time>
      </trkpt>
      <trkpt lat="44.98656" lon="4.68133">
        <ele>475</ele>
        <time>2018-01-31T14:10:16+01:00</time>
      </trkpt>
      <trkpt lat="44.9866" lon="4.68144">
        <ele>476</ele>
        <time>2018-01-31T14:10:24+01:00</time>
      </trkpt>
      <trkpt lat="44.98664" lon="4.68155">
        <ele>476</ele>
        <time>2018-01-31T14:10:32+01:00</time>
      </trkpt>
      <trkpt lat="44.98667" lon="4.68167">
        <ele>477</ele>
        <time>2018-01-31T14:10:40+01:00</time>
      </trkpt>
      <trkpt lat="44.98669" lon="4.68173">
        <ele>477</ele>
        <time>2018-01-31T14:10:44+01:00</time>
      </trkpt>
      <trkpt lat="44.98674" lon="4.6819">
        <ele>478</ele>
        <time>2018-01-31T14:10:54+01:00</time>
      </trkpt>
      <trkpt lat="44.98677" lon="4.68203">
        <ele>479</ele>
        <time>2018-01-31T14:11:02+01:00</time>
      </trkpt>
      <trkpt lat="44.9868" lon="4.68221">
        <ele>480</ele>
        <time>2018-01-31T14:11:12+01:00</time>
      </trkpt>
      <trkpt lat="44.98682" lon="4.68231">
        <ele>480</ele>
        <time>2018-01-31T14:11:19+01:00</time>
      </trkpt>
      <trkpt lat="44.98682" lon="4.68242">
        <ele>481</ele>
        <time>2018-01-31T14:11:26+01:00</time>
      </trkpt>
      <trkpt lat="44.98681" lon="4.68256">
        <ele>482</ele>
        <time>2018-01-31T14:11:36+01:00</time>
      </trkpt>
      <trkpt lat="44.98679" lon="4.68271">
        <ele>482</ele>
        <time>2018-01-31T14:11:46+01:00</time>
      </trkpt>
      <trkpt lat="44.98678" lon="4.68275">
        <ele>482</ele>
        <time>2018-01-31T14:11:49+01:00</time>
      </trkpt>
      <trkpt lat="44.98678" lon="4.6828">
        <ele>483</ele>
        <time>2018-01-31T14:11:53+01:00</time>
      </trkpt>
      <trkpt lat="44.98677" lon="4.68293">
        <ele>483</ele>
        <time>2018-01-31T14:12:02+01:00</time>
      </trkpt>
      <trkpt lat="44.98676" lon="4.68295">
        <ele>483</ele>
        <time>2018-01-31T14:12:03+01:00</time>
      </trkpt>
      <trkpt lat="44.98671" lon="4.68311">
        <ele>484</ele>
        <time>2018-01-31T14:12:13+01:00</time>
      </trkpt>
      <trkpt lat="44.98668" lon="4.68325">
        <ele>485</ele>
        <time>2018-01-31T14:12:22+01:00</time>
      </trkpt>
      <trkpt lat="44.98664" lon="4.68341">
        <ele>486</ele>
        <time>2018-01-31T14:12:32+01:00</time>
      </trkpt>
      <trkpt lat="44.98662" lon="4.68357">
        <ele>487</ele>
        <time>2018-01-31T14:12:42+01:00</time>
      </trkpt>
      <trkpt lat="44.98659" lon="4.68374">
        <ele>488</ele>
        <time>2018-01-31T14:12:51+01:00</time>
      </trkpt>
      <trkpt lat="44.98658" lon="4.68387">
        <ele>488</ele>
        <time>2018-01-31T14:13:00+01:00</time>
      </trkpt>
      <trkpt lat="44.98658" lon="4.684">
        <ele>489</ele>
        <time>2018-01-31T14:13:10+01:00</time>
      </trkpt>
      <trkpt lat="44.98658" lon="4.68413">
        <ele>489</ele>
        <time>2018-01-31T14:13:18+01:00</time>
      </trkpt>
      <trkpt lat="44.98657" lon="4.68425">
        <ele>489</ele>
        <time>2018-01-31T14:13:26+01:00</time>
      </trkpt>
      <trkpt lat="44.98657" lon="4.68437">
        <ele>489</ele>
        <time>2018-01-31T14:13:34+01:00</time>
      </trkpt>
      <trkpt lat="44.98659" lon="4.68453">
        <ele>488</ele>
        <time>2018-01-31T14:13:43+01:00</time>
      </trkpt>
      <trkpt lat="44.98658" lon="4.68464">
        <ele>488</ele>
        <time>2018-01-31T14:13:50+01:00</time>
      </trkpt>
      <trkpt lat="44.98655" lon="4.68476">
        <ele>488</ele>
        <time>2018-01-31T14:13:59+01:00</time>
      </trkpt>
      <trkpt lat="44.98653" lon="4.68479">
        <ele>489</ele>
        <time>2018-01-31T14:14:06+01:00</time>
      </trkpt>
      <trkpt lat="44.98654" lon="4.68486">
        <ele>488</ele>
        <time>2018-01-31T14:14:15+01:00</time>
      </trkpt>
      <trkpt lat="44.98652" lon="4.68491">
        <ele>489</ele>
        <time>2018-01-31T14:14:23+01:00</time>
      </trkpt>
      <trkpt lat="44.98652" lon="4.68489">
        <ele>489</ele>
        <time>2018-01-31T14:14:40+01:00</time>
      </trkpt>
      <trkpt lat="44.98649" lon="4.68492">
        <ele>489</ele>
        <time>2018-01-31T14:14:44+01:00</time>
      </trkpt>
      <trkpt lat="44.98643" lon="4.68503">
        <ele>490</ele>
        <time>2018-01-31T14:14:52+01:00</time>
      </trkpt>
      <trkpt lat="44.98638" lon="4.68511">
        <ele>490</ele>
        <time>2018-01-31T14:15:00+01:00</time>
      </trkpt>
      <trkpt lat="44.98633" lon="4.6852">
        <ele>490</ele>
        <time>2018-01-31T14:15:09+01:00</time>
      </trkpt>
      <trkpt lat="44.98628" lon="4.68529">
        <ele>490</ele>
        <time>2018-01-31T14:15:17+01:00</time>
      </trkpt>
      <trkpt lat="44.98622" lon="4.68542">
        <ele>490</ele>
        <time>2018-01-31T14:15:27+01:00</time>
      </trkpt>
      <trkpt lat="44.98612" lon="4.68556">
        <ele>491</ele>
        <time>2018-01-31T14:15:36+01:00</time>
      </trkpt>
      <trkpt lat="44.98604" lon="4.68568">
        <ele>491</ele>
        <time>2018-01-31T14:15:46+01:00</time>
      </trkpt>
      <trkpt lat="44.98599" lon="4.68576">
        <ele>491</ele>
        <time>2018-01-31T14:15:52+01:00</time>
      </trkpt>
      <trkpt lat="44.98593" lon="4.68589">
        <ele>491</ele>
        <time>2018-01-31T14:16:01+01:00</time>
      </trkpt>
      <trkpt lat="44.9859" lon="4.68602">
        <ele>491</ele>
        <time>2018-01-31T14:16:09+01:00</time>
      </trkpt>
      <trkpt lat="44.98588" lon="4.68615">
        <ele>491</ele>
        <time>2018-01-31T14:16:18+01:00</time>
      </trkpt>
      <trkpt lat="44.98607" lon="4.6878">
        <ele>492</ele>
        <time>2018-01-31T14:17:43+01:00</time>
      </trkpt>
    </trkseg>
  </trk>
</gpx>